<?xml version='1.0' encoding='UTF-8'?>
<gpx version="1.1" creator="https://www.komoot.de" xmlns="http://www.topografix.com/GPX/1/1" xmlns:xsi="http://www.w3.org/2001/XMLSchema-instance" xsi:schemaLocation="http://www.topografix.com/GPX/1/1 http://www.topografix.com/GPX/1/1/gpx.xsd">
  <metadata>
    <name>55_740MuttenzSchauenburg</name>
    <author>
      <link href="https://www.komoot.de">
        <text>komoot</text>
        <type>text/html</type>
      </link>
    </author>
  </metadata>
  <trk>
    <name>55_740MuttenzSchauenburg</name>
    <trkseg>
      <trkpt lat="47.541360" lon="7.870832">
        <ele>339.191022</ele>
        <time>2021-11-14T14:21:12.552Z</time>
      </trkpt>
      <trkpt lat="47.541410" lon="7.870791">
        <ele>339.191022</ele>
        <time>2021-11-14T14:21:13.418Z</time>
      </trkpt>
      <trkpt lat="47.541576" lon="7.870664">
        <ele>339.191022</ele>
        <time>2021-11-14T14:21:15.857Z</time>
      </trkpt>
      <trkpt lat="47.541550" lon="7.870601">
        <ele>339.191022</ele>
        <time>2021-11-14T14:21:16.668Z</time>
      </trkpt>
      <trkpt lat="47.541549" lon="7.870598">
        <ele>339.191022</ele>
        <time>2021-11-14T14:21:16.740Z</time>
      </trkpt>
      <trkpt lat="47.541521" lon="7.870517">
        <ele>339.191022</ele>
        <time>2021-11-14T14:21:17.725Z</time>
      </trkpt>
      <trkpt lat="47.541606" lon="7.870424">
        <ele>339.191022</ele>
        <time>2021-11-14T14:21:19.353Z</time>
      </trkpt>
      <trkpt lat="47.541910" lon="7.870106">
        <ele>339.191022</ele>
        <time>2021-11-14T14:21:25.015Z</time>
      </trkpt>
      <trkpt lat="47.542014" lon="7.870126">
        <ele>339.150998</ele>
        <time>2021-11-14T14:21:26.486Z</time>
      </trkpt>
      <trkpt lat="47.542118" lon="7.870135">
        <ele>339.049033</ele>
        <time>2021-11-14T14:21:28.247Z</time>
      </trkpt>
      <trkpt lat="47.542181" lon="7.870131">
        <ele>338.987314</ele>
        <time>2021-11-14T14:21:29.103Z</time>
      </trkpt>
      <trkpt lat="47.542317" lon="7.870012">
        <ele>338.832716</ele>
        <time>2021-11-14T14:21:31.212Z</time>
      </trkpt>
      <trkpt lat="47.542348" lon="7.869983">
        <ele>338.796831</ele>
        <time>2021-11-14T14:21:31.651Z</time>
      </trkpt>
      <trkpt lat="47.542329" lon="7.869820">
        <ele>338.687542</ele>
        <time>2021-11-14T14:21:33.448Z</time>
      </trkpt>
      <trkpt lat="47.542372" lon="7.869746">
        <ele>338.623030</ele>
        <time>2021-11-14T14:21:34.251Z</time>
      </trkpt>
      <trkpt lat="47.542657" lon="7.869354">
        <ele>338.242384</ele>
        <time>2021-11-14T14:21:39.048Z</time>
      </trkpt>
      <trkpt lat="47.542696" lon="7.869257">
        <ele>338.167789</ele>
        <time>2021-11-14T14:21:39.983Z</time>
      </trkpt>
      <trkpt lat="47.542722" lon="7.869201">
        <ele>338.122883</ele>
        <time>2021-11-14T14:21:40.574Z</time>
      </trkpt>
      <trkpt lat="47.543049" lon="7.868759">
        <ele>337.689620</ele>
        <time>2021-11-14T14:21:45.487Z</time>
      </trkpt>
      <trkpt lat="47.543105" lon="7.868711">
        <ele>337.626296</ele>
        <time>2021-11-14T14:21:46.225Z</time>
      </trkpt>
      <trkpt lat="47.543201" lon="7.868657">
        <ele>337.525789</ele>
        <time>2021-11-14T14:21:47.304Z</time>
      </trkpt>
      <trkpt lat="47.543657" lon="7.868359">
        <ele>336.908590</ele>
        <time>2021-11-14T14:21:53.099Z</time>
      </trkpt>
      <trkpt lat="47.543801" lon="7.868269">
        <ele>336.705205</ele>
        <time>2021-11-14T14:21:55.579Z</time>
      </trkpt>
      <trkpt lat="47.544214" lon="7.867988">
        <ele>336.113785</ele>
        <time>2021-11-14T14:22:03.195Z</time>
      </trkpt>
      <trkpt lat="47.544246" lon="7.867967">
        <ele>336.068240</ele>
        <time>2021-11-14T14:22:03.792Z</time>
      </trkpt>
      <trkpt lat="47.544410" lon="7.867825">
        <ele>335.821044</ele>
        <time>2021-11-14T14:22:07.045Z</time>
      </trkpt>
      <trkpt lat="47.544469" lon="7.867776">
        <ele>335.733024</ele>
        <time>2021-11-14T14:22:08.067Z</time>
      </trkpt>
      <trkpt lat="47.544568" lon="7.867693">
        <ele>335.584994</ele>
        <time>2021-11-14T14:22:09.994Z</time>
      </trkpt>
      <trkpt lat="47.545003" lon="7.867278">
        <ele>335.174693</ele>
        <time>2021-11-14T14:22:18.842Z</time>
      </trkpt>
      <trkpt lat="47.545160" lon="7.866985">
        <ele>335.330883</ele>
        <time>2021-11-14T14:22:23.493Z</time>
      </trkpt>
      <trkpt lat="47.545240" lon="7.866887">
        <ele>335.395091</ele>
        <time>2021-11-14T14:22:25.766Z</time>
      </trkpt>
      <trkpt lat="47.546096" lon="7.866147">
        <ele>336.008104</ele>
        <time>2021-11-14T14:22:50.836Z</time>
      </trkpt>
      <trkpt lat="47.546327" lon="7.865959">
        <ele>336.171125</ele>
        <time>2021-11-14T14:22:57.257Z</time>
      </trkpt>
      <trkpt lat="47.546510" lon="7.865766">
        <ele>336.224873</ele>
        <time>2021-11-14T14:23:03.643Z</time>
      </trkpt>
      <trkpt lat="47.546819" lon="7.865489">
        <ele>336.271373</ele>
        <time>2021-11-14T14:23:11.796Z</time>
      </trkpt>
      <trkpt lat="47.546889" lon="7.865225">
        <ele>336.296022</ele>
        <time>2021-11-14T14:23:15.583Z</time>
      </trkpt>
      <trkpt lat="47.546894" lon="7.864837">
        <ele>336.329748</ele>
        <time>2021-11-14T14:23:20.760Z</time>
      </trkpt>
      <trkpt lat="47.546885" lon="7.864500">
        <ele>336.359057</ele>
        <time>2021-11-14T14:23:26.399Z</time>
      </trkpt>
      <trkpt lat="47.546974" lon="7.864423">
        <ele>336.372327</ele>
        <time>2021-11-14T14:23:27.987Z</time>
      </trkpt>
      <trkpt lat="47.547320" lon="7.863864">
        <ele>336.382926</ele>
        <time>2021-11-14T14:23:37.912Z</time>
      </trkpt>
      <trkpt lat="47.547568" lon="7.863151">
        <ele>335.531565</ele>
        <time>2021-11-14T14:23:46.925Z</time>
      </trkpt>
      <trkpt lat="47.547930" lon="7.861711">
        <ele>333.900573</ele>
        <time>2021-11-14T14:24:03.299Z</time>
      </trkpt>
      <trkpt lat="47.548049" lon="7.860929">
        <ele>333.171430</ele>
        <time>2021-11-14T14:24:11.998Z</time>
      </trkpt>
      <trkpt lat="47.548334" lon="7.859801">
        <ele>332.172907</ele>
        <time>2021-11-14T14:24:25.480Z</time>
      </trkpt>
      <trkpt lat="47.548611" lon="7.858381">
        <ele>331.333450</ele>
        <time>2021-11-14T14:24:43.436Z</time>
      </trkpt>
      <trkpt lat="47.548686" lon="7.857973">
        <ele>331.284244</ele>
        <time>2021-11-14T14:24:48.825Z</time>
      </trkpt>
      <trkpt lat="47.548701" lon="7.857893">
        <ele>331.274582</ele>
        <time>2021-11-14T14:24:49.946Z</time>
      </trkpt>
      <trkpt lat="47.548743" lon="7.857692">
        <ele>331.250097</ele>
        <time>2021-11-14T14:24:52.720Z</time>
      </trkpt>
      <trkpt lat="47.548887" lon="7.857308">
        <ele>331.198980</ele>
        <time>2021-11-14T14:24:58.754Z</time>
      </trkpt>
      <trkpt lat="47.549362" lon="7.855774">
        <ele>331.328829</ele>
        <time>2021-11-14T14:25:22.798Z</time>
      </trkpt>
      <trkpt lat="47.549566" lon="7.855225">
        <ele>331.539844</ele>
        <time>2021-11-14T14:25:32.091Z</time>
      </trkpt>
      <trkpt lat="47.549883" lon="7.854434">
        <ele>331.849588</ele>
        <time>2021-11-14T14:25:46.432Z</time>
      </trkpt>
      <trkpt lat="47.550221" lon="7.853833">
        <ele>332.085553</ele>
        <time>2021-11-14T14:25:55.913Z</time>
      </trkpt>
      <trkpt lat="47.549708" lon="7.853279">
        <ele>332.335059</ele>
        <time>2021-11-14T14:26:09.831Z</time>
      </trkpt>
      <trkpt lat="47.549285" lon="7.852784">
        <ele>332.546918</ele>
        <time>2021-11-14T14:26:21.263Z</time>
      </trkpt>
      <trkpt lat="47.549535" lon="7.852225">
        <ele>332.636225</ele>
        <time>2021-11-14T14:26:30.965Z</time>
      </trkpt>
      <trkpt lat="47.549652" lon="7.851969">
        <ele>332.505947</ele>
        <time>2021-11-14T14:26:35.366Z</time>
      </trkpt>
      <trkpt lat="47.549865" lon="7.851493">
        <ele>332.265293</ele>
        <time>2021-11-14T14:26:42.977Z</time>
      </trkpt>
      <trkpt lat="47.550009" lon="7.851173">
        <ele>332.103231</ele>
        <time>2021-11-14T14:26:47.698Z</time>
      </trkpt>
      <trkpt lat="47.550333" lon="7.850434">
        <ele>331.731903</ele>
        <time>2021-11-14T14:26:57.931Z</time>
      </trkpt>
      <trkpt lat="47.550488" lon="7.850081">
        <ele>331.537170</ele>
        <time>2021-11-14T14:27:02.648Z</time>
      </trkpt>
      <trkpt lat="47.550810" lon="7.849346">
        <ele>330.685272</ele>
        <time>2021-11-14T14:27:12.386Z</time>
      </trkpt>
      <trkpt lat="47.550975" lon="7.849066">
        <ele>330.323903</ele>
        <time>2021-11-14T14:27:16.614Z</time>
      </trkpt>
      <trkpt lat="47.551242" lon="7.848702">
        <ele>329.801274</ele>
        <time>2021-11-14T14:27:20.858Z</time>
      </trkpt>
      <trkpt lat="47.551669" lon="7.848083">
        <ele>328.938626</ele>
        <time>2021-11-14T14:27:27.699Z</time>
      </trkpt>
      <trkpt lat="47.551196" lon="7.847517">
        <ele>328.010457</ele>
        <time>2021-11-14T14:27:34.590Z</time>
      </trkpt>
      <trkpt lat="47.551184" lon="7.847206">
        <ele>327.689495</ele>
        <time>2021-11-14T14:27:36.960Z</time>
      </trkpt>
      <trkpt lat="47.551205" lon="7.846694">
        <ele>327.160982</ele>
        <time>2021-11-14T14:27:40.888Z</time>
      </trkpt>
      <trkpt lat="47.551344" lon="7.844621">
        <ele>325.385518</ele>
        <time>2021-11-14T14:27:57.496Z</time>
      </trkpt>
      <trkpt lat="47.551390" lon="7.843868">
        <ele>324.844055</ele>
        <time>2021-11-14T14:28:03.611Z</time>
      </trkpt>
      <trkpt lat="47.551454" lon="7.842815">
        <ele>324.142325</ele>
        <time>2021-11-14T14:28:12.719Z</time>
      </trkpt>
      <trkpt lat="47.551668" lon="7.842770">
        <ele>323.966919</ele>
        <time>2021-11-14T14:28:16.796Z</time>
      </trkpt>
      <trkpt lat="47.551922" lon="7.842704">
        <ele>323.757646</ele>
        <time>2021-11-14T14:28:21.438Z</time>
      </trkpt>
      <trkpt lat="47.552380" lon="7.842592">
        <ele>323.380940</ele>
        <time>2021-11-14T14:28:29.878Z</time>
      </trkpt>
      <trkpt lat="47.552833" lon="7.842495">
        <ele>323.009501</ele>
        <time>2021-11-14T14:28:37.860Z</time>
      </trkpt>
      <trkpt lat="47.553133" lon="7.842431">
        <ele>322.675497</ele>
        <time>2021-11-14T14:28:43.111Z</time>
      </trkpt>
      <trkpt lat="47.553123" lon="7.842222">
        <ele>322.459090</ele>
        <time>2021-11-14T14:28:44.692Z</time>
      </trkpt>
      <trkpt lat="47.553216" lon="7.841849">
        <ele>322.048388</ele>
        <time>2021-11-14T14:28:47.903Z</time>
      </trkpt>
      <trkpt lat="47.553231" lon="7.841529">
        <ele>321.717080</ele>
        <time>2021-11-14T14:28:50.394Z</time>
      </trkpt>
      <trkpt lat="47.552939" lon="7.839526">
        <ele>319.603037</ele>
        <time>2021-11-14T14:29:05.930Z</time>
      </trkpt>
      <trkpt lat="47.552802" lon="7.839009">
        <ele>319.032147</ele>
        <time>2021-11-14T14:29:10.252Z</time>
      </trkpt>
      <trkpt lat="47.552736" lon="7.838578">
        <ele>318.577883</ele>
        <time>2021-11-14T14:29:13.691Z</time>
      </trkpt>
      <trkpt lat="47.552697" lon="7.838068">
        <ele>318.050325</ele>
        <time>2021-11-14T14:29:17.707Z</time>
      </trkpt>
      <trkpt lat="47.552719" lon="7.836790">
        <ele>316.647525</ele>
        <time>2021-11-14T14:29:27.734Z</time>
      </trkpt>
      <trkpt lat="47.552714" lon="7.835010">
        <ele>314.562067</ele>
        <time>2021-11-14T14:29:41.484Z</time>
      </trkpt>
      <trkpt lat="47.552700" lon="7.833938">
        <ele>312.723390</ele>
        <time>2021-11-14T14:29:49.051Z</time>
      </trkpt>
      <trkpt lat="47.552696" lon="7.833789">
        <ele>312.440759</ele>
        <time>2021-11-14T14:29:50.048Z</time>
      </trkpt>
      <trkpt lat="47.552452" lon="7.833284">
        <ele>311.263613</ele>
        <time>2021-11-14T14:29:54.374Z</time>
      </trkpt>
      <trkpt lat="47.552467" lon="7.833198">
        <ele>311.095257</ele>
        <time>2021-11-14T14:29:54.985Z</time>
      </trkpt>
      <trkpt lat="47.552511" lon="7.833072">
        <ele>310.826369</ele>
        <time>2021-11-14T14:29:55.990Z</time>
      </trkpt>
      <trkpt lat="47.552556" lon="7.832977">
        <ele>310.606389</ele>
        <time>2021-11-14T14:29:56.808Z</time>
      </trkpt>
      <trkpt lat="47.552616" lon="7.832891">
        <ele>310.371952</ele>
        <time>2021-11-14T14:29:57.614Z</time>
      </trkpt>
      <trkpt lat="47.552690" lon="7.832598">
        <ele>309.779005</ele>
        <time>2021-11-14T14:29:59.815Z</time>
      </trkpt>
      <trkpt lat="47.552645" lon="7.830686">
        <ele>306.170858</ele>
        <time>2021-11-14T14:30:12.937Z</time>
      </trkpt>
      <trkpt lat="47.552554" lon="7.829266">
        <ele>303.799792</ele>
        <time>2021-11-14T14:30:23.224Z</time>
      </trkpt>
      <trkpt lat="47.552416" lon="7.828822">
        <ele>303.299350</ele>
        <time>2021-11-14T14:30:26.888Z</time>
      </trkpt>
      <trkpt lat="47.552404" lon="7.828582">
        <ele>303.052969</ele>
        <time>2021-11-14T14:30:28.802Z</time>
      </trkpt>
      <trkpt lat="47.552421" lon="7.828481">
        <ele>302.946400</ele>
        <time>2021-11-14T14:30:29.558Z</time>
      </trkpt>
      <trkpt lat="47.552477" lon="7.828294">
        <ele>302.736954</ele>
        <time>2021-11-14T14:30:31.133Z</time>
      </trkpt>
      <trkpt lat="47.552515" lon="7.828094">
        <ele>302.524239</ele>
        <time>2021-11-14T14:30:32.852Z</time>
      </trkpt>
      <trkpt lat="47.552491" lon="7.827227">
        <ele>301.635877</ele>
        <time>2021-11-14T14:30:39.759Z</time>
      </trkpt>
      <trkpt lat="47.552567" lon="7.824508">
        <ele>300.261428</ele>
        <time>2021-11-14T14:31:03.607Z</time>
      </trkpt>
      <trkpt lat="47.552896" lon="7.820699">
        <ele>298.366508</ele>
        <time>2021-11-14T14:31:36.346Z</time>
      </trkpt>
      <trkpt lat="47.552948" lon="7.819358">
        <ele>297.752206</ele>
        <time>2021-11-14T14:31:47.885Z</time>
      </trkpt>
      <trkpt lat="47.552844" lon="7.816432">
        <ele>297.302561</ele>
        <time>2021-11-14T14:32:15.519Z</time>
      </trkpt>
      <trkpt lat="47.552711" lon="7.812955">
        <ele>298.599646</ele>
        <time>2021-11-14T14:32:56.174Z</time>
      </trkpt>
      <trkpt lat="47.552566" lon="7.810386">
        <ele>299.724812</ele>
        <time>2021-11-14T14:33:26.205Z</time>
      </trkpt>
      <trkpt lat="47.552398" lon="7.808880">
        <ele>300.414217</ele>
        <time>2021-11-14T14:33:44.686Z</time>
      </trkpt>
      <trkpt lat="47.552068" lon="7.806445">
        <ele>300.848155</ele>
        <time>2021-11-14T14:34:13.026Z</time>
      </trkpt>
      <trkpt lat="47.552015" lon="7.806307">
        <ele>300.867028</ele>
        <time>2021-11-14T14:34:14.749Z</time>
      </trkpt>
      <trkpt lat="47.551895" lon="7.806278">
        <ele>300.888441</ele>
        <time>2021-11-14T14:34:16.058Z</time>
      </trkpt>
      <trkpt lat="47.551651" lon="7.806246">
        <ele>300.863792</ele>
        <time>2021-11-14T14:34:19.821Z</time>
      </trkpt>
      <trkpt lat="47.551671" lon="7.806117">
        <ele>300.792919</ele>
        <time>2021-11-14T14:34:21.135Z</time>
      </trkpt>
      <trkpt lat="47.551681" lon="7.805477">
        <ele>300.450134</ele>
        <time>2021-11-14T14:34:28.833Z</time>
      </trkpt>
      <trkpt lat="47.551709" lon="7.805000">
        <ele>300.193756</ele>
        <time>2021-11-14T14:34:34.472Z</time>
      </trkpt>
      <trkpt lat="47.551731" lon="7.804667">
        <ele>300.014597</ele>
        <time>2021-11-14T14:34:39.058Z</time>
      </trkpt>
      <trkpt lat="47.551744" lon="7.804473">
        <ele>299.910207</ele>
        <time>2021-11-14T14:34:41.053Z</time>
      </trkpt>
      <trkpt lat="47.551741" lon="7.804294">
        <ele>299.814331</ele>
        <time>2021-11-14T14:34:43.389Z</time>
      </trkpt>
      <trkpt lat="47.551692" lon="7.803510">
        <ele>299.389589</ele>
        <time>2021-11-14T14:34:52.518Z</time>
      </trkpt>
      <trkpt lat="47.551751" lon="7.803369">
        <ele>299.297948</ele>
        <time>2021-11-14T14:34:54.453Z</time>
      </trkpt>
      <trkpt lat="47.551744" lon="7.803277">
        <ele>299.246807</ele>
        <time>2021-11-14T14:34:55.249Z</time>
      </trkpt>
      <trkpt lat="47.551732" lon="7.803125">
        <ele>299.162272</ele>
        <time>2021-11-14T14:34:56.646Z</time>
      </trkpt>
      <trkpt lat="47.551700" lon="7.802648">
        <ele>298.897487</ele>
        <time>2021-11-14T14:35:00.992Z</time>
      </trkpt>
      <trkpt lat="47.551688" lon="7.802394">
        <ele>298.756838</ele>
        <time>2021-11-14T14:35:03.386Z</time>
      </trkpt>
      <trkpt lat="47.551679" lon="7.802228">
        <ele>298.664846</ele>
        <time>2021-11-14T14:35:04.873Z</time>
      </trkpt>
      <trkpt lat="47.551671" lon="7.802077">
        <ele>298.581180</ele>
        <time>2021-11-14T14:35:06.433Z</time>
      </trkpt>
      <trkpt lat="47.551669" lon="7.801853">
        <ele>298.457435</ele>
        <time>2021-11-14T14:35:08.422Z</time>
      </trkpt>
      <trkpt lat="47.551666" lon="7.801632">
        <ele>298.335333</ele>
        <time>2021-11-14T14:35:10.387Z</time>
      </trkpt>
      <trkpt lat="47.551669" lon="7.801438">
        <ele>298.228142</ele>
        <time>2021-11-14T14:35:11.892Z</time>
      </trkpt>
      <trkpt lat="47.551672" lon="7.801147">
        <ele>298.067380</ele>
        <time>2021-11-14T14:35:14.352Z</time>
      </trkpt>
      <trkpt lat="47.551704" lon="7.800451">
        <ele>296.812675</ele>
        <time>2021-11-14T14:35:19.778Z</time>
      </trkpt>
      <trkpt lat="47.551712" lon="7.800249">
        <ele>296.413572</ele>
        <time>2021-11-14T14:35:21.220Z</time>
      </trkpt>
      <trkpt lat="47.551731" lon="7.800027">
        <ele>295.972202</ele>
        <time>2021-11-14T14:35:22.791Z</time>
      </trkpt>
      <trkpt lat="47.551754" lon="7.799766">
        <ele>295.453046</ele>
        <time>2021-11-14T14:35:24.566Z</time>
      </trkpt>
      <trkpt lat="47.551793" lon="7.799434">
        <ele>294.788378</ele>
        <time>2021-11-14T14:35:26.906Z</time>
      </trkpt>
      <trkpt lat="47.551805" lon="7.799326">
        <ele>294.572496</ele>
        <time>2021-11-14T14:35:27.607Z</time>
      </trkpt>
      <trkpt lat="47.551948" lon="7.798607">
        <ele>293.094081</ele>
        <time>2021-11-14T14:35:32.690Z</time>
      </trkpt>
      <trkpt lat="47.552084" lon="7.798083">
        <ele>291.731139</ele>
        <time>2021-11-14T14:35:36.309Z</time>
      </trkpt>
      <trkpt lat="47.552152" lon="7.797876">
        <ele>291.127707</ele>
        <time>2021-11-14T14:35:37.772Z</time>
      </trkpt>
      <trkpt lat="47.552493" lon="7.797048">
        <ele>288.585270</ele>
        <time>2021-11-14T14:35:44.000Z</time>
      </trkpt>
      <trkpt lat="47.552762" lon="7.796425">
        <ele>286.646734</ele>
        <time>2021-11-14T14:35:48.958Z</time>
      </trkpt>
      <trkpt lat="47.552817" lon="7.796239">
        <ele>286.114469</ele>
        <time>2021-11-14T14:35:50.362Z</time>
      </trkpt>
      <trkpt lat="47.552886" lon="7.795976">
        <ele>285.611458</ele>
        <time>2021-11-14T14:35:52.361Z</time>
      </trkpt>
      <trkpt lat="47.552930" lon="7.795600">
        <ele>285.197226</ele>
        <time>2021-11-14T14:35:55.255Z</time>
      </trkpt>
      <trkpt lat="47.552917" lon="7.795354">
        <ele>284.929380</ele>
        <time>2021-11-14T14:35:57.156Z</time>
      </trkpt>
      <trkpt lat="47.552913" lon="7.795294">
        <ele>284.863933</ele>
        <time>2021-11-14T14:35:57.595Z</time>
      </trkpt>
      <trkpt lat="47.552909" lon="7.795229">
        <ele>284.793084</ele>
        <time>2021-11-14T14:35:58.153Z</time>
      </trkpt>
      <trkpt lat="47.552892" lon="7.795106">
        <ele>284.656799</ele>
        <time>2021-11-14T14:35:59.079Z</time>
      </trkpt>
      <trkpt lat="47.552861" lon="7.794992">
        <ele>284.523387</ele>
        <time>2021-11-14T14:35:59.966Z</time>
      </trkpt>
      <trkpt lat="47.552837" lon="7.794925">
        <ele>284.441050</ele>
        <time>2021-11-14T14:36:00.543Z</time>
      </trkpt>
      <trkpt lat="47.552826" lon="7.794894">
        <ele>284.403033</ele>
        <time>2021-11-14T14:36:00.808Z</time>
      </trkpt>
      <trkpt lat="47.552786" lon="7.794796">
        <ele>284.278715</ele>
        <time>2021-11-14T14:36:01.648Z</time>
      </trkpt>
      <trkpt lat="47.552763" lon="7.794750">
        <ele>284.216573</ele>
        <time>2021-11-14T14:36:02.171Z</time>
      </trkpt>
      <trkpt lat="47.552644" lon="7.794507">
        <ele>283.890677</ele>
        <time>2021-11-14T14:36:04.441Z</time>
      </trkpt>
      <trkpt lat="47.552532" lon="7.794285">
        <ele>283.589813</ele>
        <time>2021-11-14T14:36:06.614Z</time>
      </trkpt>
      <trkpt lat="47.552494" lon="7.794200">
        <ele>283.479140</ele>
        <time>2021-11-14T14:36:07.427Z</time>
      </trkpt>
      <trkpt lat="47.552384" lon="7.793915">
        <ele>283.122760</ele>
        <time>2021-11-14T14:36:10.165Z</time>
      </trkpt>
      <trkpt lat="47.552369" lon="7.793872">
        <ele>283.070218</ele>
        <time>2021-11-14T14:36:10.805Z</time>
      </trkpt>
      <trkpt lat="47.552292" lon="7.793607">
        <ele>282.842928</ele>
        <time>2021-11-14T14:36:13.205Z</time>
      </trkpt>
      <trkpt lat="47.552233" lon="7.793294">
        <ele>282.725357</ele>
        <time>2021-11-14T14:36:16.620Z</time>
      </trkpt>
      <trkpt lat="47.552216" lon="7.793160">
        <ele>282.676030</ele>
        <time>2021-11-14T14:36:17.779Z</time>
      </trkpt>
      <trkpt lat="47.552198" lon="7.792976">
        <ele>282.608767</ele>
        <time>2021-11-14T14:36:19.513Z</time>
      </trkpt>
      <trkpt lat="47.552184" lon="7.792540">
        <ele>282.450852</ele>
        <time>2021-11-14T14:36:23.920Z</time>
      </trkpt>
      <trkpt lat="47.552180" lon="7.792294">
        <ele>282.361828</ele>
        <time>2021-11-14T14:36:26.440Z</time>
      </trkpt>
      <trkpt lat="47.552182" lon="7.792040">
        <ele>282.269930</ele>
        <time>2021-11-14T14:36:28.605Z</time>
      </trkpt>
      <trkpt lat="47.552201" lon="7.791031">
        <ele>281.895231</ele>
        <time>2021-11-14T14:36:37.104Z</time>
      </trkpt>
      <trkpt lat="47.552135" lon="7.790302">
        <ele>281.479892</ele>
        <time>2021-11-14T14:36:43.532Z</time>
      </trkpt>
      <trkpt lat="47.552036" lon="7.789826">
        <ele>281.198630</ele>
        <time>2021-11-14T14:36:47.862Z</time>
      </trkpt>
      <trkpt lat="47.551858" lon="7.788906">
        <ele>280.658197</ele>
        <time>2021-11-14T14:36:55.893Z</time>
      </trkpt>
      <trkpt lat="47.551712" lon="7.788013">
        <ele>280.031065</ele>
        <time>2021-11-14T14:37:03.394Z</time>
      </trkpt>
      <trkpt lat="47.551694" lon="7.787879">
        <ele>279.923809</ele>
        <time>2021-11-14T14:37:04.508Z</time>
      </trkpt>
      <trkpt lat="47.551690" lon="7.787827">
        <ele>279.882724</ele>
        <time>2021-11-14T14:37:04.934Z</time>
      </trkpt>
      <trkpt lat="47.551672" lon="7.787603">
        <ele>279.705637</ele>
        <time>2021-11-14T14:37:06.687Z</time>
      </trkpt>
      <trkpt lat="47.551498" lon="7.785081">
        <ele>277.943556</ele>
        <time>2021-11-14T14:37:27.112Z</time>
      </trkpt>
      <trkpt lat="47.551479" lon="7.784929">
        <ele>277.867624</ele>
        <time>2021-11-14T14:37:28.368Z</time>
      </trkpt>
      <trkpt lat="47.551510" lon="7.784910">
        <ele>277.843208</ele>
        <time>2021-11-14T14:37:28.839Z</time>
      </trkpt>
      <trkpt lat="47.551531" lon="7.784884">
        <ele>277.823291</ele>
        <time>2021-11-14T14:37:29.192Z</time>
      </trkpt>
      <trkpt lat="47.551548" lon="7.784841">
        <ele>277.798812</ele>
        <time>2021-11-14T14:37:29.655Z</time>
      </trkpt>
      <trkpt lat="47.551554" lon="7.784788">
        <ele>277.772415</ele>
        <time>2021-11-14T14:37:30.126Z</time>
      </trkpt>
      <trkpt lat="47.551547" lon="7.784737">
        <ele>277.746851</ele>
        <time>2021-11-14T14:37:30.574Z</time>
      </trkpt>
      <trkpt lat="47.551525" lon="7.784691">
        <ele>277.719158</ele>
        <time>2021-11-14T14:37:31.080Z</time>
      </trkpt>
      <trkpt lat="47.551500" lon="7.784666">
        <ele>277.697207</ele>
        <time>2021-11-14T14:37:31.459Z</time>
      </trkpt>
      <trkpt lat="47.551472" lon="7.784654">
        <ele>277.675993</ele>
        <time>2021-11-14T14:37:31.825Z</time>
      </trkpt>
      <trkpt lat="47.551437" lon="7.784657">
        <ele>277.650478</ele>
        <time>2021-11-14T14:37:32.253Z</time>
      </trkpt>
      <trkpt lat="47.551439" lon="7.784323">
        <ele>277.486410</ele>
        <time>2021-11-14T14:37:35.180Z</time>
      </trkpt>
      <trkpt lat="47.551387" lon="7.783696">
        <ele>277.176108</ele>
        <time>2021-11-14T14:37:40.783Z</time>
      </trkpt>
      <trkpt lat="47.551302" lon="7.782671">
        <ele>276.923417</ele>
        <time>2021-11-14T14:37:50.780Z</time>
      </trkpt>
      <trkpt lat="47.551230" lon="7.781831">
        <ele>276.812674</ele>
        <time>2021-11-14T14:37:58.963Z</time>
      </trkpt>
      <trkpt lat="47.551198" lon="7.781475">
        <ele>276.765704</ele>
        <time>2021-11-14T14:38:02.472Z</time>
      </trkpt>
      <trkpt lat="47.551270" lon="7.781390">
        <ele>276.747864</ele>
        <time>2021-11-14T14:38:04.248Z</time>
      </trkpt>
      <trkpt lat="47.551208" lon="7.780694">
        <ele>276.642907</ele>
        <time>2021-11-14T14:38:10.989Z</time>
      </trkpt>
      <trkpt lat="47.551085" lon="7.779125">
        <ele>276.194224</ele>
        <time>2021-11-14T14:38:25.469Z</time>
      </trkpt>
      <trkpt lat="47.550982" lon="7.777915">
        <ele>275.905299</ele>
        <time>2021-11-14T14:38:36.032Z</time>
      </trkpt>
      <trkpt lat="47.550963" lon="7.777797">
        <ele>275.902558</ele>
        <time>2021-11-14T14:38:37.046Z</time>
      </trkpt>
      <trkpt lat="47.550782" lon="7.776690">
        <ele>275.876821</ele>
        <time>2021-11-14T14:38:47.822Z</time>
      </trkpt>
      <trkpt lat="47.550607" lon="7.775871">
        <ele>275.857409</ele>
        <time>2021-11-14T14:38:57.149Z</time>
      </trkpt>
      <trkpt lat="47.550598" lon="7.775828">
        <ele>275.856392</ele>
        <time>2021-11-14T14:38:57.634Z</time>
      </trkpt>
      <trkpt lat="47.550555" lon="7.775615">
        <ele>275.851368</ele>
        <time>2021-11-14T14:39:00.122Z</time>
      </trkpt>
      <trkpt lat="47.550505" lon="7.775364">
        <ele>275.920297</ele>
        <time>2021-11-14T14:39:03.148Z</time>
      </trkpt>
      <trkpt lat="47.550320" lon="7.774602">
        <ele>276.199852</ele>
        <time>2021-11-14T14:39:12.647Z</time>
      </trkpt>
      <trkpt lat="47.550090" lon="7.773646">
        <ele>276.550219</ele>
        <time>2021-11-14T14:39:24.519Z</time>
      </trkpt>
      <trkpt lat="47.550061" lon="7.773283">
        <ele>276.676408</ele>
        <time>2021-11-14T14:39:28.649Z</time>
      </trkpt>
      <trkpt lat="47.550203" lon="7.772543">
        <ele>276.904655</ele>
        <time>2021-11-14T14:39:36.859Z</time>
      </trkpt>
      <trkpt lat="47.550199" lon="7.772076">
        <ele>277.030880</ele>
        <time>2021-11-14T14:39:41.847Z</time>
      </trkpt>
      <trkpt lat="47.550069" lon="7.771373">
        <ele>277.227881</ele>
        <time>2021-11-14T14:39:49.661Z</time>
      </trkpt>
      <trkpt lat="47.549845" lon="7.770734">
        <ele>277.422486</ele>
        <time>2021-11-14T14:39:57.817Z</time>
      </trkpt>
      <trkpt lat="47.549714" lon="7.770276">
        <ele>277.668610</ele>
        <time>2021-11-14T14:40:03.589Z</time>
      </trkpt>
      <trkpt lat="47.549678" lon="7.770148">
        <ele>277.768859</ele>
        <time>2021-11-14T14:40:05.380Z</time>
      </trkpt>
      <trkpt lat="47.549363" lon="7.768846">
        <ele>278.768770</ele>
        <time>2021-11-14T14:40:22.562Z</time>
      </trkpt>
      <trkpt lat="47.549184" lon="7.768021">
        <ele>279.395257</ele>
        <time>2021-11-14T14:40:35.004Z</time>
      </trkpt>
      <trkpt lat="47.548990" lon="7.767248">
        <ele>279.661453</ele>
        <time>2021-11-14T14:40:46.678Z</time>
      </trkpt>
      <trkpt lat="47.548565" lon="7.765680">
        <ele>280.181545</ele>
        <time>2021-11-14T14:41:05.488Z</time>
      </trkpt>
      <trkpt lat="47.547909" lon="7.763208">
        <ele>278.048749</ele>
        <time>2021-11-14T14:41:26.362Z</time>
      </trkpt>
      <trkpt lat="47.547848" lon="7.762928">
        <ele>277.779712</ele>
        <time>2021-11-14T14:41:28.516Z</time>
      </trkpt>
      <trkpt lat="47.547778" lon="7.762713">
        <ele>277.548364</ele>
        <time>2021-11-14T14:41:30.318Z</time>
      </trkpt>
      <trkpt lat="47.547627" lon="7.762408">
        <ele>277.181773</ele>
        <time>2021-11-14T14:41:33.153Z</time>
      </trkpt>
      <trkpt lat="47.547577" lon="7.762307">
        <ele>277.060380</ele>
        <time>2021-11-14T14:41:34.088Z</time>
      </trkpt>
      <trkpt lat="47.547194" lon="7.761352">
        <ele>275.983756</ele>
        <time>2021-11-14T14:41:42.597Z</time>
      </trkpt>
      <trkpt lat="47.546989" lon="7.760612">
        <ele>275.350464</ele>
        <time>2021-11-14T14:41:49.086Z</time>
      </trkpt>
      <trkpt lat="47.546948" lon="7.760482">
        <ele>275.428762</ele>
        <time>2021-11-14T14:41:50.329Z</time>
      </trkpt>
      <trkpt lat="47.546870" lon="7.760301">
        <ele>275.545940</ele>
        <time>2021-11-14T14:41:52.208Z</time>
      </trkpt>
      <trkpt lat="47.546804" lon="7.760164">
        <ele>275.637783</ele>
        <time>2021-11-14T14:41:53.661Z</time>
      </trkpt>
      <trkpt lat="47.546552" lon="7.759727">
        <ele>275.951413</ele>
        <time>2021-11-14T14:41:59.645Z</time>
      </trkpt>
      <trkpt lat="47.546312" lon="7.759326">
        <ele>276.243855</ele>
        <time>2021-11-14T14:42:06.009Z</time>
      </trkpt>
      <trkpt lat="47.546264" lon="7.759224">
        <ele>276.311705</ele>
        <time>2021-11-14T14:42:07.643Z</time>
      </trkpt>
      <trkpt lat="47.545911" lon="7.758393">
        <ele>277.125756</ele>
        <time>2021-11-14T14:42:24.043Z</time>
      </trkpt>
      <trkpt lat="47.545677" lon="7.757815">
        <ele>278.580981</ele>
        <time>2021-11-14T14:42:36.440Z</time>
      </trkpt>
      <trkpt lat="47.545429" lon="7.757231">
        <ele>280.070693</ele>
        <time>2021-11-14T14:42:49.516Z</time>
      </trkpt>
      <trkpt lat="47.545360" lon="7.757065">
        <ele>280.491615</ele>
        <time>2021-11-14T14:42:54.077Z</time>
      </trkpt>
      <trkpt lat="47.545326" lon="7.756949">
        <ele>280.764669</ele>
        <time>2021-11-14T14:42:56.749Z</time>
      </trkpt>
      <trkpt lat="47.545304" lon="7.756852">
        <ele>280.985612</ele>
        <time>2021-11-14T14:42:58.887Z</time>
      </trkpt>
      <trkpt lat="47.545260" lon="7.756637">
        <ele>281.470694</ele>
        <time>2021-11-14T14:43:03.804Z</time>
      </trkpt>
      <trkpt lat="47.545021" lon="7.756243">
        <ele>282.591816</ele>
        <time>2021-11-14T14:43:14.452Z</time>
      </trkpt>
      <trkpt lat="47.544174" lon="7.754092">
        <ele>286.840014</ele>
        <time>2021-11-14T14:43:56.394Z</time>
      </trkpt>
      <trkpt lat="47.544022" lon="7.753705">
        <ele>287.339209</ele>
        <time>2021-11-14T14:44:02.696Z</time>
      </trkpt>
      <trkpt lat="47.543798" lon="7.753068">
        <ele>287.976587</ele>
        <time>2021-11-14T14:44:12.624Z</time>
      </trkpt>
      <trkpt lat="47.543319" lon="7.751355">
        <ele>289.482306</ele>
        <time>2021-11-14T14:44:36.900Z</time>
      </trkpt>
      <trkpt lat="47.543222" lon="7.751091">
        <ele>289.567423</ele>
        <time>2021-11-14T14:44:40.173Z</time>
      </trkpt>
      <trkpt lat="47.543115" lon="7.750826">
        <ele>289.654865</ele>
        <time>2021-11-14T14:44:44.923Z</time>
      </trkpt>
      <trkpt lat="47.543033" lon="7.750614">
        <ele>289.724056</ele>
        <time>2021-11-14T14:44:47.506Z</time>
      </trkpt>
      <trkpt lat="47.542614" lon="7.749755">
        <ele>290.024168</ele>
        <time>2021-11-14T14:44:59.047Z</time>
      </trkpt>
      <trkpt lat="47.542390" lon="7.749307">
        <ele>290.171791</ele>
        <time>2021-11-14T14:45:04.858Z</time>
      </trkpt>
      <trkpt lat="47.542347" lon="7.749227">
        <ele>290.172893</ele>
        <time>2021-11-14T14:45:06.399Z</time>
      </trkpt>
      <trkpt lat="47.542132" lon="7.748742">
        <ele>290.179149</ele>
        <time>2021-11-14T14:45:13.964Z</time>
      </trkpt>
      <trkpt lat="47.541758" lon="7.747784">
        <ele>290.191082</ele>
        <time>2021-11-14T14:45:28.698Z</time>
      </trkpt>
      <trkpt lat="47.541583" lon="7.747186">
        <ele>290.198109</ele>
        <time>2021-11-14T14:45:37.877Z</time>
      </trkpt>
      <trkpt lat="47.541511" lon="7.746885">
        <ele>290.203198</ele>
        <time>2021-11-14T14:45:42.347Z</time>
      </trkpt>
      <trkpt lat="47.541432" lon="7.746552">
        <ele>290.211354</ele>
        <time>2021-11-14T14:45:47.453Z</time>
      </trkpt>
      <trkpt lat="47.541167" lon="7.745463">
        <ele>290.238105</ele>
        <time>2021-11-14T14:46:03.229Z</time>
      </trkpt>
      <trkpt lat="47.541160" lon="7.745250">
        <ele>290.243033</ele>
        <time>2021-11-14T14:46:06.072Z</time>
      </trkpt>
      <trkpt lat="47.541148" lon="7.745144">
        <ele>290.245517</ele>
        <time>2021-11-14T14:46:07.608Z</time>
      </trkpt>
      <trkpt lat="47.541130" lon="7.745083">
        <ele>290.247055</ele>
        <time>2021-11-14T14:46:08.533Z</time>
      </trkpt>
      <trkpt lat="47.541038" lon="7.744940">
        <ele>290.251620</ele>
        <time>2021-11-14T14:46:10.909Z</time>
      </trkpt>
      <trkpt lat="47.541019" lon="7.744859">
        <ele>290.253602</ele>
        <time>2021-11-14T14:46:12.142Z</time>
      </trkpt>
      <trkpt lat="47.540975" lon="7.744676">
        <ele>290.258091</ele>
        <time>2021-11-14T14:46:14.938Z</time>
      </trkpt>
      <trkpt lat="47.540913" lon="7.744421">
        <ele>290.256843</ele>
        <time>2021-11-14T14:46:18.695Z</time>
      </trkpt>
      <trkpt lat="47.540738" lon="7.743641">
        <ele>290.222380</ele>
        <time>2021-11-14T14:46:30.510Z</time>
      </trkpt>
      <trkpt lat="47.540695" lon="7.743369">
        <ele>290.210667</ele>
        <time>2021-11-14T14:46:34.342Z</time>
      </trkpt>
      <trkpt lat="47.540617" lon="7.742875">
        <ele>290.189395</ele>
        <time>2021-11-14T14:46:41.447Z</time>
      </trkpt>
      <trkpt lat="47.540589" lon="7.742558">
        <ele>290.175990</ele>
        <time>2021-11-14T14:46:45.828Z</time>
      </trkpt>
      <trkpt lat="47.540552" lon="7.742240">
        <ele>290.162460</ele>
        <time>2021-11-14T14:46:50.087Z</time>
      </trkpt>
      <trkpt lat="47.540438" lon="7.740453">
        <ele>289.176425</ele>
        <time>2021-11-14T14:47:11.854Z</time>
      </trkpt>
      <trkpt lat="47.540374" lon="7.739620">
        <ele>288.631234</ele>
        <time>2021-11-14T14:47:21.276Z</time>
      </trkpt>
      <trkpt lat="47.540372" lon="7.739490">
        <ele>288.546674</ele>
        <time>2021-11-14T14:47:22.829Z</time>
      </trkpt>
      <trkpt lat="47.540387" lon="7.739372">
        <ele>288.468590</ele>
        <time>2021-11-14T14:47:24.321Z</time>
      </trkpt>
      <trkpt lat="47.540394" lon="7.739259">
        <ele>288.397318</ele>
        <time>2021-11-14T14:47:25.656Z</time>
      </trkpt>
      <trkpt lat="47.540388" lon="7.739213">
        <ele>288.370256</ele>
        <time>2021-11-14T14:47:26.048Z</time>
      </trkpt>
      <trkpt lat="47.540277" lon="7.738566">
        <ele>287.984656</ele>
        <time>2021-11-14T14:47:33.704Z</time>
      </trkpt>
      <trkpt lat="47.540032" lon="7.737141">
        <ele>287.135268</ele>
        <time>2021-11-14T14:47:50.577Z</time>
      </trkpt>
      <trkpt lat="47.539305" lon="7.734151">
        <ele>287.602702</ele>
        <time>2021-11-14T14:48:37.595Z</time>
      </trkpt>
      <trkpt lat="47.539263" lon="7.733885">
        <ele>287.752577</ele>
        <time>2021-11-14T14:48:41.995Z</time>
      </trkpt>
      <trkpt lat="47.539178" lon="7.733656">
        <ele>287.895952</ele>
        <time>2021-11-14T14:48:46.146Z</time>
      </trkpt>
      <trkpt lat="47.538887" lon="7.732454">
        <ele>288.596535</ele>
        <time>2021-11-14T14:49:06.833Z</time>
      </trkpt>
      <trkpt lat="47.538512" lon="7.730958">
        <ele>289.174099</ele>
        <time>2021-11-14T14:49:32.336Z</time>
      </trkpt>
      <trkpt lat="47.538339" lon="7.730082">
        <ele>289.339875</ele>
        <time>2021-11-14T14:49:45.706Z</time>
      </trkpt>
      <trkpt lat="47.538275" lon="7.729744">
        <ele>289.403635</ele>
        <time>2021-11-14T14:49:50.565Z</time>
      </trkpt>
      <trkpt lat="47.538248" lon="7.729713">
        <ele>289.412826</ele>
        <time>2021-11-14T14:49:51.179Z</time>
      </trkpt>
      <trkpt lat="47.538168" lon="7.729263">
        <ele>289.497346</ele>
        <time>2021-11-14T14:49:57.265Z</time>
      </trkpt>
      <trkpt lat="47.538148" lon="7.729131">
        <ele>289.441637</ele>
        <time>2021-11-14T14:49:58.934Z</time>
      </trkpt>
      <trkpt lat="47.538123" lon="7.729100">
        <ele>289.388420</ele>
        <time>2021-11-14T14:49:59.530Z</time>
      </trkpt>
      <trkpt lat="47.538083" lon="7.728919">
        <ele>289.178558</ele>
        <time>2021-11-14T14:50:01.863Z</time>
      </trkpt>
      <trkpt lat="47.538047" lon="7.728686">
        <ele>288.915171</ele>
        <time>2021-11-14T14:50:04.783Z</time>
      </trkpt>
      <trkpt lat="47.537932" lon="7.727936">
        <ele>288.067679</ele>
        <time>2021-11-14T14:50:13.673Z</time>
      </trkpt>
      <trkpt lat="47.537861" lon="7.727909">
        <ele>287.948032</ele>
        <time>2021-11-14T14:50:14.860Z</time>
      </trkpt>
      <trkpt lat="47.537824" lon="7.727674">
        <ele>287.682130</ele>
        <time>2021-11-14T14:50:16.712Z</time>
      </trkpt>
      <trkpt lat="47.537675" lon="7.726458">
        <ele>285.999834</ele>
        <time>2021-11-14T14:50:25.655Z</time>
      </trkpt>
      <trkpt lat="47.537323" lon="7.724748">
        <ele>281.548945</ele>
        <time>2021-11-14T14:50:37.397Z</time>
      </trkpt>
      <trkpt lat="47.537127" lon="7.723974">
        <ele>279.605936</ele>
        <time>2021-11-14T14:50:42.834Z</time>
      </trkpt>
      <trkpt lat="47.537106" lon="7.723875">
        <ele>279.413554</ele>
        <time>2021-11-14T14:50:43.517Z</time>
      </trkpt>
      <trkpt lat="47.537075" lon="7.723694">
        <ele>279.067370</ele>
        <time>2021-11-14T14:50:44.746Z</time>
      </trkpt>
      <trkpt lat="47.536854" lon="7.722329">
        <ele>276.465048</ele>
        <time>2021-11-14T14:50:54.660Z</time>
      </trkpt>
      <trkpt lat="47.536667" lon="7.721718">
        <ele>275.221351</ele>
        <time>2021-11-14T14:50:59.783Z</time>
      </trkpt>
      <trkpt lat="47.536590" lon="7.721558">
        <ele>274.864406</ele>
        <time>2021-11-14T14:51:01.299Z</time>
      </trkpt>
      <trkpt lat="47.536471" lon="7.721389">
        <ele>274.434519</ele>
        <time>2021-11-14T14:51:03.228Z</time>
      </trkpt>
      <trkpt lat="47.536092" lon="7.720862">
        <ele>273.079001</ele>
        <time>2021-11-14T14:51:08.615Z</time>
      </trkpt>
      <trkpt lat="47.535988" lon="7.720671">
        <ele>272.647021</ele>
        <time>2021-11-14T14:51:10.266Z</time>
      </trkpt>
      <trkpt lat="47.535897" lon="7.720461">
        <ele>272.207723</ele>
        <time>2021-11-14T14:51:11.980Z</time>
      </trkpt>
      <trkpt lat="47.535876" lon="7.720409">
        <ele>272.101051</ele>
        <time>2021-11-14T14:51:12.396Z</time>
      </trkpt>
      <trkpt lat="47.535806" lon="7.720212">
        <ele>271.709138</ele>
        <time>2021-11-14T14:51:13.915Z</time>
      </trkpt>
      <trkpt lat="47.535746" lon="7.719899">
        <ele>271.136331</ele>
        <time>2021-11-14T14:51:16.229Z</time>
      </trkpt>
      <trkpt lat="47.535713" lon="7.719682">
        <ele>270.744738</ele>
        <time>2021-11-14T14:51:17.761Z</time>
      </trkpt>
      <trkpt lat="47.535661" lon="7.719317">
        <ele>270.189736</ele>
        <time>2021-11-14T14:51:20.497Z</time>
      </trkpt>
      <trkpt lat="47.535638" lon="7.719153">
        <ele>270.028580</ele>
        <time>2021-11-14T14:51:21.661Z</time>
      </trkpt>
      <trkpt lat="47.535608" lon="7.718948">
        <ele>269.826766</ele>
        <time>2021-11-14T14:51:23.291Z</time>
      </trkpt>
      <trkpt lat="47.535572" lon="7.718705">
        <ele>269.587409</ele>
        <time>2021-11-14T14:51:24.990Z</time>
      </trkpt>
      <trkpt lat="47.535558" lon="7.718578">
        <ele>269.463602</ele>
        <time>2021-11-14T14:51:26.070Z</time>
      </trkpt>
      <trkpt lat="47.535516" lon="7.718273">
        <ele>269.164114</ele>
        <time>2021-11-14T14:51:28.315Z</time>
      </trkpt>
      <trkpt lat="47.535494" lon="7.718111">
        <ele>269.005129</ele>
        <time>2021-11-14T14:51:29.460Z</time>
      </trkpt>
      <trkpt lat="47.535490" lon="7.718086">
        <ele>268.980410</ele>
        <time>2021-11-14T14:51:29.995Z</time>
      </trkpt>
      <trkpt lat="47.535419" lon="7.717562">
        <ele>268.466206</ele>
        <time>2021-11-14T14:51:34.016Z</time>
      </trkpt>
      <trkpt lat="47.535384" lon="7.717243">
        <ele>268.155263</ele>
        <time>2021-11-14T14:51:36.671Z</time>
      </trkpt>
      <trkpt lat="47.535370" lon="7.716931">
        <ele>267.854419</ele>
        <time>2021-11-14T14:51:39.914Z</time>
      </trkpt>
      <trkpt lat="47.535347" lon="7.716584">
        <ele>267.976116</ele>
        <time>2021-11-14T14:51:43.566Z</time>
      </trkpt>
      <trkpt lat="47.535313" lon="7.716133">
        <ele>268.406759</ele>
        <time>2021-11-14T14:51:50.716Z</time>
      </trkpt>
      <trkpt lat="47.535254" lon="7.715336">
        <ele>269.167617</ele>
        <time>2021-11-14T14:52:03.265Z</time>
      </trkpt>
      <trkpt lat="47.535269" lon="7.714924">
        <ele>269.559159</ele>
        <time>2021-11-14T14:52:09.398Z</time>
      </trkpt>
      <trkpt lat="47.535269" lon="7.714705">
        <ele>269.766983</ele>
        <time>2021-11-14T14:52:12.658Z</time>
      </trkpt>
      <trkpt lat="47.535269" lon="7.714432">
        <ele>270.026050</ele>
        <time>2021-11-14T14:52:16.308Z</time>
      </trkpt>
      <trkpt lat="47.535222" lon="7.713738">
        <ele>270.551902</ele>
        <time>2021-11-14T14:52:25.815Z</time>
      </trkpt>
      <trkpt lat="47.535202" lon="7.713540">
        <ele>270.678955</ele>
        <time>2021-11-14T14:52:28.505Z</time>
      </trkpt>
      <trkpt lat="47.535174" lon="7.713262">
        <ele>270.857332</ele>
        <time>2021-11-14T14:52:31.964Z</time>
      </trkpt>
      <trkpt lat="47.535128" lon="7.712889">
        <ele>271.097961</ele>
        <time>2021-11-14T14:52:36.758Z</time>
      </trkpt>
      <trkpt lat="47.535110" lon="7.712748">
        <ele>271.189028</ele>
        <time>2021-11-14T14:52:38.499Z</time>
      </trkpt>
      <trkpt lat="47.535067" lon="7.712436">
        <ele>271.391113</ele>
        <time>2021-11-14T14:52:42.534Z</time>
      </trkpt>
      <trkpt lat="47.535045" lon="7.712277">
        <ele>271.494115</ele>
        <time>2021-11-14T14:52:44.401Z</time>
      </trkpt>
      <trkpt lat="47.534965" lon="7.711682">
        <ele>271.879130</ele>
        <time>2021-11-14T14:52:51.603Z</time>
      </trkpt>
      <trkpt lat="47.534909" lon="7.711265">
        <ele>272.016058</ele>
        <time>2021-11-14T14:52:56.630Z</time>
      </trkpt>
      <trkpt lat="47.534768" lon="7.710504">
        <ele>272.149136</ele>
        <time>2021-11-14T14:53:05.730Z</time>
      </trkpt>
      <trkpt lat="47.534734" lon="7.710344">
        <ele>272.177423</ele>
        <time>2021-11-14T14:53:07.609Z</time>
      </trkpt>
      <trkpt lat="47.534641" lon="7.709912">
        <ele>272.253888</ele>
        <time>2021-11-14T14:53:12.448Z</time>
      </trkpt>
      <trkpt lat="47.534615" lon="7.709805">
        <ele>272.273066</ele>
        <time>2021-11-14T14:53:13.640Z</time>
      </trkpt>
      <trkpt lat="47.534577" lon="7.709613">
        <ele>272.306807</ele>
        <time>2021-11-14T14:53:15.717Z</time>
      </trkpt>
      <trkpt lat="47.534509" lon="7.709297">
        <ele>272.362738</ele>
        <time>2021-11-14T14:53:18.881Z</time>
      </trkpt>
      <trkpt lat="47.534390" lon="7.708741">
        <ele>272.345154</ele>
        <time>2021-11-14T14:53:24.182Z</time>
      </trkpt>
      <trkpt lat="47.534357" lon="7.708594">
        <ele>272.302232</ele>
        <time>2021-11-14T14:53:25.620Z</time>
      </trkpt>
      <trkpt lat="47.534132" lon="7.707553">
        <ele>271.999377</ele>
        <time>2021-11-14T14:53:35.426Z</time>
      </trkpt>
      <trkpt lat="47.534017" lon="7.707047">
        <ele>271.851446</ele>
        <time>2021-11-14T14:53:40.451Z</time>
      </trkpt>
      <trkpt lat="47.533968" lon="7.706820">
        <ele>271.785413</ele>
        <time>2021-11-14T14:53:42.518Z</time>
      </trkpt>
      <trkpt lat="47.533905" lon="7.706530">
        <ele>271.701003</ele>
        <time>2021-11-14T14:53:45.433Z</time>
      </trkpt>
      <trkpt lat="47.533747" lon="7.705801">
        <ele>271.455995</ele>
        <time>2021-11-14T14:53:52.130Z</time>
      </trkpt>
      <trkpt lat="47.533715" lon="7.705652">
        <ele>271.405186</ele>
        <time>2021-11-14T14:53:53.589Z</time>
      </trkpt>
      <trkpt lat="47.533704" lon="7.705593">
        <ele>271.385297</ele>
        <time>2021-11-14T14:53:54.157Z</time>
      </trkpt>
      <trkpt lat="47.533527" lon="7.704796">
        <ele>271.112658</ele>
        <time>2021-11-14T14:54:01.497Z</time>
      </trkpt>
      <trkpt lat="47.533301" lon="7.703780">
        <ele>270.775087</ele>
        <time>2021-11-14T14:54:11.440Z</time>
      </trkpt>
      <trkpt lat="47.532835" lon="7.701725">
        <ele>270.216899</ele>
        <time>2021-11-14T14:54:31.233Z</time>
      </trkpt>
      <trkpt lat="47.532793" lon="7.701522">
        <ele>270.162230</ele>
        <time>2021-11-14T14:54:33.111Z</time>
      </trkpt>
      <trkpt lat="47.532428" lon="7.699970">
        <ele>269.528759</ele>
        <time>2021-11-14T14:54:48.080Z</time>
      </trkpt>
      <trkpt lat="47.532407" lon="7.699875">
        <ele>269.489083</ele>
        <time>2021-11-14T14:54:48.973Z</time>
      </trkpt>
      <trkpt lat="47.532378" lon="7.699751">
        <ele>269.436997</ele>
        <time>2021-11-14T14:54:50.134Z</time>
      </trkpt>
      <trkpt lat="47.532326" lon="7.699504">
        <ele>269.334305</ele>
        <time>2021-11-14T14:54:52.495Z</time>
      </trkpt>
      <trkpt lat="47.532317" lon="7.699464">
        <ele>269.317570</ele>
        <time>2021-11-14T14:54:52.848Z</time>
      </trkpt>
      <trkpt lat="47.532234" lon="7.699115">
        <ele>269.170706</ele>
        <time>2021-11-14T14:54:56.043Z</time>
      </trkpt>
      <trkpt lat="47.532082" lon="7.698472">
        <ele>268.661494</ele>
        <time>2021-11-14T14:55:01.667Z</time>
      </trkpt>
      <trkpt lat="47.531987" lon="7.698056">
        <ele>268.242026</ele>
        <time>2021-11-14T14:55:05.176Z</time>
      </trkpt>
      <trkpt lat="47.531820" lon="7.697324">
        <ele>267.503996</ele>
        <time>2021-11-14T14:55:11.150Z</time>
      </trkpt>
      <trkpt lat="47.531503" lon="7.695640">
        <ele>266.151981</ele>
        <time>2021-11-14T14:55:24.396Z</time>
      </trkpt>
      <trkpt lat="47.531279" lon="7.693388">
        <ele>265.326657</ele>
        <time>2021-11-14T14:55:44.630Z</time>
      </trkpt>
      <trkpt lat="47.531252" lon="7.693049">
        <ele>265.505206</ele>
        <time>2021-11-14T14:55:49.202Z</time>
      </trkpt>
      <trkpt lat="47.531247" lon="7.692506">
        <ele>265.789259</ele>
        <time>2021-11-14T14:55:56.722Z</time>
      </trkpt>
      <trkpt lat="47.531250" lon="7.692032">
        <ele>266.037204</ele>
        <time>2021-11-14T14:56:03.199Z</time>
      </trkpt>
      <trkpt lat="47.531253" lon="7.691880">
        <ele>266.116745</ele>
        <time>2021-11-14T14:56:05.233Z</time>
      </trkpt>
      <trkpt lat="47.531254" lon="7.691721">
        <ele>266.199916</ele>
        <time>2021-11-14T14:56:07.235Z</time>
      </trkpt>
      <trkpt lat="47.531257" lon="7.691497">
        <ele>266.317106</ele>
        <time>2021-11-14T14:56:10.044Z</time>
      </trkpt>
      <trkpt lat="47.531218" lon="7.691259">
        <ele>266.445211</ele>
        <time>2021-11-14T14:56:12.815Z</time>
      </trkpt>
      <trkpt lat="47.531228" lon="7.690572">
        <ele>266.495985</ele>
        <time>2021-11-14T14:56:21.276Z</time>
      </trkpt>
      <trkpt lat="47.531244" lon="7.689927">
        <ele>266.433496</ele>
        <time>2021-11-14T14:56:27.855Z</time>
      </trkpt>
      <trkpt lat="47.531254" lon="7.689619">
        <ele>266.403642</ele>
        <time>2021-11-14T14:56:30.868Z</time>
      </trkpt>
      <trkpt lat="47.531264" lon="7.689333">
        <ele>266.375915</ele>
        <time>2021-11-14T14:56:33.542Z</time>
      </trkpt>
      <trkpt lat="47.531265" lon="7.689138">
        <ele>266.357035</ele>
        <time>2021-11-14T14:56:35.194Z</time>
      </trkpt>
      <trkpt lat="47.531267" lon="7.688842">
        <ele>266.328376</ele>
        <time>2021-11-14T14:56:37.893Z</time>
      </trkpt>
      <trkpt lat="47.531309" lon="7.687734">
        <ele>266.122128</ele>
        <time>2021-11-14T14:56:46.901Z</time>
      </trkpt>
      <trkpt lat="47.531311" lon="7.686964">
        <ele>265.934857</ele>
        <time>2021-11-14T14:56:53.481Z</time>
      </trkpt>
      <trkpt lat="47.531302" lon="7.686543">
        <ele>265.832416</ele>
        <time>2021-11-14T14:56:57.735Z</time>
      </trkpt>
      <trkpt lat="47.531297" lon="7.685934">
        <ele>265.684292</ele>
        <time>2021-11-14T14:57:04.262Z</time>
      </trkpt>
      <trkpt lat="47.531296" lon="7.684922">
        <ele>265.942002</ele>
        <time>2021-11-14T14:57:15.705Z</time>
      </trkpt>
      <trkpt lat="47.531277" lon="7.683432">
        <ele>266.491562</ele>
        <time>2021-11-14T14:57:32.867Z</time>
      </trkpt>
      <trkpt lat="47.531276" lon="7.682944">
        <ele>266.703743</ele>
        <time>2021-11-14T14:57:38.618Z</time>
      </trkpt>
      <trkpt lat="47.531275" lon="7.682615">
        <ele>266.902085</ele>
        <time>2021-11-14T14:57:42.598Z</time>
      </trkpt>
      <trkpt lat="47.531257" lon="7.681446">
        <ele>267.607007</ele>
        <time>2021-11-14T14:57:57.391Z</time>
      </trkpt>
      <trkpt lat="47.531222" lon="7.679157">
        <ele>268.607146</ele>
        <time>2021-11-14T14:58:25.939Z</time>
      </trkpt>
      <trkpt lat="47.531218" lon="7.678940">
        <ele>268.672604</ele>
        <time>2021-11-14T14:58:28.249Z</time>
      </trkpt>
      <trkpt lat="47.531215" lon="7.678292">
        <ele>268.868004</ele>
        <time>2021-11-14T14:58:34.764Z</time>
      </trkpt>
      <trkpt lat="47.531238" lon="7.677761">
        <ele>269.028449</ele>
        <time>2021-11-14T14:58:39.921Z</time>
      </trkpt>
      <trkpt lat="47.531253" lon="7.677527">
        <ele>269.001937</ele>
        <time>2021-11-14T14:58:42.297Z</time>
      </trkpt>
      <trkpt lat="47.531275" lon="7.677355">
        <ele>268.980583</ele>
        <time>2021-11-14T14:58:43.976Z</time>
      </trkpt>
      <trkpt lat="47.531314" lon="7.677106">
        <ele>268.949403</ele>
        <time>2021-11-14T14:58:46.840Z</time>
      </trkpt>
      <trkpt lat="47.531325" lon="7.677036">
        <ele>268.940636</ele>
        <time>2021-11-14T14:58:47.551Z</time>
      </trkpt>
      <trkpt lat="47.531397" lon="7.676665">
        <ele>268.893549</ele>
        <time>2021-11-14T14:58:51.507Z</time>
      </trkpt>
      <trkpt lat="47.531455" lon="7.676389">
        <ele>268.858289</ele>
        <time>2021-11-14T14:58:54.405Z</time>
      </trkpt>
      <trkpt lat="47.531545" lon="7.675929">
        <ele>268.799870</ele>
        <time>2021-11-14T14:58:59.605Z</time>
      </trkpt>
      <trkpt lat="47.531606" lon="7.675606">
        <ele>268.758958</ele>
        <time>2021-11-14T14:59:02.856Z</time>
      </trkpt>
      <trkpt lat="47.531635" lon="7.675449">
        <ele>268.739103</ele>
        <time>2021-11-14T14:59:04.191Z</time>
      </trkpt>
      <trkpt lat="47.531719" lon="7.675071">
        <ele>268.658511</ele>
        <time>2021-11-14T14:59:07.398Z</time>
      </trkpt>
      <trkpt lat="47.531825" lon="7.674498">
        <ele>268.425606</ele>
        <time>2021-11-14T14:59:12.186Z</time>
      </trkpt>
      <trkpt lat="47.531884" lon="7.674105">
        <ele>268.267780</ele>
        <time>2021-11-14T14:59:15.824Z</time>
      </trkpt>
      <trkpt lat="47.531942" lon="7.673731">
        <ele>268.117348</ele>
        <time>2021-11-14T14:59:19.434Z</time>
      </trkpt>
      <trkpt lat="47.531990" lon="7.673394">
        <ele>267.982331</ele>
        <time>2021-11-14T14:59:22.401Z</time>
      </trkpt>
      <trkpt lat="47.532036" lon="7.673089">
        <ele>267.859819</ele>
        <time>2021-11-14T14:59:25.313Z</time>
      </trkpt>
      <trkpt lat="47.532065" lon="7.672871">
        <ele>267.772717</ele>
        <time>2021-11-14T14:59:27.189Z</time>
      </trkpt>
      <trkpt lat="47.532344" lon="7.670949">
        <ele>268.424196</ele>
        <time>2021-11-14T14:59:45.329Z</time>
      </trkpt>
      <trkpt lat="47.532378" lon="7.670762">
        <ele>268.512192</ele>
        <time>2021-11-14T14:59:48.295Z</time>
      </trkpt>
      <trkpt lat="47.532450" lon="7.670414">
        <ele>268.677574</ele>
        <time>2021-11-14T14:59:54.205Z</time>
      </trkpt>
      <trkpt lat="47.532528" lon="7.670085">
        <ele>268.836014</ele>
        <time>2021-11-14T15:00:00.302Z</time>
      </trkpt>
      <trkpt lat="47.532604" lon="7.669823">
        <ele>269.071267</ele>
        <time>2021-11-14T15:00:05.437Z</time>
      </trkpt>
      <trkpt lat="47.532727" lon="7.669421">
        <ele>269.496320</ele>
        <time>2021-11-14T15:00:12.591Z</time>
      </trkpt>
      <trkpt lat="47.532897" lon="7.668969">
        <ele>269.994610</ele>
        <time>2021-11-14T15:00:20.384Z</time>
      </trkpt>
      <trkpt lat="47.533053" lon="7.668607">
        <ele>270.408200</ele>
        <time>2021-11-14T15:00:25.680Z</time>
      </trkpt>
      <trkpt lat="47.533159" lon="7.668361">
        <ele>270.689250</ele>
        <time>2021-11-14T15:00:29.976Z</time>
      </trkpt>
      <trkpt lat="47.533253" lon="7.668149">
        <ele>270.933510</ele>
        <time>2021-11-14T15:00:32.662Z</time>
      </trkpt>
      <trkpt lat="47.533486" lon="7.667627">
        <ele>271.416123</ele>
        <time>2021-11-14T15:00:40.284Z</time>
      </trkpt>
      <trkpt lat="47.533740" lon="7.667075">
        <ele>271.282343</ele>
        <time>2021-11-14T15:00:47.808Z</time>
      </trkpt>
      <trkpt lat="47.533835" lon="7.666868">
        <ele>271.232217</ele>
        <time>2021-11-14T15:00:49.877Z</time>
      </trkpt>
      <trkpt lat="47.533775" lon="7.666807">
        <ele>271.210630</ele>
        <time>2021-11-14T15:00:51.199Z</time>
      </trkpt>
      <trkpt lat="47.533696" lon="7.666647">
        <ele>271.170933</ele>
        <time>2021-11-14T15:00:53.160Z</time>
      </trkpt>
      <trkpt lat="47.533398" lon="7.666305">
        <ele>271.059110</ele>
        <time>2021-11-14T15:00:57.667Z</time>
      </trkpt>
      <trkpt lat="47.533116" lon="7.665988">
        <ele>270.954099</ele>
        <time>2021-11-14T15:01:01.890Z</time>
      </trkpt>
      <trkpt lat="47.532925" lon="7.665760">
        <ele>270.957952</ele>
        <time>2021-11-14T15:01:04.979Z</time>
      </trkpt>
      <trkpt lat="47.532786" lon="7.665641">
        <ele>271.076676</ele>
        <time>2021-11-14T15:01:07.125Z</time>
      </trkpt>
      <trkpt lat="47.532672" lon="7.665583">
        <ele>271.165812</ele>
        <time>2021-11-14T15:01:08.758Z</time>
      </trkpt>
      <trkpt lat="47.532292" lon="7.665148">
        <ele>271.520964</ele>
        <time>2021-11-14T15:01:17.254Z</time>
      </trkpt>
      <trkpt lat="47.532140" lon="7.664972">
        <ele>271.663638</ele>
        <time>2021-11-14T15:01:20.694Z</time>
      </trkpt>
      <trkpt lat="47.531991" lon="7.664806">
        <ele>271.801513</ele>
        <time>2021-11-14T15:01:24.576Z</time>
      </trkpt>
      <trkpt lat="47.531765" lon="7.664540">
        <ele>272.014981</ele>
        <time>2021-11-14T15:01:30.312Z</time>
      </trkpt>
      <trkpt lat="47.530899" lon="7.663616">
        <ele>273.955471</ele>
        <time>2021-11-14T15:01:53.787Z</time>
      </trkpt>
      <trkpt lat="47.530793" lon="7.663521">
        <ele>274.231838</ele>
        <time>2021-11-14T15:01:57.314Z</time>
      </trkpt>
      <trkpt lat="47.530719" lon="7.663465">
        <ele>274.417204</ele>
        <time>2021-11-14T15:01:59.689Z</time>
      </trkpt>
      <trkpt lat="47.529792" lon="7.663087">
        <ele>276.586264</ele>
        <time>2021-11-14T15:02:28.811Z</time>
      </trkpt>
      <trkpt lat="47.529676" lon="7.663021">
        <ele>276.884759</ele>
        <time>2021-11-14T15:02:32.532Z</time>
      </trkpt>
      <trkpt lat="47.529624" lon="7.662986">
        <ele>277.021961</ele>
        <time>2021-11-14T15:02:33.932Z</time>
      </trkpt>
      <trkpt lat="47.529576" lon="7.662954">
        <ele>277.148403</ele>
        <time>2021-11-14T15:02:35.303Z</time>
      </trkpt>
      <trkpt lat="47.529502" lon="7.662906">
        <ele>277.342458</ele>
        <time>2021-11-14T15:02:37.461Z</time>
      </trkpt>
      <trkpt lat="47.528985" lon="7.662541">
        <ele>278.718215</ele>
        <time>2021-11-14T15:02:54.741Z</time>
      </trkpt>
      <trkpt lat="47.528693" lon="7.662320">
        <ele>279.505903</ele>
        <time>2021-11-14T15:03:04.480Z</time>
      </trkpt>
      <trkpt lat="47.528592" lon="7.662229">
        <ele>279.789881</ele>
        <time>2021-11-14T15:03:07.594Z</time>
      </trkpt>
      <trkpt lat="47.528425" lon="7.662035">
        <ele>280.299711</ele>
        <time>2021-11-14T15:03:12.401Z</time>
      </trkpt>
      <trkpt lat="47.528226" lon="7.661637">
        <ele>280.923525</ele>
        <time>2021-11-14T15:03:20.177Z</time>
      </trkpt>
      <trkpt lat="47.527912" lon="7.660639">
        <ele>282.112669</ele>
        <time>2021-11-14T15:03:37.348Z</time>
      </trkpt>
      <trkpt lat="47.527673" lon="7.659801">
        <ele>283.095164</ele>
        <time>2021-11-14T15:03:50.633Z</time>
      </trkpt>
      <trkpt lat="47.527666" lon="7.659776">
        <ele>283.124395</ele>
        <time>2021-11-14T15:03:51.068Z</time>
      </trkpt>
      <trkpt lat="47.527370" lon="7.658528">
        <ele>283.222561</ele>
        <time>2021-11-14T15:04:04.588Z</time>
      </trkpt>
      <trkpt lat="47.527241" lon="7.658123">
        <ele>283.126589</ele>
        <time>2021-11-14T15:04:08.430Z</time>
      </trkpt>
      <trkpt lat="47.527139" lon="7.657807">
        <ele>283.051524</ele>
        <time>2021-11-14T15:04:11.426Z</time>
      </trkpt>
      <trkpt lat="47.527042" lon="7.657604">
        <ele>282.998225</ele>
        <time>2021-11-14T15:04:13.561Z</time>
      </trkpt>
      <trkpt lat="47.526917" lon="7.657402">
        <ele>282.939503</ele>
        <time>2021-11-14T15:04:15.909Z</time>
      </trkpt>
      <trkpt lat="47.526859" lon="7.657325">
        <ele>282.914780</ele>
        <time>2021-11-14T15:04:16.846Z</time>
      </trkpt>
      <trkpt lat="47.526880" lon="7.657295">
        <ele>282.905519</ele>
        <time>2021-11-14T15:04:17.199Z</time>
      </trkpt>
      <trkpt lat="47.526883" lon="7.657129">
        <ele>282.871781</ele>
        <time>2021-11-14T15:04:18.836Z</time>
      </trkpt>
      <trkpt lat="47.526863" lon="7.657097">
        <ele>282.870909</ele>
        <time>2021-11-14T15:04:19.171Z</time>
      </trkpt>
      <trkpt lat="47.526840" lon="7.657078">
        <ele>282.870129</ele>
        <time>2021-11-14T15:04:19.493Z</time>
      </trkpt>
      <trkpt lat="47.526789" lon="7.657068">
        <ele>282.868606</ele>
        <time>2021-11-14T15:04:20.115Z</time>
      </trkpt>
      <trkpt lat="47.526764" lon="7.657078">
        <ele>282.867840</ele>
        <time>2021-11-14T15:04:20.427Z</time>
      </trkpt>
      <trkpt lat="47.526741" lon="7.657100">
        <ele>282.867029</ele>
        <time>2021-11-14T15:04:20.771Z</time>
      </trkpt>
      <trkpt lat="47.526722" lon="7.657130">
        <ele>282.866207</ele>
        <time>2021-11-14T15:04:21.091Z</time>
      </trkpt>
      <trkpt lat="47.526710" lon="7.657166">
        <ele>282.865404</ele>
        <time>2021-11-14T15:04:21.417Z</time>
      </trkpt>
      <trkpt lat="47.526706" lon="7.657209">
        <ele>282.864537</ele>
        <time>2021-11-14T15:04:21.769Z</time>
      </trkpt>
      <trkpt lat="47.526723" lon="7.657291">
        <ele>282.862822</ele>
        <time>2021-11-14T15:04:22.539Z</time>
      </trkpt>
      <trkpt lat="47.526743" lon="7.657323">
        <ele>282.861950</ele>
        <time>2021-11-14T15:04:23.058Z</time>
      </trkpt>
      <trkpt lat="47.526694" lon="7.657412">
        <ele>282.859655</ele>
        <time>2021-11-14T15:04:24.447Z</time>
      </trkpt>
      <trkpt lat="47.526672" lon="7.657453">
        <ele>282.858608</ele>
        <time>2021-11-14T15:04:25.013Z</time>
      </trkpt>
      <trkpt lat="47.526339" lon="7.657736">
        <ele>282.847242</ele>
        <time>2021-11-14T15:04:31.811Z</time>
      </trkpt>
      <trkpt lat="47.526194" lon="7.657732">
        <ele>282.842948</ele>
        <time>2021-11-14T15:04:34.262Z</time>
      </trkpt>
      <trkpt lat="47.526129" lon="7.657714">
        <ele>282.840991</ele>
        <time>2021-11-14T15:04:35.565Z</time>
      </trkpt>
      <trkpt lat="47.526058" lon="7.657663">
        <ele>282.838655</ele>
        <time>2021-11-14T15:04:37.011Z</time>
      </trkpt>
      <trkpt lat="47.525992" lon="7.657583">
        <ele>282.836130</ele>
        <time>2021-11-14T15:04:38.582Z</time>
      </trkpt>
      <trkpt lat="47.525949" lon="7.657484">
        <ele>282.833777</ele>
        <time>2021-11-14T15:04:40.241Z</time>
      </trkpt>
      <trkpt lat="47.525879" lon="7.657237">
        <ele>282.828422</ele>
        <time>2021-11-14T15:04:44.347Z</time>
      </trkpt>
      <trkpt lat="47.525864" lon="7.656858">
        <ele>282.820832</ele>
        <time>2021-11-14T15:04:50.509Z</time>
      </trkpt>
      <trkpt lat="47.525910" lon="7.656589">
        <ele>283.165127</ele>
        <time>2021-11-14T15:04:55.096Z</time>
      </trkpt>
      <trkpt lat="47.525936" lon="7.656458">
        <ele>283.440106</ele>
        <time>2021-11-14T15:04:57.528Z</time>
      </trkpt>
      <trkpt lat="47.525829" lon="7.656401">
        <ele>283.779242</ele>
        <time>2021-11-14T15:05:01.708Z</time>
      </trkpt>
      <trkpt lat="47.525670" lon="7.656313">
        <ele>284.285480</ele>
        <time>2021-11-14T15:05:05.164Z</time>
      </trkpt>
      <trkpt lat="47.525472" lon="7.656212">
        <ele>284.910047</ele>
        <time>2021-11-14T15:05:12.663Z</time>
      </trkpt>
      <trkpt lat="47.525397" lon="7.656172">
        <ele>285.147791</ele>
        <time>2021-11-14T15:05:14.205Z</time>
      </trkpt>
      <trkpt lat="47.525220" lon="7.656078">
        <ele>285.708595</ele>
        <time>2021-11-14T15:05:20.679Z</time>
      </trkpt>
      <trkpt lat="47.525172" lon="7.656052">
        <ele>285.861027</ele>
        <time>2021-11-14T15:05:22.488Z</time>
      </trkpt>
      <trkpt lat="47.524934" lon="7.655926">
        <ele>286.614835</ele>
        <time>2021-11-14T15:05:28.877Z</time>
      </trkpt>
      <trkpt lat="47.524818" lon="7.655865">
        <ele>286.981959</ele>
        <time>2021-11-14T15:05:32.918Z</time>
      </trkpt>
      <trkpt lat="47.524761" lon="7.655834">
        <ele>287.163058</ele>
        <time>2021-11-14T15:05:33.939Z</time>
      </trkpt>
      <trkpt lat="47.524698" lon="7.655801">
        <ele>287.362357</ele>
        <time>2021-11-14T15:05:35.197Z</time>
      </trkpt>
      <trkpt lat="47.524663" lon="7.655783">
        <ele>287.472857</ele>
        <time>2021-11-14T15:05:35.910Z</time>
      </trkpt>
      <trkpt lat="47.524616" lon="7.655757">
        <ele>287.622491</ele>
        <time>2021-11-14T15:05:38.646Z</time>
      </trkpt>
      <trkpt lat="47.524572" lon="7.655735">
        <ele>287.760995</ele>
        <time>2021-11-14T15:05:39.592Z</time>
      </trkpt>
      <trkpt lat="47.524519" lon="7.655706">
        <ele>287.929507</ele>
        <time>2021-11-14T15:05:42.297Z</time>
      </trkpt>
      <trkpt lat="47.524305" lon="7.655610">
        <ele>288.496070</ele>
        <time>2021-11-14T15:05:46.031Z</time>
      </trkpt>
      <trkpt lat="47.524277" lon="7.655598">
        <ele>288.561908</ele>
        <time>2021-11-14T15:05:48.269Z</time>
      </trkpt>
      <trkpt lat="47.524304" lon="7.655410">
        <ele>288.855063</ele>
        <time>2021-11-14T15:05:52.314Z</time>
      </trkpt>
      <trkpt lat="47.524475" lon="7.654210">
        <ele>290.725634</ele>
        <time>2021-11-14T15:06:12.076Z</time>
      </trkpt>
      <trkpt lat="47.524506" lon="7.653987">
        <ele>291.072890</ele>
        <time>2021-11-14T15:06:16.556Z</time>
      </trkpt>
      <trkpt lat="47.524516" lon="7.653915">
        <ele>291.185004</ele>
        <time>2021-11-14T15:06:18.152Z</time>
      </trkpt>
      <trkpt lat="47.524555" lon="7.653632">
        <ele>291.625537</ele>
        <time>2021-11-14T15:06:22.181Z</time>
      </trkpt>
      <trkpt lat="47.524557" lon="7.652450">
        <ele>292.642622</ele>
        <time>2021-11-14T15:06:36.542Z</time>
      </trkpt>
      <trkpt lat="47.524523" lon="7.652322">
        <ele>292.713051</ele>
        <time>2021-11-14T15:06:37.889Z</time>
      </trkpt>
      <trkpt lat="47.524484" lon="7.652177">
        <ele>292.792969</ele>
        <time>2021-11-14T15:06:39.322Z</time>
      </trkpt>
      <trkpt lat="47.524402" lon="7.651879">
        <ele>292.957739</ele>
        <time>2021-11-14T15:06:42.558Z</time>
      </trkpt>
      <trkpt lat="47.524245" lon="7.651314">
        <ele>293.270577</ele>
        <time>2021-11-14T15:06:49.130Z</time>
      </trkpt>
      <trkpt lat="47.524034" lon="7.650528">
        <ele>293.792434</ele>
        <time>2021-11-14T15:07:00.711Z</time>
      </trkpt>
      <trkpt lat="47.523968" lon="7.650324">
        <ele>294.017285</ele>
        <time>2021-11-14T15:07:03.406Z</time>
      </trkpt>
      <trkpt lat="47.523851" lon="7.649952">
        <ele>294.425201</ele>
        <time>2021-11-14T15:07:09.850Z</time>
      </trkpt>
      <trkpt lat="47.523799" lon="7.649826">
        <ele>294.571986</ele>
        <time>2021-11-14T15:07:11.637Z</time>
      </trkpt>
      <trkpt lat="47.523763" lon="7.649750">
        <ele>294.664265</ele>
        <time>2021-11-14T15:07:13.445Z</time>
      </trkpt>
      <trkpt lat="47.523318" lon="7.648996">
        <ele>295.659667</ele>
        <time>2021-11-14T15:07:26.538Z</time>
      </trkpt>
      <trkpt lat="47.523157" lon="7.648702">
        <ele>296.035929</ele>
        <time>2021-11-14T15:07:32.206Z</time>
      </trkpt>
      <trkpt lat="47.523005" lon="7.648426">
        <ele>296.385607</ele>
        <time>2021-11-14T15:07:37.809Z</time>
      </trkpt>
      <trkpt lat="47.522716" lon="7.647943">
        <ele>297.006119</ele>
        <time>2021-11-14T15:07:47.215Z</time>
      </trkpt>
      <trkpt lat="47.522552" lon="7.647695">
        <ele>297.339883</ele>
        <time>2021-11-14T15:07:51.401Z</time>
      </trkpt>
      <trkpt lat="47.522504" lon="7.647599">
        <ele>297.454741</ele>
        <time>2021-11-14T15:07:53.282Z</time>
      </trkpt>
      <trkpt lat="47.522477" lon="7.647501">
        <ele>297.556515</ele>
        <time>2021-11-14T15:07:54.568Z</time>
      </trkpt>
      <trkpt lat="47.522444" lon="7.647497">
        <ele>297.603661</ele>
        <time>2021-11-14T15:07:55.307Z</time>
      </trkpt>
      <trkpt lat="47.522408" lon="7.647467">
        <ele>297.662481</ele>
        <time>2021-11-14T15:07:55.948Z</time>
      </trkpt>
      <trkpt lat="47.521923" lon="7.646845">
        <ele>298.576066</ele>
        <time>2021-11-14T15:08:08.593Z</time>
      </trkpt>
      <trkpt lat="47.521902" lon="7.646594">
        <ele>298.820263</ele>
        <time>2021-11-14T15:08:11.880Z</time>
      </trkpt>
      <trkpt lat="47.521879" lon="7.646397">
        <ele>299.175758</ele>
        <time>2021-11-14T15:08:15.231Z</time>
      </trkpt>
      <trkpt lat="47.521817" lon="7.645962">
        <ele>299.966301</ele>
        <time>2021-11-14T15:08:21.598Z</time>
      </trkpt>
      <trkpt lat="47.521620" lon="7.646072">
        <ele>300.520678</ele>
        <time>2021-11-14T15:08:26.855Z</time>
      </trkpt>
      <trkpt lat="47.521589" lon="7.646090">
        <ele>300.608356</ele>
        <time>2021-11-14T15:08:27.557Z</time>
      </trkpt>
      <trkpt lat="47.521483" lon="7.646147">
        <ele>300.905299</ele>
        <time>2021-11-14T15:08:29.999Z</time>
      </trkpt>
      <trkpt lat="47.521344" lon="7.646223">
        <ele>301.295455</ele>
        <time>2021-11-14T15:08:34.040Z</time>
      </trkpt>
      <trkpt lat="47.521133" lon="7.646325">
        <ele>301.879899</ele>
        <time>2021-11-14T15:08:39.101Z</time>
      </trkpt>
      <trkpt lat="47.521082" lon="7.646351">
        <ele>302.021924</ele>
        <time>2021-11-14T15:08:40.848Z</time>
      </trkpt>
      <trkpt lat="47.520870" lon="7.646459">
        <ele>302.612256</ele>
        <time>2021-11-14T15:08:46.689Z</time>
      </trkpt>
      <trkpt lat="47.520716" lon="7.646501">
        <ele>303.024576</ele>
        <time>2021-11-14T15:08:51.143Z</time>
      </trkpt>
      <trkpt lat="47.520544" lon="7.646549">
        <ele>303.485445</ele>
        <time>2021-11-14T15:08:56.146Z</time>
      </trkpt>
      <trkpt lat="47.520453" lon="7.646560">
        <ele>303.911857</ele>
        <time>2021-11-14T15:08:58.681Z</time>
      </trkpt>
      <trkpt lat="47.520182" lon="7.646592">
        <ele>305.403040</ele>
        <time>2021-11-14T15:09:07.275Z</time>
      </trkpt>
      <trkpt lat="47.519670" lon="7.646767">
        <ele>308.285261</ele>
        <time>2021-11-14T15:09:30.225Z</time>
      </trkpt>
      <trkpt lat="47.519621" lon="7.646784">
        <ele>308.561310</ele>
        <time>2021-11-14T15:09:33.244Z</time>
      </trkpt>
      <trkpt lat="47.518736" lon="7.647340">
        <ele>313.722858</ele>
        <time>2021-11-14T15:10:15.878Z</time>
      </trkpt>
      <trkpt lat="47.518689" lon="7.647385">
        <ele>313.947200</ele>
        <time>2021-11-14T15:10:18.019Z</time>
      </trkpt>
      <trkpt lat="47.518582" lon="7.647538">
        <ele>314.543422</ele>
        <time>2021-11-14T15:10:26.977Z</time>
      </trkpt>
      <trkpt lat="47.518122" lon="7.648240">
        <ele>317.191225</ele>
        <time>2021-11-14T15:10:50.433Z</time>
      </trkpt>
      <trkpt lat="47.518072" lon="7.648268">
        <ele>317.405493</ele>
        <time>2021-11-14T15:10:54.574Z</time>
      </trkpt>
      <trkpt lat="47.517916" lon="7.648293">
        <ele>318.034437</ele>
        <time>2021-11-14T15:10:58.071Z</time>
      </trkpt>
      <trkpt lat="47.517852" lon="7.648304">
        <ele>318.292690</ele>
        <time>2021-11-14T15:11:00.012Z</time>
      </trkpt>
      <trkpt lat="47.516935" lon="7.648449">
        <ele>320.822602</ele>
        <time>2021-11-14T15:11:28.913Z</time>
      </trkpt>
      <trkpt lat="47.516513" lon="7.648597">
        <ele>321.069637</ele>
        <time>2021-11-14T15:11:38.117Z</time>
      </trkpt>
      <trkpt lat="47.516097" lon="7.648754">
        <ele>321.314179</ele>
        <time>2021-11-14T15:11:46.092Z</time>
      </trkpt>
      <trkpt lat="47.515854" lon="7.648881">
        <ele>321.460968</ele>
        <time>2021-11-14T15:11:50.855Z</time>
      </trkpt>
      <trkpt lat="47.515597" lon="7.649049">
        <ele>321.620996</ele>
        <time>2021-11-14T15:11:56.748Z</time>
      </trkpt>
      <trkpt lat="47.515511" lon="7.649123">
        <ele>321.702247</ele>
        <time>2021-11-14T15:11:58.536Z</time>
      </trkpt>
      <trkpt lat="47.515459" lon="7.649168">
        <ele>321.772089</ele>
        <time>2021-11-14T15:12:00.071Z</time>
      </trkpt>
      <trkpt lat="47.515328" lon="7.649326">
        <ele>321.968015</ele>
        <time>2021-11-14T15:12:03.522Z</time>
      </trkpt>
      <trkpt lat="47.515061" lon="7.649652">
        <ele>322.369316</ele>
        <time>2021-11-14T15:12:10.976Z</time>
      </trkpt>
      <trkpt lat="47.514962" lon="7.649908">
        <ele>322.600349</ele>
        <time>2021-11-14T15:12:15.551Z</time>
      </trkpt>
      <trkpt lat="47.514864" lon="7.650158">
        <ele>322.826732</ele>
        <time>2021-11-14T15:12:20.231Z</time>
      </trkpt>
      <trkpt lat="47.514691" lon="7.650573">
        <ele>323.208675</ele>
        <time>2021-11-14T15:12:28.526Z</time>
      </trkpt>
      <trkpt lat="47.514657" lon="7.650652">
        <ele>323.282040</ele>
        <time>2021-11-14T15:12:30.295Z</time>
      </trkpt>
      <trkpt lat="47.514509" lon="7.650991">
        <ele>323.598177</ele>
        <time>2021-11-14T15:12:38.263Z</time>
      </trkpt>
      <trkpt lat="47.514207" lon="7.651374">
        <ele>324.651627</ele>
        <time>2021-11-14T15:12:51.096Z</time>
      </trkpt>
      <trkpt lat="47.513848" lon="7.651830">
        <ele>326.216396</ele>
        <time>2021-11-14T15:13:06.460Z</time>
      </trkpt>
      <trkpt lat="47.513576" lon="7.652174">
        <ele>327.399793</ele>
        <time>2021-11-14T15:13:18.376Z</time>
      </trkpt>
      <trkpt lat="47.513405" lon="7.652446">
        <ele>328.230070</ele>
        <time>2021-11-14T15:13:25.688Z</time>
      </trkpt>
      <trkpt lat="47.513349" lon="7.653017">
        <ele>329.519273</ele>
        <time>2021-11-14T15:13:37.195Z</time>
      </trkpt>
      <trkpt lat="47.512895" lon="7.654488">
        <ele>334.209706</ele>
        <time>2021-11-14T15:14:12.556Z</time>
      </trkpt>
      <trkpt lat="47.512836" lon="7.654893">
        <ele>335.424943</ele>
        <time>2021-11-14T15:14:21.512Z</time>
      </trkpt>
      <trkpt lat="47.512752" lon="7.657349">
        <ele>344.248634</ele>
        <time>2021-11-14T15:15:16.711Z</time>
      </trkpt>
      <trkpt lat="47.512497" lon="7.658661">
        <ele>351.474086</ele>
        <time>2021-11-14T15:15:57.120Z</time>
      </trkpt>
      <trkpt lat="47.512501" lon="7.658820">
        <ele>352.776315</ele>
        <time>2021-11-14T15:16:02.792Z</time>
      </trkpt>
      <trkpt lat="47.512353" lon="7.658944">
        <ele>354.836936</ele>
        <time>2021-11-14T15:16:12.282Z</time>
      </trkpt>
      <trkpt lat="47.511959" lon="7.659188">
        <ele>360.012029</ele>
        <time>2021-11-14T15:16:39.345Z</time>
      </trkpt>
      <trkpt lat="47.511733" lon="7.659346">
        <ele>363.040530</ele>
        <time>2021-11-14T15:16:56.415Z</time>
      </trkpt>
      <trkpt lat="47.511727" lon="7.659486">
        <ele>364.188673</ele>
        <time>2021-11-14T15:17:04.043Z</time>
      </trkpt>
      <trkpt lat="47.511770" lon="7.659882">
        <ele>367.471376</ele>
        <time>2021-11-14T15:17:23.920Z</time>
      </trkpt>
      <trkpt lat="47.511762" lon="7.660042">
        <ele>368.784489</ele>
        <time>2021-11-14T15:17:32.954Z</time>
      </trkpt>
      <trkpt lat="47.511659" lon="7.660351">
        <ele>372.353383</ele>
        <time>2021-11-14T15:17:51.422Z</time>
      </trkpt>
      <trkpt lat="47.511534" lon="7.660808">
        <ele>377.862877</ele>
        <time>2021-11-14T15:18:17.967Z</time>
      </trkpt>
      <trkpt lat="47.511383" lon="7.661372">
        <ele>384.642254</ele>
        <time>2021-11-14T15:18:53.479Z</time>
      </trkpt>
      <trkpt lat="47.511171" lon="7.662330">
        <ele>395.907219</ele>
        <time>2021-11-14T15:19:51.859Z</time>
      </trkpt>
      <trkpt lat="47.511036" lon="7.663302">
        <ele>405.175355</ele>
        <time>2021-11-14T15:20:40.859Z</time>
      </trkpt>
      <trkpt lat="47.511026" lon="7.663371">
        <ele>405.777105</ele>
        <time>2021-11-14T15:20:45.922Z</time>
      </trkpt>
      <trkpt lat="47.510856" lon="7.664867">
        <ele>418.712682</ele>
        <time>2021-11-14T15:21:48.893Z</time>
      </trkpt>
      <trkpt lat="47.510474" lon="7.666465">
        <ele>431.415467</ele>
        <time>2021-11-14T15:22:52.520Z</time>
      </trkpt>
      <trkpt lat="47.510298" lon="7.667520">
        <ele>439.226075</ele>
        <time>2021-11-14T15:23:37.253Z</time>
      </trkpt>
      <trkpt lat="47.509793" lon="7.668697">
        <ele>448.626341</ele>
        <time>2021-11-14T15:24:28.073Z</time>
      </trkpt>
      <trkpt lat="47.509771" lon="7.668816">
        <ele>449.444966</ele>
        <time>2021-11-14T15:24:34.394Z</time>
      </trkpt>
      <trkpt lat="47.509723" lon="7.669074">
        <ele>451.220586</ele>
        <time>2021-11-14T15:24:42.504Z</time>
      </trkpt>
      <trkpt lat="47.509624" lon="7.670171">
        <ele>458.564049</ele>
        <time>2021-11-14T15:25:21.407Z</time>
      </trkpt>
      <trkpt lat="47.509726" lon="7.671680">
        <ele>469.007140</ele>
        <time>2021-11-14T15:26:17.372Z</time>
      </trkpt>
      <trkpt lat="47.509697" lon="7.671879">
        <ele>470.410373</ele>
        <time>2021-11-14T15:26:27.390Z</time>
      </trkpt>
      <trkpt lat="47.509547" lon="7.672123">
        <ele>472.684493</ele>
        <time>2021-11-14T15:26:39.178Z</time>
      </trkpt>
      <trkpt lat="47.509315" lon="7.672132">
        <ele>475.052764</ele>
        <time>2021-11-14T15:26:52.884Z</time>
      </trkpt>
      <trkpt lat="47.508783" lon="7.671376">
        <ele>481.180627</ele>
        <time>2021-11-14T15:27:33.369Z</time>
      </trkpt>
      <trkpt lat="47.508439" lon="7.670868">
        <ele>484.855528</ele>
        <time>2021-11-14T15:27:57.353Z</time>
      </trkpt>
      <trkpt lat="47.508400" lon="7.670630">
        <ele>486.106711</ele>
        <time>2021-11-14T15:28:03.327Z</time>
      </trkpt>
      <trkpt lat="47.508334" lon="7.668961">
        <ele>492.769307</ele>
        <time>2021-11-14T15:28:43.844Z</time>
      </trkpt>
      <trkpt lat="47.508311" lon="7.668787">
        <ele>493.234782</ele>
        <time>2021-11-14T15:28:46.979Z</time>
      </trkpt>
      <trkpt lat="47.508285" lon="7.668641">
        <ele>493.631180</ele>
        <time>2021-11-14T15:28:48.376Z</time>
      </trkpt>
      <trkpt lat="47.508251" lon="7.668646">
        <ele>493.763976</ele>
        <time>2021-11-14T15:28:49.294Z</time>
      </trkpt>
      <trkpt lat="47.508215" lon="7.668664">
        <ele>493.911659</ele>
        <time>2021-11-14T15:28:50.299Z</time>
      </trkpt>
      <trkpt lat="47.508195" lon="7.668698">
        <ele>494.030023</ele>
        <time>2021-11-14T15:28:51.455Z</time>
      </trkpt>
      <trkpt lat="47.508096" lon="7.668696">
        <ele>494.414835</ele>
        <time>2021-11-14T15:28:53.573Z</time>
      </trkpt>
      <trkpt lat="47.507055" lon="7.668067">
        <ele>499.623316</ele>
        <time>2021-11-14T15:29:25.515Z</time>
      </trkpt>
      <trkpt lat="47.506716" lon="7.667934">
        <ele>502.116929</ele>
        <time>2021-11-14T15:29:38.918Z</time>
      </trkpt>
      <trkpt lat="47.506336" lon="7.667946">
        <ele>504.819467</ele>
        <time>2021-11-14T15:29:57.607Z</time>
      </trkpt>
      <trkpt lat="47.505893" lon="7.667768">
        <ele>508.083308</ele>
        <time>2021-11-14T15:30:22.139Z</time>
      </trkpt>
      <trkpt lat="47.505709" lon="7.667844">
        <ele>509.441580</ele>
        <time>2021-11-14T15:30:29.049Z</time>
      </trkpt>
      <trkpt lat="47.505364" lon="7.668163">
        <ele>512.957503</ele>
        <time>2021-11-14T15:30:47.794Z</time>
      </trkpt>
      <trkpt lat="47.505295" lon="7.668259">
        <ele>513.867899</ele>
        <time>2021-11-14T15:30:53.437Z</time>
      </trkpt>
      <trkpt lat="47.505273" lon="7.668282">
        <ele>514.126843</ele>
        <time>2021-11-14T15:30:56.267Z</time>
      </trkpt>
      <trkpt lat="47.505003" lon="7.668423">
        <ele>516.879495</ele>
        <time>2021-11-14T15:31:09.388Z</time>
      </trkpt>
      <trkpt lat="47.504784" lon="7.668451">
        <ele>518.992865</ele>
        <time>2021-11-14T15:31:21.844Z</time>
      </trkpt>
      <trkpt lat="47.503852" lon="7.668457">
        <ele>527.955895</ele>
        <time>2021-11-14T15:32:14.952Z</time>
      </trkpt>
      <trkpt lat="47.503644" lon="7.668446">
        <ele>530.006344</ele>
        <time>2021-11-14T15:32:24.653Z</time>
      </trkpt>
      <trkpt lat="47.503078" lon="7.668512">
        <ele>535.599648</ele>
        <time>2021-11-14T15:32:56.832Z</time>
      </trkpt>
      <trkpt lat="47.502894" lon="7.668475">
        <ele>537.429000</ele>
        <time>2021-11-14T15:33:05.690Z</time>
      </trkpt>
      <trkpt lat="47.502567" lon="7.667896">
        <ele>542.451643</ele>
        <time>2021-11-14T15:33:35.857Z</time>
      </trkpt>
      <trkpt lat="47.502382" lon="7.667723">
        <ele>544.607420</ele>
        <time>2021-11-14T15:33:46.097Z</time>
      </trkpt>
      <trkpt lat="47.502331" lon="7.667705">
        <ele>545.123938</ele>
        <time>2021-11-14T15:33:50.201Z</time>
      </trkpt>
      <trkpt lat="47.502292" lon="7.667688">
        <ele>545.524464</ele>
        <time>2021-11-14T15:33:53.280Z</time>
      </trkpt>
      <trkpt lat="47.502151" lon="7.667642">
        <ele>546.729404</ele>
        <time>2021-11-14T15:33:59.033Z</time>
      </trkpt>
      <trkpt lat="47.502006" lon="7.667624">
        <ele>547.935632</ele>
        <time>2021-11-14T15:34:06.066Z</time>
      </trkpt>
      <trkpt lat="47.501882" lon="7.667549">
        <ele>549.046057</ele>
        <time>2021-11-14T15:34:14.010Z</time>
      </trkpt>
      <trkpt lat="47.501738" lon="7.667367">
        <ele>550.615715</ele>
        <time>2021-11-14T15:34:20.973Z</time>
      </trkpt>
      <trkpt lat="47.501725" lon="7.667123">
        <ele>551.986422</ele>
        <time>2021-11-14T15:34:30.541Z</time>
      </trkpt>
      <trkpt lat="47.502047" lon="7.666538">
        <ele>556.212319</ele>
        <time>2021-11-14T15:34:52.729Z</time>
      </trkpt>
      <trkpt lat="47.502211" lon="7.666089">
        <ele>559.070812</ele>
        <time>2021-11-14T15:35:09.070Z</time>
      </trkpt>
      <trkpt lat="47.502398" lon="7.665168">
        <ele>564.606337</ele>
        <time>2021-11-14T15:35:40.424Z</time>
      </trkpt>
      <trkpt lat="47.502680" lon="7.664603">
        <ele>568.688760</ele>
        <time>2021-11-14T15:36:01.774Z</time>
      </trkpt>
      <trkpt lat="47.502656" lon="7.664371">
        <ele>570.052732</ele>
        <time>2021-11-14T15:36:09.257Z</time>
      </trkpt>
      <trkpt lat="47.502470" lon="7.664143">
        <ele>572.130193</ele>
        <time>2021-11-14T15:36:21.635Z</time>
      </trkpt>
      <trkpt lat="47.502341" lon="7.664057">
        <ele>573.347264</ele>
        <time>2021-11-14T15:36:29.722Z</time>
      </trkpt>
      <trkpt lat="47.502215" lon="7.663950">
        <ele>574.596877</ele>
        <time>2021-11-14T15:36:38.246Z</time>
      </trkpt>
      <trkpt lat="47.502113" lon="7.663831">
        <ele>575.714101</ele>
        <time>2021-11-14T15:36:44.703Z</time>
      </trkpt>
      <trkpt lat="47.501982" lon="7.663470">
        <ele>577.686877</ele>
        <time>2021-11-14T15:36:59.843Z</time>
      </trkpt>
      <trkpt lat="47.501929" lon="7.662724">
        <ele>581.212645</ele>
        <time>2021-11-14T15:37:25.775Z</time>
      </trkpt>
      <trkpt lat="47.501880" lon="7.662547">
        <ele>582.111744</ele>
        <time>2021-11-14T15:37:32.208Z</time>
      </trkpt>
      <trkpt lat="47.501814" lon="7.662406">
        <ele>582.918030</ele>
        <time>2021-11-14T15:37:36.488Z</time>
      </trkpt>
      <trkpt lat="47.501739" lon="7.662303">
        <ele>583.629846</ele>
        <time>2021-11-14T15:37:41.317Z</time>
      </trkpt>
      <trkpt lat="47.501540" lon="7.662165">
        <ele>585.158818</ele>
        <time>2021-11-14T15:37:50.542Z</time>
      </trkpt>
      <trkpt lat="47.501427" lon="7.662094">
        <ele>586.012923</ele>
        <time>2021-11-14T15:37:54.071Z</time>
      </trkpt>
      <trkpt lat="47.501357" lon="7.661880">
        <ele>587.130505</ele>
        <time>2021-11-14T15:37:58.171Z</time>
      </trkpt>
      <trkpt lat="47.501296" lon="7.661615">
        <ele>588.446423</ele>
        <time>2021-11-14T15:38:03.016Z</time>
      </trkpt>
      <trkpt lat="47.501272" lon="7.661516">
        <ele>588.713031</ele>
        <time>2021-11-14T15:38:04.831Z</time>
      </trkpt>
      <trkpt lat="47.501255" lon="7.661462">
        <ele>588.856884</ele>
        <time>2021-11-14T15:38:05.974Z</time>
      </trkpt>
      <trkpt lat="47.501224" lon="7.661406">
        <ele>589.031700</ele>
        <time>2021-11-14T15:38:07.223Z</time>
      </trkpt>
      <trkpt lat="47.501172" lon="7.661341">
        <ele>589.274963</ele>
        <time>2021-11-14T15:38:08.815Z</time>
      </trkpt>
      <trkpt lat="47.501134" lon="7.661306">
        <ele>589.434929</ele>
        <time>2021-11-14T15:38:09.972Z</time>
      </trkpt>
      <trkpt lat="47.500892" lon="7.661159">
        <ele>590.369882</ele>
        <time>2021-11-14T15:38:18.475Z</time>
      </trkpt>
      <trkpt lat="47.500378" lon="7.660739">
        <ele>592.468351</ele>
        <time>2021-11-14T15:38:35.912Z</time>
      </trkpt>
      <trkpt lat="47.500168" lon="7.660591">
        <ele>593.299666</ele>
        <time>2021-11-14T15:38:41.095Z</time>
      </trkpt>
      <trkpt lat="47.499828" lon="7.660558">
        <ele>594.517500</ele>
        <time>2021-11-14T15:38:50.253Z</time>
      </trkpt>
      <trkpt lat="47.499384" lon="7.660566">
        <ele>596.772696</ele>
        <time>2021-11-14T15:39:04.172Z</time>
      </trkpt>
      <trkpt lat="47.498649" lon="7.660737">
        <ele>600.908362</ele>
        <time>2021-11-14T15:39:32.698Z</time>
      </trkpt>
      <trkpt lat="47.498407" lon="7.660659">
        <ele>602.285046</ele>
        <time>2021-11-14T15:39:43.758Z</time>
      </trkpt>
      <trkpt lat="47.498030" lon="7.660538">
        <ele>604.429305</ele>
        <time>2021-11-14T15:40:00.841Z</time>
      </trkpt>
      <trkpt lat="47.497005" lon="7.659684">
        <ele>609.518861</ele>
        <time>2021-11-14T15:40:41.425Z</time>
      </trkpt>
      <trkpt lat="47.496700" lon="7.659355">
        <ele>611.115922</ele>
        <time>2021-11-14T15:40:51.893Z</time>
      </trkpt>
      <trkpt lat="47.496419" lon="7.658896">
        <ele>612.565786</ele>
        <time>2021-11-14T15:41:02.540Z</time>
      </trkpt>
      <trkpt lat="47.495370" lon="7.658146">
        <ele>613.293600</ele>
        <time>2021-11-14T15:41:25.850Z</time>
      </trkpt>
      <trkpt lat="47.495295" lon="7.658106">
        <ele>613.343405</ele>
        <time>2021-11-14T15:41:27.258Z</time>
      </trkpt>
      <trkpt lat="47.495132" lon="7.658047">
        <ele>613.448239</ele>
        <time>2021-11-14T15:41:30.002Z</time>
      </trkpt>
      <trkpt lat="47.494878" lon="7.657874">
        <ele>613.622921</ele>
        <time>2021-11-14T15:41:33.157Z</time>
      </trkpt>
      <trkpt lat="47.493869" lon="7.656901">
        <ele>610.704339</ele>
        <time>2021-11-14T15:41:45.515Z</time>
      </trkpt>
      <trkpt lat="47.493727" lon="7.656848">
        <ele>610.342834</ele>
        <time>2021-11-14T15:41:46.948Z</time>
      </trkpt>
      <trkpt lat="47.493625" lon="7.656806">
        <ele>610.081481</ele>
        <time>2021-11-14T15:41:47.966Z</time>
      </trkpt>
      <trkpt lat="47.493454" lon="7.656654">
        <ele>609.589081</ele>
        <time>2021-11-14T15:41:50.198Z</time>
      </trkpt>
      <trkpt lat="47.493323" lon="7.656425">
        <ele>609.194456</ele>
        <time>2021-11-14T15:41:52.427Z</time>
      </trkpt>
      <trkpt lat="47.492960" lon="7.655784">
        <ele>609.202233</ele>
        <time>2021-11-14T15:41:59.122Z</time>
      </trkpt>
      <trkpt lat="47.492898" lon="7.656011">
        <ele>609.204509</ele>
        <time>2021-11-14T15:42:01.190Z</time>
      </trkpt>
      <trkpt lat="47.492834" lon="7.656127">
        <ele>609.205902</ele>
        <time>2021-11-14T15:42:02.487Z</time>
      </trkpt>
      <trkpt lat="47.492655" lon="7.656259">
        <ele>609.208654</ele>
        <time>2021-11-14T15:42:04.745Z</time>
      </trkpt>
      <trkpt lat="47.492368" lon="7.656441">
        <ele>609.212950</ele>
        <time>2021-11-14T15:42:10.735Z</time>
      </trkpt>
      <trkpt lat="47.492098" lon="7.656633">
        <ele>609.217072</ele>
        <time>2021-11-14T15:42:17.256Z</time>
      </trkpt>
      <trkpt lat="47.491848" lon="7.656926">
        <ele>610.009936</ele>
        <time>2021-11-14T15:42:25.836Z</time>
      </trkpt>
      <trkpt lat="47.491315" lon="7.657218">
        <ele>612.188837</ele>
        <time>2021-11-14T15:42:43.776Z</time>
      </trkpt>
      <trkpt lat="47.490868" lon="7.657356">
        <ele>613.939416</ele>
        <time>2021-11-14T15:42:58.843Z</time>
      </trkpt>
      <trkpt lat="47.490491" lon="7.657402">
        <ele>615.389645</ele>
        <time>2021-11-14T15:43:10.209Z</time>
      </trkpt>
      <trkpt lat="47.490095" lon="7.657387">
        <ele>617.376385</ele>
        <time>2021-11-14T15:43:22.315Z</time>
      </trkpt>
      <trkpt lat="47.489998" lon="7.657426">
        <ele>617.988873</ele>
        <time>2021-11-14T15:43:25.251Z</time>
      </trkpt>
      <trkpt lat="47.489839" lon="7.657570">
        <ele>619.124756</ele>
        <time>2021-11-14T15:43:31.916Z</time>
      </trkpt>
      <trkpt lat="47.489641" lon="7.657751">
        <ele>620.542874</ele>
        <time>2021-11-14T15:43:39.296Z</time>
      </trkpt>
      <trkpt lat="47.488222" lon="7.658466">
        <ele>630.702052</ele>
        <time>2021-11-14T15:44:45.149Z</time>
      </trkpt>
      <trkpt lat="47.488006" lon="7.658683">
        <ele>632.919423</ele>
        <time>2021-11-14T15:44:57.836Z</time>
      </trkpt>
      <trkpt lat="47.487823" lon="7.658963">
        <ele>635.155112</ele>
        <time>2021-11-14T15:45:11.361Z</time>
      </trkpt>
      <trkpt lat="47.487746" lon="7.659067">
        <ele>636.040540</ele>
        <time>2021-11-14T15:45:16.528Z</time>
      </trkpt>
      <trkpt lat="47.487696" lon="7.659164">
        <ele>636.740739</ele>
        <time>2021-11-14T15:45:21.364Z</time>
      </trkpt>
      <trkpt lat="47.487466" lon="7.659584">
        <ele>639.843442</ele>
        <time>2021-11-14T15:45:39.965Z</time>
      </trkpt>
      <trkpt lat="47.487708" lon="7.660023">
        <ele>643.043698</ele>
        <time>2021-11-14T15:45:59.345Z</time>
      </trkpt>
      <trkpt lat="47.487727" lon="7.660149">
        <ele>643.733532</ele>
        <time>2021-11-14T15:46:03.473Z</time>
      </trkpt>
      <trkpt lat="47.487727" lon="7.660396">
        <ele>645.053362</ele>
        <time>2021-11-14T15:46:12.094Z</time>
      </trkpt>
      <trkpt lat="47.487791" lon="7.660726">
        <ele>646.887883</ele>
        <time>2021-11-14T15:46:24.122Z</time>
      </trkpt>
      <trkpt lat="47.488398" lon="7.662127">
        <ele>655.780587</ele>
        <time>2021-11-14T15:47:13.329Z</time>
      </trkpt>
      <trkpt lat="47.488562" lon="7.662648">
        <ele>658.640094</ele>
        <time>2021-11-14T15:47:31.473Z</time>
      </trkpt>
      <trkpt lat="47.488788" lon="7.663703">
        <ele>664.004545</ele>
        <time>2021-11-14T15:48:04.578Z</time>
      </trkpt>
      <trkpt lat="47.488770" lon="7.663949">
        <ele>665.203889</ele>
        <time>2021-11-14T15:48:11.667Z</time>
      </trkpt>
      <trkpt lat="47.488654" lon="7.664239">
        <ele>666.837345</ele>
        <time>2021-11-14T15:48:21.255Z</time>
      </trkpt>
      <trkpt lat="47.488619" lon="7.664308">
        <ele>667.255536</ele>
        <time>2021-11-14T15:48:24.468Z</time>
      </trkpt>
      <trkpt lat="47.488583" lon="7.664379">
        <ele>667.685786</ele>
        <time>2021-11-14T15:48:26.553Z</time>
      </trkpt>
      <trkpt lat="47.488568" lon="7.664426">
        <ele>667.937728</ele>
        <time>2021-11-14T15:48:27.675Z</time>
      </trkpt>
      <trkpt lat="47.488554" lon="7.664485">
        <ele>668.240825</ele>
        <time>2021-11-14T15:48:29.207Z</time>
      </trkpt>
      <trkpt lat="47.488545" lon="7.664580">
        <ele>668.705800</ele>
        <time>2021-11-14T15:48:33.097Z</time>
      </trkpt>
      <trkpt lat="47.488490" lon="7.665159">
        <ele>671.158576</ele>
        <time>2021-11-14T15:48:48.902Z</time>
      </trkpt>
      <trkpt lat="47.488064" lon="7.665788">
        <ele>674.678092</ele>
        <time>2021-11-14T15:49:12.813Z</time>
      </trkpt>
      <trkpt lat="47.487374" lon="7.666070">
        <ele>678.864652</ele>
        <time>2021-11-14T15:49:39.567Z</time>
      </trkpt>
      <trkpt lat="47.487095" lon="7.666096">
        <ele>680.468084</ele>
        <time>2021-11-14T15:49:47.658Z</time>
      </trkpt>
      <trkpt lat="47.487040" lon="7.666069">
        <ele>680.785833</ele>
        <time>2021-11-14T15:49:49.783Z</time>
      </trkpt>
      <trkpt lat="47.486993" lon="7.666016">
        <ele>681.109852</ele>
        <time>2021-11-14T15:49:52.013Z</time>
      </trkpt>
      <trkpt lat="47.486777" lon="7.665741">
        <ele>682.672288</ele>
        <time>2021-11-14T15:50:02.893Z</time>
      </trkpt>
      <trkpt lat="47.486496" lon="7.665749">
        <ele>684.213410</ele>
        <time>2021-11-14T15:50:12.824Z</time>
      </trkpt>
      <trkpt lat="47.486336" lon="7.665642">
        <ele>685.176186</ele>
        <time>2021-11-14T15:50:19.902Z</time>
      </trkpt>
      <trkpt lat="47.485979" lon="7.664993">
        <ele>688.277080</ele>
        <time>2021-11-14T15:50:41.233Z</time>
      </trkpt>
      <trkpt lat="47.485810" lon="7.664592">
        <ele>690.018303</ele>
        <time>2021-11-14T15:50:52.347Z</time>
      </trkpt>
      <trkpt lat="47.485784" lon="7.664530">
        <ele>690.272923</ele>
        <time>2021-11-14T15:50:55.519Z</time>
      </trkpt>
      <trkpt lat="47.485656" lon="7.664426">
        <ele>691.026953</ele>
        <time>2021-11-14T15:51:00.263Z</time>
      </trkpt>
      <trkpt lat="47.485138" lon="7.664477">
        <ele>693.707661</ele>
        <time>2021-11-14T15:51:18.808Z</time>
      </trkpt>
      <trkpt lat="47.484870" lon="7.664431">
        <ele>695.100810</ele>
        <time>2021-11-14T15:51:29.299Z</time>
      </trkpt>
      <trkpt lat="47.484767" lon="7.664543">
        <ele>695.760828</ele>
        <time>2021-11-14T15:51:34.497Z</time>
      </trkpt>
      <trkpt lat="47.484557" lon="7.664979">
        <ele>697.629164</ele>
        <time>2021-11-14T15:51:47.913Z</time>
      </trkpt>
      <trkpt lat="47.484447" lon="7.664992">
        <ele>698.198979</ele>
        <time>2021-11-14T15:51:51.565Z</time>
      </trkpt>
      <trkpt lat="47.484129" lon="7.663998">
        <ele>701.335517</ele>
        <time>2021-11-14T15:52:12.419Z</time>
      </trkpt>
      <trkpt lat="47.483410" lon="7.662800">
        <ele>705.571104</ele>
        <time>2021-11-14T15:52:44.147Z</time>
      </trkpt>
      <trkpt lat="47.483387" lon="7.662711">
        <ele>705.822998</ele>
        <time>2021-11-14T15:52:46.720Z</time>
      </trkpt>
      <trkpt lat="47.483385" lon="7.662632">
        <ele>706.031987</ele>
        <time>2021-11-14T15:52:48.098Z</time>
      </trkpt>
      <trkpt lat="47.483510" lon="7.661814">
        <ele>709.516848</ele>
        <time>2021-11-14T15:53:07.470Z</time>
      </trkpt>
      <trkpt lat="47.483499" lon="7.661747">
        <ele>709.810840</ele>
        <time>2021-11-14T15:53:09.008Z</time>
      </trkpt>
      <trkpt lat="47.483475" lon="7.661696">
        <ele>710.075828</ele>
        <time>2021-11-14T15:53:10.923Z</time>
      </trkpt>
      <trkpt lat="47.483446" lon="7.661648">
        <ele>710.350361</ele>
        <time>2021-11-14T15:53:12.337Z</time>
      </trkpt>
      <trkpt lat="47.483407" lon="7.661609">
        <ele>710.647349</ele>
        <time>2021-11-14T15:53:13.886Z</time>
      </trkpt>
      <trkpt lat="47.483337" lon="7.661573">
        <ele>711.114923</ele>
        <time>2021-11-14T15:53:17.359Z</time>
      </trkpt>
      <trkpt lat="47.482820" lon="7.661376">
        <ele>714.483307</ele>
        <time>2021-11-14T15:53:38.583Z</time>
      </trkpt>
      <trkpt lat="47.481650" lon="7.660270">
        <ele>723.182332</ele>
        <time>2021-11-14T15:54:45.953Z</time>
      </trkpt>
      <trkpt lat="47.481441" lon="7.660134">
        <ele>724.607550</ele>
        <time>2021-11-14T15:54:56.168Z</time>
      </trkpt>
      <trkpt lat="47.480947" lon="7.659840">
        <ele>727.931316</ele>
        <time>2021-11-14T15:55:13.785Z</time>
      </trkpt>
      <trkpt lat="47.480453" lon="7.659599">
        <ele>726.557532</ele>
        <time>2021-11-14T15:55:27.810Z</time>
      </trkpt>
      <trkpt lat="47.479804" lon="7.659052">
        <ele>722.323872</ele>
        <time>2021-11-14T15:55:34.933Z</time>
      </trkpt>
      <trkpt lat="47.479124" lon="7.658616">
        <ele>717.502854</ele>
        <time>2021-11-14T15:55:41.213Z</time>
      </trkpt>
      <trkpt lat="47.479069" lon="7.658557">
        <ele>716.572822</ele>
        <time>2021-11-14T15:55:41.772Z</time>
      </trkpt>
      <trkpt lat="47.479037" lon="7.658508">
        <ele>715.942368</ele>
        <time>2021-11-14T15:55:42.145Z</time>
      </trkpt>
      <trkpt lat="47.478885" lon="7.658127">
        <ele>711.848760</ele>
        <time>2021-11-14T15:55:44.690Z</time>
      </trkpt>
      <trkpt lat="47.478869" lon="7.658105">
        <ele>711.549735</ele>
        <time>2021-11-14T15:55:44.874Z</time>
      </trkpt>
      <trkpt lat="47.478855" lon="7.658094">
        <ele>711.332724</ele>
        <time>2021-11-14T15:55:45.004Z</time>
      </trkpt>
      <trkpt lat="47.478819" lon="7.658086">
        <ele>710.834350</ele>
        <time>2021-11-14T15:55:45.306Z</time>
      </trkpt>
      <trkpt lat="47.478630" lon="7.658136">
        <ele>708.205874</ele>
        <time>2021-11-14T15:55:47.016Z</time>
      </trkpt>
      <trkpt lat="47.478528" lon="7.658207">
        <ele>706.662663</ele>
        <time>2021-11-14T15:55:47.936Z</time>
      </trkpt>
      <trkpt lat="47.478399" lon="7.658328">
        <ele>704.571650</ele>
        <time>2021-11-14T15:55:49.210Z</time>
      </trkpt>
      <trkpt lat="47.478311" lon="7.658423">
        <ele>703.080326</ele>
        <time>2021-11-14T15:55:50.163Z</time>
      </trkpt>
      <trkpt lat="47.478222" lon="7.658520">
        <ele>701.567018</ele>
        <time>2021-11-14T15:55:51.059Z</time>
      </trkpt>
      <trkpt lat="47.477975" lon="7.658805">
        <ele>697.278850</ele>
        <time>2021-11-14T15:55:53.698Z</time>
      </trkpt>
      <trkpt lat="47.477714" lon="7.659073">
        <ele>693.367683</ele>
        <time>2021-11-14T15:55:56.351Z</time>
      </trkpt>
      <trkpt lat="47.477346" lon="7.659332">
        <ele>690.213455</ele>
        <time>2021-11-14T15:55:59.813Z</time>
      </trkpt>
      <trkpt lat="47.477220" lon="7.659353">
        <ele>689.232025</ele>
        <time>2021-11-14T15:56:00.929Z</time>
      </trkpt>
      <trkpt lat="47.477160" lon="7.659316">
        <ele>688.728890</ele>
        <time>2021-11-14T15:56:01.477Z</time>
      </trkpt>
      <trkpt lat="47.477138" lon="7.659290">
        <ele>688.510951</ele>
        <time>2021-11-14T15:56:01.826Z</time>
      </trkpt>
      <trkpt lat="47.477102" lon="7.659181">
        <ele>687.876281</ele>
        <time>2021-11-14T15:56:02.869Z</time>
      </trkpt>
      <trkpt lat="47.477066" lon="7.659026">
        <ele>687.018863</ele>
        <time>2021-11-14T15:56:04.255Z</time>
      </trkpt>
      <trkpt lat="47.477025" lon="7.658869">
        <ele>686.138345</ele>
        <time>2021-11-14T15:56:05.692Z</time>
      </trkpt>
      <trkpt lat="47.476937" lon="7.658689">
        <ele>684.976157</ele>
        <time>2021-11-14T15:56:07.641Z</time>
      </trkpt>
      <trkpt lat="47.476789" lon="7.658596">
        <ele>683.731574</ele>
        <time>2021-11-14T15:56:09.892Z</time>
      </trkpt>
      <trkpt lat="47.476684" lon="7.658598">
        <ele>682.918789</ele>
        <time>2021-11-14T15:56:11.218Z</time>
      </trkpt>
      <trkpt lat="47.476609" lon="7.658624">
        <ele>682.322553</ele>
        <time>2021-11-14T15:56:12.302Z</time>
      </trkpt>
      <trkpt lat="47.476280" lon="7.658852">
        <ele>680.105995</ele>
        <time>2021-11-14T15:56:17.609Z</time>
      </trkpt>
      <trkpt lat="47.476193" lon="7.658883">
        <ele>680.229574</ele>
        <time>2021-11-14T15:56:19.037Z</time>
      </trkpt>
      <trkpt lat="47.476158" lon="7.658895">
        <ele>680.279188</ele>
        <time>2021-11-14T15:56:19.602Z</time>
      </trkpt>
      <trkpt lat="47.476012" lon="7.658932">
        <ele>680.483745</ele>
        <time>2021-11-14T15:56:21.747Z</time>
      </trkpt>
      <trkpt lat="47.475631" lon="7.658882">
        <ele>681.011956</ele>
        <time>2021-11-14T15:56:29.624Z</time>
      </trkpt>
      <trkpt lat="47.475506" lon="7.658879">
        <ele>681.184599</ele>
        <time>2021-11-14T15:56:32.504Z</time>
      </trkpt>
      <trkpt lat="47.475518" lon="7.658963">
        <ele>681.264737</ele>
        <time>2021-11-14T15:56:35.240Z</time>
      </trkpt>
      <trkpt lat="47.475526" lon="7.659520">
        <ele>681.784757</ele>
        <time>2021-11-14T15:56:44.806Z</time>
      </trkpt>
      <trkpt lat="47.475550" lon="7.659903">
        <ele>682.143782</ele>
        <time>2021-11-14T15:56:51.379Z</time>
      </trkpt>
      <trkpt lat="47.475587" lon="7.660335">
        <ele>682.721381</ele>
        <time>2021-11-14T15:57:01.392Z</time>
      </trkpt>
      <trkpt lat="47.475584" lon="7.660431">
        <ele>683.114852</ele>
        <time>2021-11-14T15:57:03.015Z</time>
      </trkpt>
      <trkpt lat="47.475563" lon="7.660517">
        <ele>683.489234</ele>
        <time>2021-11-14T15:57:06.502Z</time>
      </trkpt>
      <trkpt lat="47.475453" lon="7.660952">
        <ele>685.390815</ele>
        <time>2021-11-14T15:57:17.329Z</time>
      </trkpt>
      <trkpt lat="47.475431" lon="7.661038">
        <ele>685.767299</ele>
        <time>2021-11-14T15:57:21.539Z</time>
      </trkpt>
      <trkpt lat="47.475081" lon="7.662263">
        <ele>691.212523</ele>
        <time>2021-11-14T15:57:59.056Z</time>
      </trkpt>
      <trkpt lat="47.475047" lon="7.662513">
        <ele>692.256619</ele>
        <time>2021-11-14T15:58:06.849Z</time>
      </trkpt>
      <trkpt lat="47.474989" lon="7.663216">
        <ele>694.422646</ele>
        <time>2021-11-14T15:58:25.231Z</time>
      </trkpt>
      <trkpt lat="47.474967" lon="7.663452">
        <ele>694.991768</ele>
        <time>2021-11-14T15:58:30.117Z</time>
      </trkpt>
      <trkpt lat="47.474918" lon="7.664070">
        <ele>696.478243</ele>
        <time>2021-11-14T15:58:42.462Z</time>
      </trkpt>
      <trkpt lat="47.474914" lon="7.664128">
        <ele>696.617519</ele>
        <time>2021-11-14T15:58:43.604Z</time>
      </trkpt>
      <trkpt lat="47.474908" lon="7.664389">
        <ele>697.241388</ele>
        <time>2021-11-14T15:58:48.734Z</time>
      </trkpt>
      <trkpt lat="47.474938" lon="7.664777">
        <ele>698.174334</ele>
        <time>2021-11-14T15:58:55.808Z</time>
      </trkpt>
      <trkpt lat="47.474976" lon="7.665188">
        <ele>699.165323</ele>
        <time>2021-11-14T15:59:02.689Z</time>
      </trkpt>
      <trkpt lat="47.475004" lon="7.665440">
        <ele>699.756831</ele>
        <time>2021-11-14T15:59:06.527Z</time>
      </trkpt>
      <trkpt lat="47.475154" lon="7.667130">
        <ele>700.594902</ele>
        <time>2021-11-14T15:59:25.496Z</time>
      </trkpt>
      <trkpt lat="47.475210" lon="7.667403">
        <ele>700.735175</ele>
        <time>2021-11-14T15:59:28.789Z</time>
      </trkpt>
      <trkpt lat="47.475439" lon="7.668006">
        <ele>701.080822</ele>
        <time>2021-11-14T15:59:36.685Z</time>
      </trkpt>
      <trkpt lat="47.475468" lon="7.668205">
        <ele>701.218495</ele>
        <time>2021-11-14T15:59:38.750Z</time>
      </trkpt>
      <trkpt lat="47.475458" lon="7.668347">
        <ele>701.315048</ele>
        <time>2021-11-14T15:59:40.774Z</time>
      </trkpt>
      <trkpt lat="47.475322" lon="7.668778">
        <ele>701.636725</ele>
        <time>2021-11-14T15:59:46.579Z</time>
      </trkpt>
      <trkpt lat="47.475203" lon="7.669120">
        <ele>701.896863</ele>
        <time>2021-11-14T15:59:51.447Z</time>
      </trkpt>
      <trkpt lat="47.475076" lon="7.669403">
        <ele>702.126596</ele>
        <time>2021-11-14T15:59:56.176Z</time>
      </trkpt>
      <trkpt lat="47.475034" lon="7.670257">
        <ele>702.705674</ele>
        <time>2021-11-14T16:00:07.433Z</time>
      </trkpt>
      <trkpt lat="47.474747" lon="7.671110">
        <ele>702.445339</ele>
        <time>2021-11-14T16:00:20.269Z</time>
      </trkpt>
      <trkpt lat="47.474722" lon="7.671735">
        <ele>702.086983</ele>
        <time>2021-11-14T16:00:27.195Z</time>
      </trkpt>
      <trkpt lat="47.474799" lon="7.672866">
        <ele>701.436358</ele>
        <time>2021-11-14T16:00:35.998Z</time>
      </trkpt>
      <trkpt lat="47.475051" lon="7.674031">
        <ele>696.049113</ele>
        <time>2021-11-14T16:00:43.832Z</time>
      </trkpt>
      <trkpt lat="47.475114" lon="7.675260">
        <ele>689.839291</ele>
        <time>2021-11-14T16:00:51.123Z</time>
      </trkpt>
      <trkpt lat="47.475491" lon="7.676931">
        <ele>677.465062</ele>
        <time>2021-11-14T16:01:01.215Z</time>
      </trkpt>
      <trkpt lat="47.475542" lon="7.678222">
        <ele>667.700699</ele>
        <time>2021-11-14T16:01:08.625Z</time>
      </trkpt>
      <trkpt lat="47.475398" lon="7.678674">
        <ele>664.714226</ele>
        <time>2021-11-14T16:01:11.547Z</time>
      </trkpt>
      <trkpt lat="47.475390" lon="7.678824">
        <ele>663.814946</ele>
        <time>2021-11-14T16:01:12.440Z</time>
      </trkpt>
      <trkpt lat="47.475518" lon="7.678981">
        <ele>662.344746</ele>
        <time>2021-11-14T16:01:13.942Z</time>
      </trkpt>
      <trkpt lat="47.475600" lon="7.678953">
        <ele>661.600611</ele>
        <time>2021-11-14T16:01:14.717Z</time>
      </trkpt>
      <trkpt lat="47.475664" lon="7.678843">
        <ele>660.733163</ele>
        <time>2021-11-14T16:01:15.568Z</time>
      </trkpt>
      <trkpt lat="47.475701" lon="7.678183">
        <ele>656.775069</ele>
        <time>2021-11-14T16:01:19.578Z</time>
      </trkpt>
      <trkpt lat="47.475901" lon="7.677182">
        <ele>650.197450</ele>
        <time>2021-11-14T16:01:25.661Z</time>
      </trkpt>
      <trkpt lat="47.475943" lon="7.676911">
        <ele>648.117682</ele>
        <time>2021-11-14T16:01:27.475Z</time>
      </trkpt>
      <trkpt lat="47.475963" lon="7.676500">
        <ele>645.035325</ele>
        <time>2021-11-14T16:01:29.840Z</time>
      </trkpt>
      <trkpt lat="47.475984" lon="7.676078">
        <ele>641.870099</ele>
        <time>2021-11-14T16:01:32.283Z</time>
      </trkpt>
      <trkpt lat="47.476031" lon="7.675961">
        <ele>640.852000</ele>
        <time>2021-11-14T16:01:33.154Z</time>
      </trkpt>
      <trkpt lat="47.476118" lon="7.675908">
        <ele>639.810730</ele>
        <time>2021-11-14T16:01:34.039Z</time>
      </trkpt>
      <trkpt lat="47.476161" lon="7.675909">
        <ele>639.334783</ele>
        <time>2021-11-14T16:01:34.389Z</time>
      </trkpt>
      <trkpt lat="47.476199" lon="7.675929">
        <ele>638.888414</ele>
        <time>2021-11-14T16:01:34.718Z</time>
      </trkpt>
      <trkpt lat="47.476310" lon="7.676111">
        <ele>637.054694</ele>
        <time>2021-11-14T16:01:36.207Z</time>
      </trkpt>
      <trkpt lat="47.476555" lon="7.677002">
        <ele>629.321062</ele>
        <time>2021-11-14T16:01:41.613Z</time>
      </trkpt>
      <trkpt lat="47.476951" lon="7.677630">
        <ele>621.264712</ele>
        <time>2021-11-14T16:01:46.457Z</time>
      </trkpt>
      <trkpt lat="47.477084" lon="7.677944">
        <ele>617.788770</ele>
        <time>2021-11-14T16:01:48.537Z</time>
      </trkpt>
      <trkpt lat="47.477108" lon="7.678056">
        <ele>616.686660</ele>
        <time>2021-11-14T16:01:49.196Z</time>
      </trkpt>
      <trkpt lat="47.477122" lon="7.678158">
        <ele>615.710359</ele>
        <time>2021-11-14T16:01:49.794Z</time>
      </trkpt>
      <trkpt lat="47.477049" lon="7.679499">
        <ele>603.390133</ele>
        <time>2021-11-14T16:01:57.431Z</time>
      </trkpt>
      <trkpt lat="47.477163" lon="7.679826">
        <ele>600.201923</ele>
        <time>2021-11-14T16:01:59.535Z</time>
      </trkpt>
      <trkpt lat="47.477194" lon="7.679864">
        <ele>599.685810</ele>
        <time>2021-11-14T16:01:59.869Z</time>
      </trkpt>
      <trkpt lat="47.477253" lon="7.679912">
        <ele>598.822597</ele>
        <time>2021-11-14T16:02:00.427Z</time>
      </trkpt>
      <trkpt lat="47.477796" lon="7.680182">
        <ele>591.478521</ele>
        <time>2021-11-14T16:02:05.277Z</time>
      </trkpt>
      <trkpt lat="47.478096" lon="7.680541">
        <ele>586.531892</ele>
        <time>2021-11-14T16:02:08.544Z</time>
      </trkpt>
      <trkpt lat="47.479291" lon="7.682309">
        <ele>563.058654</ele>
        <time>2021-11-14T16:02:22.642Z</time>
      </trkpt>
      <trkpt lat="47.479404" lon="7.682470">
        <ele>560.857050</ele>
        <time>2021-11-14T16:02:23.930Z</time>
      </trkpt>
      <trkpt lat="47.479478" lon="7.682637">
        <ele>558.962936</ele>
        <time>2021-11-14T16:02:25.089Z</time>
      </trkpt>
      <trkpt lat="47.479501" lon="7.682927">
        <ele>556.894976</ele>
        <time>2021-11-14T16:02:26.721Z</time>
      </trkpt>
      <trkpt lat="47.479494" lon="7.682996">
        <ele>556.417330</ele>
        <time>2021-11-14T16:02:27.106Z</time>
      </trkpt>
      <trkpt lat="47.479471" lon="7.683068">
        <ele>555.872156</ele>
        <time>2021-11-14T16:02:27.591Z</time>
      </trkpt>
      <trkpt lat="47.479444" lon="7.683140">
        <ele>555.308477</ele>
        <time>2021-11-14T16:02:28.090Z</time>
      </trkpt>
      <trkpt lat="47.479383" lon="7.683246">
        <ele>554.355417</ele>
        <time>2021-11-14T16:02:28.878Z</time>
      </trkpt>
      <trkpt lat="47.479195" lon="7.683404">
        <ele>552.165424</ele>
        <time>2021-11-14T16:02:30.693Z</time>
      </trkpt>
      <trkpt lat="47.478683" lon="7.683516">
        <ele>546.923018</ele>
        <time>2021-11-14T16:02:35.133Z</time>
      </trkpt>
      <trkpt lat="47.478605" lon="7.683497">
        <ele>546.122323</ele>
        <time>2021-11-14T16:02:35.792Z</time>
      </trkpt>
      <trkpt lat="47.478551" lon="7.683474">
        <ele>545.553147</ele>
        <time>2021-11-14T16:02:36.272Z</time>
      </trkpt>
      <trkpt lat="47.477524" lon="7.682199">
        <ele>538.504104</ele>
        <time>2021-11-14T16:02:48.974Z</time>
      </trkpt>
      <trkpt lat="47.477381" lon="7.682137">
        <ele>538.151285</ele>
        <time>2021-11-14T16:02:50.543Z</time>
      </trkpt>
      <trkpt lat="47.477198" lon="7.682184">
        <ele>537.711517</ele>
        <time>2021-11-14T16:02:53.821Z</time>
      </trkpt>
      <trkpt lat="47.476365" lon="7.682915">
        <ele>536.122110</ele>
        <time>2021-11-14T16:03:10.653Z</time>
      </trkpt>
      <trkpt lat="47.476216" lon="7.683116">
        <ele>536.054792</ele>
        <time>2021-11-14T16:03:14.403Z</time>
      </trkpt>
      <trkpt lat="47.475984" lon="7.683839">
        <ele>535.874194</ele>
        <time>2021-11-14T16:03:23.189Z</time>
      </trkpt>
      <trkpt lat="47.475297" lon="7.685191">
        <ele>533.669449</ele>
        <time>2021-11-14T16:03:36.421Z</time>
      </trkpt>
      <trkpt lat="47.475226" lon="7.685478">
        <ele>532.731171</ele>
        <time>2021-11-14T16:03:38.473Z</time>
      </trkpt>
      <trkpt lat="47.475193" lon="7.685958">
        <ele>531.249923</ele>
        <time>2021-11-14T16:03:41.649Z</time>
      </trkpt>
      <trkpt lat="47.475248" lon="7.686688">
        <ele>528.994875</ele>
        <time>2021-11-14T16:03:46.260Z</time>
      </trkpt>
      <trkpt lat="47.475166" lon="7.687435">
        <ele>526.055018</ele>
        <time>2021-11-14T16:03:50.816Z</time>
      </trkpt>
      <trkpt lat="47.475073" lon="7.687905">
        <ele>523.387046</ele>
        <time>2021-11-14T16:03:53.713Z</time>
      </trkpt>
      <trkpt lat="47.474770" lon="7.688571">
        <ele>519.013380</ele>
        <time>2021-11-14T16:03:58.440Z</time>
      </trkpt>
      <trkpt lat="47.474112" lon="7.689422">
        <ele>512.219186</ele>
        <time>2021-11-14T16:04:06.162Z</time>
      </trkpt>
      <trkpt lat="47.474400" lon="7.689301">
        <ele>510.408911</ele>
        <time>2021-11-14T16:04:08.832Z</time>
      </trkpt>
      <trkpt lat="47.474820" lon="7.689301">
        <ele>507.869343</ele>
        <time>2021-11-14T16:04:12.646Z</time>
      </trkpt>
      <trkpt lat="47.475293" lon="7.688963">
        <ele>504.693173</ele>
        <time>2021-11-14T16:04:17.514Z</time>
      </trkpt>
      <trkpt lat="47.475661" lon="7.688555">
        <ele>501.970775</ele>
        <time>2021-11-14T16:04:21.868Z</time>
      </trkpt>
      <trkpt lat="47.477018" lon="7.686423">
        <ele>493.868823</ele>
        <time>2021-11-14T16:04:41.204Z</time>
      </trkpt>
      <trkpt lat="47.477143" lon="7.686279">
        <ele>493.246379</ele>
        <time>2021-11-14T16:04:42.749Z</time>
      </trkpt>
      <trkpt lat="47.477296" lon="7.686073">
        <ele>492.433589</ele>
        <time>2021-11-14T16:04:48.903Z</time>
      </trkpt>
      <trkpt lat="47.477322" lon="7.686026">
        <ele>492.272303</ele>
        <time>2021-11-14T16:04:50.046Z</time>
      </trkpt>
      <trkpt lat="47.477445" lon="7.685812">
        <ele>491.526314</ele>
        <time>2021-11-14T16:04:55.530Z</time>
      </trkpt>
      <trkpt lat="47.477626" lon="7.685726">
        <ele>490.779392</ele>
        <time>2021-11-14T16:05:00.900Z</time>
      </trkpt>
      <trkpt lat="47.478088" lon="7.685692">
        <ele>488.961941</ele>
        <time>2021-11-14T16:05:13.899Z</time>
      </trkpt>
      <trkpt lat="47.478224" lon="7.685948">
        <ele>488.097263</ele>
        <time>2021-11-14T16:05:20.246Z</time>
      </trkpt>
      <trkpt lat="47.478338" lon="7.686649">
        <ele>486.472436</ele>
        <time>2021-11-14T16:05:34.197Z</time>
      </trkpt>
      <trkpt lat="47.478541" lon="7.687725">
        <ele>484.099767</ele>
        <time>2021-11-14T16:05:56.704Z</time>
      </trkpt>
      <trkpt lat="47.478720" lon="7.688411">
        <ele>482.537971</ele>
        <time>2021-11-14T16:06:11.407Z</time>
      </trkpt>
      <trkpt lat="47.478920" lon="7.688897">
        <ele>481.624039</ele>
        <time>2021-11-14T16:06:23.017Z</time>
      </trkpt>
      <trkpt lat="47.479001" lon="7.689305">
        <ele>481.131025</ele>
        <time>2021-11-14T16:06:31.971Z</time>
      </trkpt>
      <trkpt lat="47.479081" lon="7.691268">
        <ele>478.851050</ele>
        <time>2021-11-14T16:07:15.877Z</time>
      </trkpt>
      <trkpt lat="47.479306" lon="7.692752">
        <ele>477.088927</ele>
        <time>2021-11-14T16:07:49.394Z</time>
      </trkpt>
      <trkpt lat="47.479556" lon="7.694296">
        <ele>475.251587</ele>
        <time>2021-11-14T16:08:06.110Z</time>
      </trkpt>
      <trkpt lat="47.479646" lon="7.695551">
        <ele>473.795063</ele>
        <time>2021-11-14T16:08:19.576Z</time>
      </trkpt>
      <trkpt lat="47.479908" lon="7.696383">
        <ele>472.739155</ele>
        <time>2021-11-14T16:08:29.867Z</time>
      </trkpt>
      <trkpt lat="47.479981" lon="7.697020">
        <ele>473.175535</ele>
        <time>2021-11-14T16:08:37.686Z</time>
      </trkpt>
      <trkpt lat="47.479995" lon="7.697729">
        <ele>473.654606</ele>
        <time>2021-11-14T16:08:47.874Z</time>
      </trkpt>
      <trkpt lat="47.479898" lon="7.698584">
        <ele>474.240164</ele>
        <time>2021-11-14T16:09:02.658Z</time>
      </trkpt>
      <trkpt lat="47.479727" lon="7.700545">
        <ele>478.273600</ele>
        <time>2021-11-14T16:09:50.954Z</time>
      </trkpt>
      <trkpt lat="47.479676" lon="7.700684">
        <ele>478.657485</ele>
        <time>2021-11-14T16:09:54.906Z</time>
      </trkpt>
      <trkpt lat="47.479579" lon="7.700879">
        <ele>479.245158</ele>
        <time>2021-11-14T16:10:01.137Z</time>
      </trkpt>
      <trkpt lat="47.479503" lon="7.701108">
        <ele>479.864376</ele>
        <time>2021-11-14T16:10:07.177Z</time>
      </trkpt>
      <trkpt lat="47.479480" lon="7.701177">
        <ele>480.051112</ele>
        <time>2021-11-14T16:10:08.870Z</time>
      </trkpt>
      <trkpt lat="47.479451" lon="7.701400">
        <ele>480.602299</ele>
        <time>2021-11-14T16:10:14.409Z</time>
      </trkpt>
      <trkpt lat="47.479487" lon="7.701698">
        <ele>480.952455</ele>
        <time>2021-11-14T16:10:20.805Z</time>
      </trkpt>
      <trkpt lat="47.479574" lon="7.702157">
        <ele>480.809387</ele>
        <time>2021-11-14T16:10:30.862Z</time>
      </trkpt>
      <trkpt lat="47.479697" lon="7.702857">
        <ele>480.592323</ele>
        <time>2021-11-14T16:10:43.710Z</time>
      </trkpt>
      <trkpt lat="47.479911" lon="7.704548">
        <ele>478.455211</ele>
        <time>2021-11-14T16:11:01.009Z</time>
      </trkpt>
      <trkpt lat="47.480044" lon="7.705631">
        <ele>473.665730</ele>
        <time>2021-11-14T16:11:10.532Z</time>
      </trkpt>
      <trkpt lat="47.480164" lon="7.706339">
        <ele>470.489712</ele>
        <time>2021-11-14T16:11:16.788Z</time>
      </trkpt>
      <trkpt lat="47.480277" lon="7.707004">
        <ele>467.489093</ele>
        <time>2021-11-14T16:11:22.614Z</time>
      </trkpt>
      <trkpt lat="47.480364" lon="7.707317">
        <ele>465.993888</ele>
        <time>2021-11-14T16:11:25.525Z</time>
      </trkpt>
      <trkpt lat="47.480491" lon="7.707714">
        <ele>464.053401</ele>
        <time>2021-11-14T16:11:29.312Z</time>
      </trkpt>
      <trkpt lat="47.480739" lon="7.708397">
        <ele>460.628024</ele>
        <time>2021-11-14T16:11:36.057Z</time>
      </trkpt>
      <trkpt lat="47.481029" lon="7.709271">
        <ele>456.463108</ele>
        <time>2021-11-14T16:11:44.813Z</time>
      </trkpt>
      <trkpt lat="47.481200" lon="7.709734">
        <ele>454.730568</ele>
        <time>2021-11-14T16:11:49.726Z</time>
      </trkpt>
      <trkpt lat="47.481460" lon="7.710447">
        <ele>452.070267</ele>
        <time>2021-11-14T16:11:57.265Z</time>
      </trkpt>
      <trkpt lat="47.481641" lon="7.710972">
        <ele>450.135009</ele>
        <time>2021-11-14T16:12:02.801Z</time>
      </trkpt>
      <trkpt lat="47.481788" lon="7.711431">
        <ele>448.467163</ele>
        <time>2021-11-14T16:12:07.417Z</time>
      </trkpt>
      <trkpt lat="47.482039" lon="7.712241">
        <ele>445.327760</ele>
        <time>2021-11-14T16:12:15.423Z</time>
      </trkpt>
      <trkpt lat="47.482242" lon="7.713106">
        <ele>442.072200</ele>
        <time>2021-11-14T16:12:23.616Z</time>
      </trkpt>
      <trkpt lat="47.482308" lon="7.713372">
        <ele>441.064745</ele>
        <time>2021-11-14T16:12:26.136Z</time>
      </trkpt>
      <trkpt lat="47.482416" lon="7.713774">
        <ele>439.526694</ele>
        <time>2021-11-14T16:12:30.071Z</time>
      </trkpt>
      <trkpt lat="47.482433" lon="7.713904">
        <ele>439.055923</ele>
        <time>2021-11-14T16:12:31.234Z</time>
      </trkpt>
      <trkpt lat="47.482433" lon="7.714052">
        <ele>438.624366</ele>
        <time>2021-11-14T16:12:32.564Z</time>
      </trkpt>
      <trkpt lat="47.482328" lon="7.714408">
        <ele>438.268910</ele>
        <time>2021-11-14T16:12:36.210Z</time>
      </trkpt>
      <trkpt lat="47.482173" lon="7.714640">
        <ele>437.970371</ele>
        <time>2021-11-14T16:12:39.634Z</time>
      </trkpt>
      <trkpt lat="47.482103" lon="7.714746">
        <ele>437.834746</ele>
        <time>2021-11-14T16:12:41.134Z</time>
      </trkpt>
      <trkpt lat="47.482040" lon="7.714879">
        <ele>437.686116</ele>
        <time>2021-11-14T16:12:42.734Z</time>
      </trkpt>
      <trkpt lat="47.482008" lon="7.715033">
        <ele>437.538676</ele>
        <time>2021-11-14T16:12:44.697Z</time>
      </trkpt>
      <trkpt lat="47.481996" lon="7.715154">
        <ele>437.426760</ele>
        <time>2021-11-14T16:12:46.044Z</time>
      </trkpt>
      <trkpt lat="47.482000" lon="7.715252">
        <ele>437.336915</ele>
        <time>2021-11-14T16:12:47.068Z</time>
      </trkpt>
      <trkpt lat="47.482000" lon="7.715252">
        <ele>437.336915</ele>
        <time>2021-11-14T16:12:47.074Z</time>
      </trkpt>
      <trkpt lat="47.482073" lon="7.715569">
        <ele>437.030442</ele>
        <time>2021-11-14T16:12:51.887Z</time>
      </trkpt>
      <trkpt lat="47.482141" lon="7.715923">
        <ele>436.693657</ele>
        <time>2021-11-14T16:12:56.956Z</time>
      </trkpt>
      <trkpt lat="47.482124" lon="7.716109">
        <ele>436.521895</ele>
        <time>2021-11-14T16:12:59.808Z</time>
      </trkpt>
      <trkpt lat="47.482140" lon="7.716270">
        <ele>436.372976</ele>
        <time>2021-11-14T16:13:02.008Z</time>
      </trkpt>
      <trkpt lat="47.482173" lon="7.716518">
        <ele>436.148246</ele>
        <time>2021-11-14T16:13:06.064Z</time>
      </trkpt>
      <trkpt lat="47.482225" lon="7.716865">
        <ele>435.849734</ele>
        <time>2021-11-14T16:13:11.198Z</time>
      </trkpt>
      <trkpt lat="47.482254" lon="7.717300">
        <ele>435.482620</ele>
        <time>2021-11-14T16:13:16.984Z</time>
      </trkpt>
      <trkpt lat="47.482205" lon="7.717569">
        <ele>435.248635</ele>
        <time>2021-11-14T16:13:21.522Z</time>
      </trkpt>
      <trkpt lat="47.482055" lon="7.718107">
        <ele>434.759846</ele>
        <time>2021-11-14T16:13:28.032Z</time>
      </trkpt>
      <trkpt lat="47.481837" lon="7.718933">
        <ele>434.015092</ele>
        <time>2021-11-14T16:13:34.141Z</time>
      </trkpt>
      <trkpt lat="47.481809" lon="7.719044">
        <ele>433.302511</ele>
        <time>2021-11-14T16:13:34.824Z</time>
      </trkpt>
      <trkpt lat="47.481725" lon="7.719370">
        <ele>430.472954</ele>
        <time>2021-11-14T16:13:36.913Z</time>
      </trkpt>
      <trkpt lat="47.481540" lon="7.720057">
        <ele>424.475250</ele>
        <time>2021-11-14T16:13:41.167Z</time>
      </trkpt>
      <trkpt lat="47.481478" lon="7.720286">
        <ele>422.474527</ele>
        <time>2021-11-14T16:13:42.560Z</time>
      </trkpt>
      <trkpt lat="47.481387" lon="7.720625">
        <ele>419.516230</ele>
        <time>2021-11-14T16:13:44.608Z</time>
      </trkpt>
      <trkpt lat="47.481293" lon="7.720976">
        <ele>416.454189</ele>
        <time>2021-11-14T16:13:46.743Z</time>
      </trkpt>
      <trkpt lat="47.481293" lon="7.720976">
        <ele>416.454189</ele>
        <time>2021-11-14T16:13:46.789Z</time>
      </trkpt>
      <trkpt lat="47.481111" lon="7.721585">
        <ele>410.904596</ele>
        <time>2021-11-14T16:13:50.532Z</time>
      </trkpt>
      <trkpt lat="47.480883" lon="7.722375">
        <ele>403.167260</ele>
        <time>2021-11-14T16:13:55.361Z</time>
      </trkpt>
      <trkpt lat="47.480850" lon="7.722487">
        <ele>402.066749</ele>
        <time>2021-11-14T16:13:56.034Z</time>
      </trkpt>
      <trkpt lat="47.480560" lon="7.723517">
        <ele>392.016417</ele>
        <time>2021-11-14T16:14:02.375Z</time>
      </trkpt>
      <trkpt lat="47.480416" lon="7.724106">
        <ele>387.205521</ele>
        <time>2021-11-14T16:14:05.999Z</time>
      </trkpt>
      <trkpt lat="47.480346" lon="7.724333">
        <ele>385.866329</ele>
        <time>2021-11-14T16:14:07.453Z</time>
      </trkpt>
      <trkpt lat="47.480339" lon="7.724466">
        <ele>385.150326</ele>
        <time>2021-11-14T16:14:08.249Z</time>
      </trkpt>
      <trkpt lat="47.480353" lon="7.724593">
        <ele>384.459680</ele>
        <time>2021-11-14T16:14:09.034Z</time>
      </trkpt>
      <trkpt lat="47.480404" lon="7.724751">
        <ele>383.519903</ele>
        <time>2021-11-14T16:14:10.074Z</time>
      </trkpt>
      <trkpt lat="47.480590" lon="7.725049">
        <ele>381.342732</ele>
        <time>2021-11-14T16:14:12.601Z</time>
      </trkpt>
      <trkpt lat="47.480643" lon="7.725067">
        <ele>380.910886</ele>
        <time>2021-11-14T16:14:13.084Z</time>
      </trkpt>
      <trkpt lat="47.480696" lon="7.725064">
        <ele>380.489677</ele>
        <time>2021-11-14T16:14:13.533Z</time>
      </trkpt>
      <trkpt lat="47.481154" lon="7.724561">
        <ele>375.960031</ele>
        <time>2021-11-14T16:14:18.656Z</time>
      </trkpt>
      <trkpt lat="47.481657" lon="7.724192">
        <ele>372.184754</ele>
        <time>2021-11-14T16:14:23.702Z</time>
      </trkpt>
      <trkpt lat="47.481929" lon="7.724111">
        <ele>370.550541</ele>
        <time>2021-11-14T16:14:26.292Z</time>
      </trkpt>
      <trkpt lat="47.482160" lon="7.724091">
        <ele>369.187616</ele>
        <time>2021-11-14T16:14:28.402Z</time>
      </trkpt>
      <trkpt lat="47.482242" lon="7.724080">
        <ele>368.702653</ele>
        <time>2021-11-14T16:14:29.224Z</time>
      </trkpt>
      <trkpt lat="47.482297" lon="7.724055">
        <ele>368.363760</ele>
        <time>2021-11-14T16:14:29.787Z</time>
      </trkpt>
      <trkpt lat="47.482353" lon="7.724034">
        <ele>368.023491</ele>
        <time>2021-11-14T16:14:30.306Z</time>
      </trkpt>
      <trkpt lat="47.483052" lon="7.723757">
        <ele>363.761267</ele>
        <time>2021-11-14T16:14:37.105Z</time>
      </trkpt>
      <trkpt lat="47.483186" lon="7.723794">
        <ele>362.864994</ele>
        <time>2021-11-14T16:14:38.336Z</time>
      </trkpt>
      <trkpt lat="47.483249" lon="7.724080">
        <ele>361.479421</ele>
        <time>2021-11-14T16:14:40.227Z</time>
      </trkpt>
      <trkpt lat="47.483366" lon="7.724301">
        <ele>360.186302</ele>
        <time>2021-11-14T16:14:41.901Z</time>
      </trkpt>
      <trkpt lat="47.483601" lon="7.724694">
        <ele>357.769213</ele>
        <time>2021-11-14T16:14:45.070Z</time>
      </trkpt>
      <trkpt lat="47.483854" lon="7.725119">
        <ele>355.160439</ele>
        <time>2021-11-14T16:14:48.517Z</time>
      </trkpt>
      <trkpt lat="47.483912" lon="7.725241">
        <ele>354.473377</ele>
        <time>2021-11-14T16:14:49.439Z</time>
      </trkpt>
      <trkpt lat="47.483964" lon="7.725363">
        <ele>353.809003</ele>
        <time>2021-11-14T16:14:50.324Z</time>
      </trkpt>
      <trkpt lat="47.484019" lon="7.725450">
        <ele>353.260269</ele>
        <time>2021-11-14T16:14:51.026Z</time>
      </trkpt>
      <trkpt lat="47.484078" lon="7.725546">
        <ele>352.662577</ele>
        <time>2021-11-14T16:14:51.790Z</time>
      </trkpt>
      <trkpt lat="47.484184" lon="7.725825">
        <ele>351.183232</ele>
        <time>2021-11-14T16:14:53.751Z</time>
      </trkpt>
      <trkpt lat="47.484215" lon="7.725949">
        <ele>350.544753</ele>
        <time>2021-11-14T16:14:54.531Z</time>
      </trkpt>
      <trkpt lat="47.484253" lon="7.726100">
        <ele>349.766630</ele>
        <time>2021-11-14T16:14:55.514Z</time>
      </trkpt>
      <trkpt lat="47.484307" lon="7.726332">
        <ele>348.581672</ele>
        <time>2021-11-14T16:14:57.019Z</time>
      </trkpt>
      <trkpt lat="47.484437" lon="7.726980">
        <ele>345.317400</ele>
        <time>2021-11-14T16:15:01.130Z</time>
      </trkpt>
      <trkpt lat="47.484546" lon="7.727519">
        <ele>342.600446</ele>
        <time>2021-11-14T16:15:04.479Z</time>
      </trkpt>
      <trkpt lat="47.484579" lon="7.727663">
        <ele>341.866154</ele>
        <time>2021-11-14T16:15:05.395Z</time>
      </trkpt>
      <trkpt lat="47.484711" lon="7.728237">
        <ele>338.938135</ele>
        <time>2021-11-14T16:15:09.045Z</time>
      </trkpt>
      <trkpt lat="47.484868" lon="7.729017">
        <ele>335.837726</ele>
        <time>2021-11-14T16:15:14.142Z</time>
      </trkpt>
      <trkpt lat="47.484909" lon="7.729250">
        <ele>334.956117</ele>
        <time>2021-11-14T16:15:15.624Z</time>
      </trkpt>
      <trkpt lat="47.484975" lon="7.729224">
        <ele>334.586051</ele>
        <time>2021-11-14T16:15:16.271Z</time>
      </trkpt>
      <trkpt lat="47.485059" lon="7.729137">
        <ele>334.030502</ele>
        <time>2021-11-14T16:15:17.260Z</time>
      </trkpt>
      <trkpt lat="47.485113" lon="7.729094">
        <ele>333.698238</ele>
        <time>2021-11-14T16:15:17.796Z</time>
      </trkpt>
      <trkpt lat="47.486046" lon="7.728429">
        <ele>328.274014</ele>
        <time>2021-11-14T16:15:27.600Z</time>
      </trkpt>
      <trkpt lat="47.486872" lon="7.727207">
        <ele>323.892433</ele>
        <time>2021-11-14T16:15:39.049Z</time>
      </trkpt>
      <trkpt lat="47.488326" lon="7.725302">
        <ele>318.134761</ele>
        <time>2021-11-14T16:15:59.092Z</time>
      </trkpt>
      <trkpt lat="47.488897" lon="7.724752">
        <ele>316.387317</ele>
        <time>2021-11-14T16:16:06.580Z</time>
      </trkpt>
      <trkpt lat="47.489116" lon="7.724510">
        <ele>315.724308</ele>
        <time>2021-11-14T16:16:09.573Z</time>
      </trkpt>
      <trkpt lat="47.489169" lon="7.724454">
        <ele>315.566334</ele>
        <time>2021-11-14T16:16:10.271Z</time>
      </trkpt>
      <trkpt lat="47.489346" lon="7.724892">
        <ele>314.729783</ele>
        <time>2021-11-14T16:16:13.919Z</time>
      </trkpt>
      <trkpt lat="47.489379" lon="7.724942">
        <ele>314.615217</ele>
        <time>2021-11-14T16:16:14.385Z</time>
      </trkpt>
      <trkpt lat="47.489460" lon="7.725066">
        <ele>314.332513</ele>
        <time>2021-11-14T16:16:15.663Z</time>
      </trkpt>
      <trkpt lat="47.489941" lon="7.725807">
        <ele>312.655968</ele>
        <time>2021-11-14T16:16:22.858Z</time>
      </trkpt>
      <trkpt lat="47.489995" lon="7.725895">
        <ele>312.473803</ele>
        <time>2021-11-14T16:16:23.729Z</time>
      </trkpt>
      <trkpt lat="47.490311" lon="7.726430">
        <ele>311.384874</ele>
        <time>2021-11-14T16:16:28.811Z</time>
      </trkpt>
      <trkpt lat="47.490422" lon="7.726726">
        <ele>310.866099</ele>
        <time>2021-11-14T16:16:31.432Z</time>
      </trkpt>
      <trkpt lat="47.490472" lon="7.726859">
        <ele>310.632864</ele>
        <time>2021-11-14T16:16:32.441Z</time>
      </trkpt>
      <trkpt lat="47.490558" lon="7.726775">
        <ele>310.399175</ele>
        <time>2021-11-14T16:16:33.679Z</time>
      </trkpt>
      <trkpt lat="47.490621" lon="7.726684">
        <ele>310.199524</ele>
        <time>2021-11-14T16:16:34.701Z</time>
      </trkpt>
      <trkpt lat="47.490801" lon="7.726367">
        <ele>309.564994</ele>
        <time>2021-11-14T16:16:37.595Z</time>
      </trkpt>
      <trkpt lat="47.490981" lon="7.726050">
        <ele>308.930465</ele>
        <time>2021-11-14T16:16:40.533Z</time>
      </trkpt>
      <trkpt lat="47.491072" lon="7.725890">
        <ele>308.646445</ele>
        <time>2021-11-14T16:16:42.174Z</time>
      </trkpt>
      <trkpt lat="47.491137" lon="7.725804">
        <ele>308.541542</ele>
        <time>2021-11-14T16:16:43.241Z</time>
      </trkpt>
      <trkpt lat="47.491202" lon="7.725718">
        <ele>308.436638</ele>
        <time>2021-11-14T16:16:44.096Z</time>
      </trkpt>
      <trkpt lat="47.491334" lon="7.725544">
        <ele>308.223953</ele>
        <time>2021-11-14T16:16:46.237Z</time>
      </trkpt>
      <trkpt lat="47.491533" lon="7.725332">
        <ele>307.928938</ele>
        <time>2021-11-14T16:16:49.071Z</time>
      </trkpt>
      <trkpt lat="47.491598" lon="7.725275">
        <ele>307.838033</ele>
        <time>2021-11-14T16:16:50.022Z</time>
      </trkpt>
      <trkpt lat="47.491668" lon="7.725287">
        <ele>307.753247</ele>
        <time>2021-11-14T16:16:50.911Z</time>
      </trkpt>
      <trkpt lat="47.491803" lon="7.725283">
        <ele>307.590785</ele>
        <time>2021-11-14T16:16:52.744Z</time>
      </trkpt>
      <trkpt lat="47.491803" lon="7.725283">
        <ele>307.590785</ele>
        <time>2021-11-14T16:16:52.746Z</time>
      </trkpt>
      <trkpt lat="47.491822" lon="7.725306">
        <ele>307.561251</ele>
        <time>2021-11-14T16:16:53.047Z</time>
      </trkpt>
      <trkpt lat="47.491891" lon="7.725334">
        <ele>307.475167</ele>
        <time>2021-11-14T16:16:54.026Z</time>
      </trkpt>
      <trkpt lat="47.491915" lon="7.725328">
        <ele>307.445882</ele>
        <time>2021-11-14T16:16:54.286Z</time>
      </trkpt>
      <trkpt lat="47.491939" lon="7.725313">
        <ele>307.414536</ele>
        <time>2021-11-14T16:16:54.620Z</time>
      </trkpt>
      <trkpt lat="47.491961" lon="7.725291">
        <ele>307.382590</ele>
        <time>2021-11-14T16:16:54.928Z</time>
      </trkpt>
      <trkpt lat="47.491978" lon="7.725262">
        <ele>307.351377</ele>
        <time>2021-11-14T16:16:55.237Z</time>
      </trkpt>
      <trkpt lat="47.491989" lon="7.725231">
        <ele>307.322911</ele>
        <time>2021-11-14T16:16:55.559Z</time>
      </trkpt>
      <trkpt lat="47.491996" lon="7.725198">
        <ele>307.294792</ele>
        <time>2021-11-14T16:16:55.850Z</time>
      </trkpt>
      <trkpt lat="47.491998" lon="7.725163">
        <ele>307.266236</ele>
        <time>2021-11-14T16:16:56.204Z</time>
      </trkpt>
      <trkpt lat="47.492086" lon="7.725087">
        <ele>307.143646</ele>
        <time>2021-11-14T16:16:57.471Z</time>
      </trkpt>
      <trkpt lat="47.492200" lon="7.725003">
        <ele>306.990424</ele>
        <time>2021-11-14T16:16:58.979Z</time>
      </trkpt>
      <trkpt lat="47.492533" lon="7.724869">
        <ele>306.575218</ele>
        <time>2021-11-14T16:17:03.182Z</time>
      </trkpt>
      <trkpt lat="47.492679" lon="7.724813">
        <ele>306.503608</ele>
        <time>2021-11-14T16:17:05.038Z</time>
      </trkpt>
      <trkpt lat="47.492858" lon="7.724732">
        <ele>306.468999</ele>
        <time>2021-11-14T16:17:07.490Z</time>
      </trkpt>
      <trkpt lat="47.492952" lon="7.724675">
        <ele>306.450217</ele>
        <time>2021-11-14T16:17:08.692Z</time>
      </trkpt>
      <trkpt lat="47.493160" lon="7.724550">
        <ele>306.408708</ele>
        <time>2021-11-14T16:17:11.879Z</time>
      </trkpt>
      <trkpt lat="47.493271" lon="7.724493">
        <ele>306.386984</ele>
        <time>2021-11-14T16:17:13.367Z</time>
      </trkpt>
      <trkpt lat="47.493492" lon="7.724383">
        <ele>306.343873</ele>
        <time>2021-11-14T16:17:17.220Z</time>
      </trkpt>
      <trkpt lat="47.493620" lon="7.724323">
        <ele>306.319048</ele>
        <time>2021-11-14T16:17:19.049Z</time>
      </trkpt>
      <trkpt lat="47.493698" lon="7.724293">
        <ele>306.304147</ele>
        <time>2021-11-14T16:17:20.213Z</time>
      </trkpt>
      <trkpt lat="47.493945" lon="7.724198">
        <ele>306.256960</ele>
        <time>2021-11-14T16:17:24.098Z</time>
      </trkpt>
      <trkpt lat="47.494130" lon="7.724127">
        <ele>306.221623</ele>
        <time>2021-11-14T16:17:27.107Z</time>
      </trkpt>
      <trkpt lat="47.494301" lon="7.724060">
        <ele>306.198594</ele>
        <time>2021-11-14T16:17:29.834Z</time>
      </trkpt>
      <trkpt lat="47.494609" lon="7.723957">
        <ele>306.412413</ele>
        <time>2021-11-14T16:17:35.023Z</time>
      </trkpt>
      <trkpt lat="47.494771" lon="7.723908">
        <ele>306.524378</ele>
        <time>2021-11-14T16:17:37.790Z</time>
      </trkpt>
      <trkpt lat="47.495480" lon="7.723772">
        <ele>307.008491</ele>
        <time>2021-11-14T16:17:51.325Z</time>
      </trkpt>
      <trkpt lat="47.495660" lon="7.723744">
        <ele>307.131049</ele>
        <time>2021-11-14T16:17:54.695Z</time>
      </trkpt>
      <trkpt lat="47.496031" lon="7.723719">
        <ele>307.382530</ele>
        <time>2021-11-14T16:18:01.161Z</time>
      </trkpt>
      <trkpt lat="47.496324" lon="7.723678">
        <ele>307.418171</ele>
        <time>2021-11-14T16:18:05.929Z</time>
      </trkpt>
      <trkpt lat="47.496562" lon="7.723634">
        <ele>307.426846</ele>
        <time>2021-11-14T16:18:09.821Z</time>
      </trkpt>
      <trkpt lat="47.496884" lon="7.723548">
        <ele>307.438679</ele>
        <time>2021-11-14T16:18:14.880Z</time>
      </trkpt>
      <trkpt lat="47.497065" lon="7.723507">
        <ele>307.445301</ele>
        <time>2021-11-14T16:18:17.569Z</time>
      </trkpt>
      <trkpt lat="47.497226" lon="7.723457">
        <ele>307.451251</ele>
        <time>2021-11-14T16:18:19.981Z</time>
      </trkpt>
      <trkpt lat="47.497460" lon="7.723366">
        <ele>307.460001</ele>
        <time>2021-11-14T16:18:23.424Z</time>
      </trkpt>
      <trkpt lat="47.497687" lon="7.723252">
        <ele>307.468670</ele>
        <time>2021-11-14T16:18:26.785Z</time>
      </trkpt>
      <trkpt lat="47.497920" lon="7.723132">
        <ele>307.424988</ele>
        <time>2021-11-14T16:18:30.160Z</time>
      </trkpt>
      <trkpt lat="47.498175" lon="7.722994">
        <ele>307.291528</ele>
        <time>2021-11-14T16:18:33.756Z</time>
      </trkpt>
      <trkpt lat="47.498192" lon="7.722984">
        <ele>307.282536</ele>
        <time>2021-11-14T16:18:33.982Z</time>
      </trkpt>
      <trkpt lat="47.498291" lon="7.722938">
        <ele>307.231531</ele>
        <time>2021-11-14T16:18:35.371Z</time>
      </trkpt>
      <trkpt lat="47.498478" lon="7.722850">
        <ele>307.135078</ele>
        <time>2021-11-14T16:18:37.904Z</time>
      </trkpt>
      <trkpt lat="47.498511" lon="7.722833">
        <ele>307.117903</ele>
        <time>2021-11-14T16:18:38.331Z</time>
      </trkpt>
      <trkpt lat="47.498767" lon="7.722700">
        <ele>306.984540</ele>
        <time>2021-11-14T16:18:41.648Z</time>
      </trkpt>
      <trkpt lat="47.498830" lon="7.722672">
        <ele>306.952207</ele>
        <time>2021-11-14T16:18:42.429Z</time>
      </trkpt>
      <trkpt lat="47.499364" lon="7.722391">
        <ele>306.673626</ele>
        <time>2021-11-14T16:18:49.577Z</time>
      </trkpt>
      <trkpt lat="47.499469" lon="7.722343">
        <ele>306.619608</ele>
        <time>2021-11-14T16:18:51.323Z</time>
      </trkpt>
      <trkpt lat="47.499723" lon="7.722283">
        <ele>306.710178</ele>
        <time>2021-11-14T16:18:55.163Z</time>
      </trkpt>
      <trkpt lat="47.499864" lon="7.722269">
        <ele>306.796608</ele>
        <time>2021-11-14T16:18:57.560Z</time>
      </trkpt>
      <trkpt lat="47.500054" lon="7.722259">
        <ele>306.912886</ele>
        <time>2021-11-14T16:19:01.127Z</time>
      </trkpt>
      <trkpt lat="47.500109" lon="7.722306">
        <ele>306.951727</ele>
        <time>2021-11-14T16:19:02.057Z</time>
      </trkpt>
      <trkpt lat="47.500276" lon="7.722350">
        <ele>307.055470</ele>
        <time>2021-11-14T16:19:05.514Z</time>
      </trkpt>
      <trkpt lat="47.500286" lon="7.722369">
        <ele>307.065422</ele>
        <time>2021-11-14T16:19:05.737Z</time>
      </trkpt>
      <trkpt lat="47.500299" lon="7.722385">
        <ele>307.075762</ele>
        <time>2021-11-14T16:19:06.034Z</time>
      </trkpt>
      <trkpt lat="47.500313" lon="7.722398">
        <ele>307.085870</ele>
        <time>2021-11-14T16:19:06.259Z</time>
      </trkpt>
      <trkpt lat="47.500335" lon="7.722411">
        <ele>307.100358</ele>
        <time>2021-11-14T16:19:06.684Z</time>
      </trkpt>
      <trkpt lat="47.500382" lon="7.722416">
        <ele>307.129177</ele>
        <time>2021-11-14T16:19:07.763Z</time>
      </trkpt>
      <trkpt lat="47.500404" lon="7.722407">
        <ele>307.143137</ele>
        <time>2021-11-14T16:19:08.084Z</time>
      </trkpt>
      <trkpt lat="47.500420" lon="7.722396">
        <ele>307.153927</ele>
        <time>2021-11-14T16:19:08.394Z</time>
      </trkpt>
      <trkpt lat="47.500446" lon="7.722366">
        <ele>307.174089</ele>
        <time>2021-11-14T16:19:08.871Z</time>
      </trkpt>
      <trkpt lat="47.500456" lon="7.722347">
        <ele>307.184041</ele>
        <time>2021-11-14T16:19:09.228Z</time>
      </trkpt>
      <trkpt lat="47.500463" lon="7.722331">
        <ele>307.191917</ele>
        <time>2021-11-14T16:19:09.692Z</time>
      </trkpt>
      <trkpt lat="47.500461" lon="7.722172">
        <ele>307.257625</ele>
        <time>2021-11-14T16:19:11.578Z</time>
      </trkpt>
      <trkpt lat="47.500454" lon="7.722156">
        <ele>307.265501</ele>
        <time>2021-11-14T16:19:12.020Z</time>
      </trkpt>
      <trkpt lat="47.500445" lon="7.722140">
        <ele>307.274104</ele>
        <time>2021-11-14T16:19:12.365Z</time>
      </trkpt>
      <trkpt lat="47.500381" lon="7.722091">
        <ele>307.318172</ele>
        <time>2021-11-14T16:19:13.487Z</time>
      </trkpt>
      <trkpt lat="47.500366" lon="7.722090">
        <ele>307.327356</ele>
        <time>2021-11-14T16:19:13.895Z</time>
      </trkpt>
      <trkpt lat="47.500361" lon="7.721777">
        <ele>307.456720</ele>
        <time>2021-11-14T16:19:17.887Z</time>
      </trkpt>
      <trkpt lat="47.500352" lon="7.721583">
        <ele>307.537068</ele>
        <time>2021-11-14T16:19:20.268Z</time>
      </trkpt>
      <trkpt lat="47.500349" lon="7.721524">
        <ele>307.561515</ele>
        <time>2021-11-14T16:19:21.230Z</time>
      </trkpt>
      <trkpt lat="47.500354" lon="7.721334">
        <ele>307.640080</ele>
        <time>2021-11-14T16:19:23.538Z</time>
      </trkpt>
      <trkpt lat="47.500358" lon="7.721195">
        <ele>307.675030</ele>
        <time>2021-11-14T16:19:25.089Z</time>
      </trkpt>
      <trkpt lat="47.500362" lon="7.721031">
        <ele>307.542935</ele>
        <time>2021-11-14T16:19:26.609Z</time>
      </trkpt>
      <trkpt lat="47.500389" lon="7.721033">
        <ele>307.510726</ele>
        <time>2021-11-14T16:19:27.190Z</time>
      </trkpt>
      <trkpt lat="47.500461" lon="7.720933">
        <ele>307.393090</ele>
        <time>2021-11-14T16:19:28.558Z</time>
      </trkpt>
      <trkpt lat="47.500460" lon="7.720893">
        <ele>307.360870</ele>
        <time>2021-11-14T16:19:29.294Z</time>
      </trkpt>
      <trkpt lat="47.500553" lon="7.720873">
        <ele>307.248901</ele>
        <time>2021-11-14T16:19:30.757Z</time>
      </trkpt>
      <trkpt lat="47.500806" lon="7.720829">
        <ele>306.945388</ele>
        <time>2021-11-14T16:19:34.698Z</time>
      </trkpt>
      <trkpt lat="47.500848" lon="7.720821">
        <ele>306.894934</ele>
        <time>2021-11-14T16:19:35.464Z</time>
      </trkpt>
      <trkpt lat="47.501183" lon="7.720763">
        <ele>306.493074</ele>
        <time>2021-11-14T16:19:39.786Z</time>
      </trkpt>
      <trkpt lat="47.501369" lon="7.720733">
        <ele>306.270151</ele>
        <time>2021-11-14T16:19:41.856Z</time>
      </trkpt>
      <trkpt lat="47.501475" lon="7.720701">
        <ele>306.141257</ele>
        <time>2021-11-14T16:19:43.074Z</time>
      </trkpt>
      <trkpt lat="47.501487" lon="7.720740">
        <ele>306.106762</ele>
        <time>2021-11-14T16:19:43.380Z</time>
      </trkpt>
      <trkpt lat="47.501590" lon="7.720794">
        <ele>305.976572</ele>
        <time>2021-11-14T16:19:44.609Z</time>
      </trkpt>
      <trkpt lat="47.501616" lon="7.720776">
        <ele>305.942373</ele>
        <time>2021-11-14T16:19:44.917Z</time>
      </trkpt>
      <trkpt lat="47.501635" lon="7.720835">
        <ele>305.889764</ele>
        <time>2021-11-14T16:19:45.323Z</time>
      </trkpt>
      <trkpt lat="47.501658" lon="7.720911">
        <ele>305.822733</ele>
        <time>2021-11-14T16:19:45.941Z</time>
      </trkpt>
      <trkpt lat="47.501816" lon="7.721777">
        <ele>304.011791</ele>
        <time>2021-11-14T16:19:52.020Z</time>
      </trkpt>
      <trkpt lat="47.501908" lon="7.722222">
        <ele>302.723080</ele>
        <time>2021-11-14T16:19:55.018Z</time>
      </trkpt>
      <trkpt lat="47.501978" lon="7.722527">
        <ele>301.831063</ele>
        <time>2021-11-14T16:19:57.046Z</time>
      </trkpt>
      <trkpt lat="47.502028" lon="7.722740">
        <ele>301.206629</ele>
        <time>2021-11-14T16:19:58.507Z</time>
      </trkpt>
      <trkpt lat="47.502046" lon="7.722829">
        <ele>300.949363</ele>
        <time>2021-11-14T16:19:59.089Z</time>
      </trkpt>
      <trkpt lat="47.502072" lon="7.722973">
        <ele>300.536602</ele>
        <time>2021-11-14T16:20:00.024Z</time>
      </trkpt>
      <trkpt lat="47.502112" lon="7.723201">
        <ele>299.884282</ele>
        <time>2021-11-14T16:20:01.545Z</time>
      </trkpt>
      <trkpt lat="47.502133" lon="7.723553">
        <ele>298.905731</ele>
        <time>2021-11-14T16:20:03.842Z</time>
      </trkpt>
      <trkpt lat="47.502126" lon="7.723727">
        <ele>298.423038</ele>
        <time>2021-11-14T16:20:04.981Z</time>
      </trkpt>
      <trkpt lat="47.502105" lon="7.724063">
        <ele>298.137779</ele>
        <time>2021-11-14T16:20:07.206Z</time>
      </trkpt>
      <trkpt lat="47.502074" lon="7.724375">
        <ele>298.091505</ele>
        <time>2021-11-14T16:20:09.421Z</time>
      </trkpt>
      <trkpt lat="47.502069" lon="7.724437">
        <ele>298.082343</ele>
        <time>2021-11-14T16:20:09.885Z</time>
      </trkpt>
      <trkpt lat="47.502067" lon="7.724454">
        <ele>298.079811</ele>
        <time>2021-11-14T16:20:09.993Z</time>
      </trkpt>
      <trkpt lat="47.502055" lon="7.724669">
        <ele>298.048155</ele>
        <time>2021-11-14T16:20:11.688Z</time>
      </trkpt>
      <trkpt lat="47.502040" lon="7.724902">
        <ele>298.013811</ele>
        <time>2021-11-14T16:20:13.836Z</time>
      </trkpt>
      <trkpt lat="47.502029" lon="7.725074">
        <ele>297.988459</ele>
        <time>2021-11-14T16:20:15.326Z</time>
      </trkpt>
      <trkpt lat="47.502031" lon="7.725298">
        <ele>297.955588</ele>
        <time>2021-11-14T16:20:17.497Z</time>
      </trkpt>
      <trkpt lat="47.502031" lon="7.725427">
        <ele>297.936659</ele>
        <time>2021-11-14T16:20:18.896Z</time>
      </trkpt>
      <trkpt lat="47.502048" lon="7.725782">
        <ele>297.884437</ele>
        <time>2021-11-14T16:20:22.952Z</time>
      </trkpt>
      <trkpt lat="47.502115" lon="7.726246">
        <ele>297.814813</ele>
        <time>2021-11-14T16:20:29.861Z</time>
      </trkpt>
      <trkpt lat="47.502122" lon="7.726303">
        <ele>297.806312</ele>
        <time>2021-11-14T16:20:30.948Z</time>
      </trkpt>
      <trkpt lat="47.502177" lon="7.726706">
        <ele>298.873348</ele>
        <time>2021-11-14T16:20:38.934Z</time>
      </trkpt>
      <trkpt lat="47.502189" lon="7.726824">
        <ele>299.383020</ele>
        <time>2021-11-14T16:20:41.528Z</time>
      </trkpt>
      <trkpt lat="47.502204" lon="7.726964">
        <ele>299.988451</ele>
        <time>2021-11-14T16:20:44.980Z</time>
      </trkpt>
      <trkpt lat="47.502370" lon="7.726942">
        <ele>301.042157</ele>
        <time>2021-11-14T16:20:50.981Z</time>
      </trkpt>
      <trkpt lat="47.502407" lon="7.726942">
        <ele>301.276084</ele>
        <time>2021-11-14T16:20:52.257Z</time>
      </trkpt>
      <trkpt lat="47.502557" lon="7.726941">
        <ele>302.224444</ele>
        <time>2021-11-14T16:20:58.177Z</time>
      </trkpt>
      <trkpt lat="47.502785" lon="7.727007">
        <ele>303.693241</ele>
        <time>2021-11-14T16:21:07.558Z</time>
      </trkpt>
      <trkpt lat="47.502897" lon="7.727052">
        <ele>304.426963</ele>
        <time>2021-11-14T16:21:12.796Z</time>
      </trkpt>
      <trkpt lat="47.503012" lon="7.727124">
        <ele>305.216391</ele>
        <time>2021-11-14T16:21:18.413Z</time>
      </trkpt>
      <trkpt lat="47.503612" lon="7.727532">
        <ele>309.481988</ele>
        <time>2021-11-14T16:21:49.902Z</time>
      </trkpt>
      <trkpt lat="47.504330" lon="7.727938">
        <ele>316.218239</ele>
        <time>2021-11-14T16:22:28.391Z</time>
      </trkpt>
      <trkpt lat="47.504693" lon="7.728164">
        <ele>319.669608</ele>
        <time>2021-11-14T16:22:50.936Z</time>
      </trkpt>
      <trkpt lat="47.504979" lon="7.728357">
        <ele>322.424362</ele>
        <time>2021-11-14T16:23:05.648Z</time>
      </trkpt>
      <trkpt lat="47.505256" lon="7.728654">
        <ele>325.351477</ele>
        <time>2021-11-14T16:23:21.974Z</time>
      </trkpt>
      <trkpt lat="47.505279" lon="7.728682">
        <ele>325.575889</ele>
        <time>2021-11-14T16:23:23.403Z</time>
      </trkpt>
      <trkpt lat="47.505304" lon="7.728712">
        <ele>325.818415</ele>
        <time>2021-11-14T16:23:26.292Z</time>
      </trkpt>
      <trkpt lat="47.505472" lon="7.729028">
        <ele>327.865541</ele>
        <time>2021-11-14T16:23:36.755Z</time>
      </trkpt>
      <trkpt lat="47.505554" lon="7.729431">
        <ele>330.008153</ele>
        <time>2021-11-14T16:23:48.527Z</time>
      </trkpt>
      <trkpt lat="47.505566" lon="7.729659">
        <ele>331.172357</ele>
        <time>2021-11-14T16:23:55.912Z</time>
      </trkpt>
      <trkpt lat="47.505576" lon="7.729777">
        <ele>331.777771</ele>
        <time>2021-11-14T16:23:58.731Z</time>
      </trkpt>
      <trkpt lat="47.505600" lon="7.729862">
        <ele>332.246761</ele>
        <time>2021-11-14T16:24:00.599Z</time>
      </trkpt>
      <trkpt lat="47.505610" lon="7.729883">
        <ele>332.377558</ele>
        <time>2021-11-14T16:24:01.474Z</time>
      </trkpt>
      <trkpt lat="47.505698" lon="7.729940">
        <ele>333.101432</ele>
        <time>2021-11-14T16:24:05.057Z</time>
      </trkpt>
      <trkpt lat="47.505786" lon="7.729995">
        <ele>333.821286</ele>
        <time>2021-11-14T16:24:09.971Z</time>
      </trkpt>
      <trkpt lat="47.505964" lon="7.730090">
        <ele>335.247215</ele>
        <time>2021-11-14T16:24:17.928Z</time>
      </trkpt>
      <trkpt lat="47.506098" lon="7.730161">
        <ele>336.319777</ele>
        <time>2021-11-14T16:24:24.693Z</time>
      </trkpt>
      <trkpt lat="47.506112" lon="7.730166">
        <ele>336.428308</ele>
        <time>2021-11-14T16:24:25.429Z</time>
      </trkpt>
      <trkpt lat="47.506263" lon="7.730221">
        <ele>337.600187</ele>
        <time>2021-11-14T16:24:32.736Z</time>
      </trkpt>
      <trkpt lat="47.506380" lon="7.730243">
        <ele>338.494276</ele>
        <time>2021-11-14T16:24:38.312Z</time>
      </trkpt>
      <trkpt lat="47.506471" lon="7.730276">
        <ele>339.442005</ele>
        <time>2021-11-14T16:24:43.283Z</time>
      </trkpt>
      <trkpt lat="47.506756" lon="7.730348">
        <ele>342.366608</ele>
        <time>2021-11-14T16:24:57.321Z</time>
      </trkpt>
      <trkpt lat="47.506937" lon="7.730311">
        <ele>344.214891</ele>
        <time>2021-11-14T16:25:06.925Z</time>
      </trkpt>
      <trkpt lat="47.507701" lon="7.730399">
        <ele>351.966509</ele>
        <time>2021-11-14T16:25:49.248Z</time>
      </trkpt>
      <trkpt lat="47.507939" lon="7.730423">
        <ele>354.379583</ele>
        <time>2021-11-14T16:26:04.175Z</time>
      </trkpt>
      <trkpt lat="47.508551" lon="7.730458">
        <ele>361.105142</ele>
        <time>2021-11-14T16:26:42.831Z</time>
      </trkpt>
      <trkpt lat="47.508949" lon="7.730515">
        <ele>365.698834</ele>
        <time>2021-11-14T16:27:08.114Z</time>
      </trkpt>
      <trkpt lat="47.509109" lon="7.730536">
        <ele>367.544173</ele>
        <time>2021-11-14T16:27:19.468Z</time>
      </trkpt>
      <trkpt lat="47.509299" lon="7.730556">
        <ele>369.732462</ele>
        <time>2021-11-14T16:27:30.660Z</time>
      </trkpt>
      <trkpt lat="47.509971" lon="7.730436">
        <ele>377.480722</ele>
        <time>2021-11-14T16:28:10.291Z</time>
      </trkpt>
      <trkpt lat="47.510248" lon="7.730401">
        <ele>380.173466</ele>
        <time>2021-11-14T16:28:25.419Z</time>
      </trkpt>
      <trkpt lat="47.510439" lon="7.730517">
        <ele>382.173085</ele>
        <time>2021-11-14T16:28:35.352Z</time>
      </trkpt>
      <trkpt lat="47.510529" lon="7.730600">
        <ele>383.200110</ele>
        <time>2021-11-14T16:28:42.293Z</time>
      </trkpt>
      <trkpt lat="47.510582" lon="7.730653">
        <ele>383.819596</ele>
        <time>2021-11-14T16:28:45.948Z</time>
      </trkpt>
      <trkpt lat="47.510894" lon="7.730938">
        <ele>387.370523</ele>
        <time>2021-11-14T16:29:04.239Z</time>
      </trkpt>
      <trkpt lat="47.511169" lon="7.731160">
        <ele>390.404384</ele>
        <time>2021-11-14T16:29:19.996Z</time>
      </trkpt>
      <trkpt lat="47.511556" lon="7.731396">
        <ele>394.458352</ele>
        <time>2021-11-14T16:29:43.849Z</time>
      </trkpt>
      <trkpt lat="47.511744" lon="7.731418">
        <ele>395.946363</ele>
        <time>2021-11-14T16:29:53.653Z</time>
      </trkpt>
      <trkpt lat="47.511927" lon="7.731386">
        <ele>397.336807</ele>
        <time>2021-11-14T16:30:04.734Z</time>
      </trkpt>
      <trkpt lat="47.511976" lon="7.731370">
        <ele>397.715428</ele>
        <time>2021-11-14T16:30:06.806Z</time>
      </trkpt>
      <trkpt lat="47.512002" lon="7.731362">
        <ele>397.915805</ele>
        <time>2021-11-14T16:30:08.022Z</time>
      </trkpt>
      <trkpt lat="47.512392" lon="7.731255">
        <ele>400.908693</ele>
        <time>2021-11-14T16:30:27.054Z</time>
      </trkpt>
      <trkpt lat="47.512650" lon="7.731136">
        <ele>402.947743</ele>
        <time>2021-11-14T16:30:39.486Z</time>
      </trkpt>
      <trkpt lat="47.512937" lon="7.731121">
        <ele>405.114681</ele>
        <time>2021-11-14T16:30:52.449Z</time>
      </trkpt>
      <trkpt lat="47.513227" lon="7.731116">
        <ele>407.303055</ele>
        <time>2021-11-14T16:31:03.919Z</time>
      </trkpt>
      <trkpt lat="47.514180" lon="7.731076">
        <ele>409.765269</ele>
        <time>2021-11-14T16:31:31.730Z</time>
      </trkpt>
      <trkpt lat="47.514358" lon="7.731113">
        <ele>410.081868</ele>
        <time>2021-11-14T16:31:35.729Z</time>
      </trkpt>
      <trkpt lat="47.515097" lon="7.731253">
        <ele>411.394135</ele>
        <time>2021-11-14T16:31:46.290Z</time>
      </trkpt>
      <trkpt lat="47.515284" lon="7.731353">
        <ele>410.737807</ele>
        <time>2021-11-14T16:31:49.062Z</time>
      </trkpt>
      <trkpt lat="47.515400" lon="7.731439">
        <ele>410.053018</ele>
        <time>2021-11-14T16:31:50.518Z</time>
      </trkpt>
      <trkpt lat="47.515516" lon="7.731602">
        <ele>409.208846</ele>
        <time>2021-11-14T16:31:52.117Z</time>
      </trkpt>
      <trkpt lat="47.515609" lon="7.731738">
        <ele>408.518862</ele>
        <time>2021-11-14T16:31:53.493Z</time>
      </trkpt>
      <trkpt lat="47.515656" lon="7.731823">
        <ele>408.127224</ele>
        <time>2021-11-14T16:31:54.237Z</time>
      </trkpt>
      <trkpt lat="47.515788" lon="7.732081">
        <ele>406.973309</ele>
        <time>2021-11-14T16:31:56.256Z</time>
      </trkpt>
      <trkpt lat="47.516143" lon="7.733008">
        <ele>403.174173</ele>
        <time>2021-11-14T16:32:02.680Z</time>
      </trkpt>
      <trkpt lat="47.516252" lon="7.733231">
        <ele>402.192802</ele>
        <time>2021-11-14T16:32:04.335Z</time>
      </trkpt>
      <trkpt lat="47.516307" lon="7.733325">
        <ele>401.568285</ele>
        <time>2021-11-14T16:32:05.050Z</time>
      </trkpt>
      <trkpt lat="47.516479" lon="7.733615">
        <ele>399.190535</ele>
        <time>2021-11-14T16:32:07.394Z</time>
      </trkpt>
      <trkpt lat="47.516777" lon="7.734159">
        <ele>394.875270</ele>
        <time>2021-11-14T16:32:11.482Z</time>
      </trkpt>
      <trkpt lat="47.517043" lon="7.734808">
        <ele>390.198309</ele>
        <time>2021-11-14T16:32:15.889Z</time>
      </trkpt>
      <trkpt lat="47.517532" lon="7.736243">
        <ele>382.317832</ele>
        <time>2021-11-14T16:32:25.320Z</time>
      </trkpt>
      <trkpt lat="47.517709" lon="7.736646">
        <ele>380.487034</ele>
        <time>2021-11-14T16:32:28.332Z</time>
      </trkpt>
      <trkpt lat="47.517827" lon="7.736889">
        <ele>379.347202</ele>
        <time>2021-11-14T16:32:30.245Z</time>
      </trkpt>
      <trkpt lat="47.518829" lon="7.738474">
        <ele>373.804700</ele>
        <time>2021-11-14T16:32:45.518Z</time>
      </trkpt>
      <trkpt lat="47.519284" lon="7.738961">
        <ele>372.613723</ele>
        <time>2021-11-14T16:32:52.465Z</time>
      </trkpt>
      <trkpt lat="47.519623" lon="7.739293">
        <ele>371.751523</ele>
        <time>2021-11-14T16:32:56.963Z</time>
      </trkpt>
      <trkpt lat="47.519931" lon="7.739563">
        <ele>370.267350</ele>
        <time>2021-11-14T16:33:00.758Z</time>
      </trkpt>
      <trkpt lat="47.520226" lon="7.739816">
        <ele>368.725868</ele>
        <time>2021-11-14T16:33:04.254Z</time>
      </trkpt>
      <trkpt lat="47.520523" lon="7.740087">
        <ele>367.148428</ele>
        <time>2021-11-14T16:33:09.156Z</time>
      </trkpt>
      <trkpt lat="47.520998" lon="7.740513">
        <ele>364.637400</ele>
        <time>2021-11-14T16:33:16.558Z</time>
      </trkpt>
      <trkpt lat="47.521267" lon="7.740757">
        <ele>362.951853</ele>
        <time>2021-11-14T16:33:20.612Z</time>
      </trkpt>
      <trkpt lat="47.522060" lon="7.741467">
        <ele>355.003393</ele>
        <time>2021-11-14T16:33:32.196Z</time>
      </trkpt>
      <trkpt lat="47.522380" lon="7.741760">
        <ele>351.776334</ele>
        <time>2021-11-14T16:33:36.823Z</time>
      </trkpt>
      <trkpt lat="47.522575" lon="7.741928">
        <ele>349.841277</ele>
        <time>2021-11-14T16:33:39.580Z</time>
      </trkpt>
      <trkpt lat="47.522769" lon="7.742227">
        <ele>347.425842</ele>
        <time>2021-11-14T16:33:43.087Z</time>
      </trkpt>
      <trkpt lat="47.522802" lon="7.742354">
        <ele>346.620583</ele>
        <time>2021-11-14T16:33:44.180Z</time>
      </trkpt>
      <trkpt lat="47.522809" lon="7.742436">
        <ele>346.131473</ele>
        <time>2021-11-14T16:33:44.867Z</time>
      </trkpt>
      <trkpt lat="47.522797" lon="7.742883">
        <ele>343.484190</ele>
        <time>2021-11-14T16:33:48.534Z</time>
      </trkpt>
      <trkpt lat="47.522763" lon="7.743129">
        <ele>341.998269</ele>
        <time>2021-11-14T16:33:50.654Z</time>
      </trkpt>
      <trkpt lat="47.522741" lon="7.743405">
        <ele>340.353655</ele>
        <time>2021-11-14T16:33:52.886Z</time>
      </trkpt>
      <trkpt lat="47.522718" lon="7.743713">
        <ele>338.519903</ele>
        <time>2021-11-14T16:33:55.500Z</time>
      </trkpt>
      <trkpt lat="47.522759" lon="7.744390">
        <ele>334.497566</ele>
        <time>2021-11-14T16:34:01.218Z</time>
      </trkpt>
      <trkpt lat="47.522842" lon="7.744668">
        <ele>332.698844</ele>
        <time>2021-11-14T16:34:03.894Z</time>
      </trkpt>
      <trkpt lat="47.522934" lon="7.744789">
        <ele>331.894158</ele>
        <time>2021-11-14T16:34:05.442Z</time>
      </trkpt>
      <trkpt lat="47.523159" lon="7.744998">
        <ele>330.489230</ele>
        <time>2021-11-14T16:34:09.114Z</time>
      </trkpt>
      <trkpt lat="47.523167" lon="7.745068">
        <ele>330.235633</ele>
        <time>2021-11-14T16:34:09.713Z</time>
      </trkpt>
      <trkpt lat="47.523193" lon="7.745320">
        <ele>329.325037</ele>
        <time>2021-11-14T16:34:11.984Z</time>
      </trkpt>
      <trkpt lat="47.523198" lon="7.745377">
        <ele>329.119722</ele>
        <time>2021-11-14T16:34:12.538Z</time>
      </trkpt>
      <trkpt lat="47.523204" lon="7.745491">
        <ele>328.711276</ele>
        <time>2021-11-14T16:34:13.626Z</time>
      </trkpt>
      <trkpt lat="47.523239" lon="7.745774">
        <ele>327.683582</ele>
        <time>2021-11-14T16:34:16.178Z</time>
      </trkpt>
      <trkpt lat="47.523291" lon="7.746042">
        <ele>326.687549</ele>
        <time>2021-11-14T16:34:18.733Z</time>
      </trkpt>
      <trkpt lat="47.523619" lon="7.747020">
        <ele>322.794190</ele>
        <time>2021-11-14T16:34:28.496Z</time>
      </trkpt>
      <trkpt lat="47.523642" lon="7.747090">
        <ele>322.722322</ele>
        <time>2021-11-14T16:34:29.356Z</time>
      </trkpt>
      <trkpt lat="47.523682" lon="7.747182">
        <ele>322.621305</ele>
        <time>2021-11-14T16:34:30.410Z</time>
      </trkpt>
      <trkpt lat="47.523736" lon="7.747262">
        <ele>322.516879</ele>
        <time>2021-11-14T16:34:31.663Z</time>
      </trkpt>
      <trkpt lat="47.523866" lon="7.747399">
        <ele>322.298742</ele>
        <time>2021-11-14T16:34:34.111Z</time>
      </trkpt>
      <trkpt lat="47.524008" lon="7.747563">
        <ele>322.052550</ele>
        <time>2021-11-14T16:34:37.185Z</time>
      </trkpt>
      <trkpt lat="47.524137" lon="7.747681">
        <ele>321.845257</ele>
        <time>2021-11-14T16:34:39.719Z</time>
      </trkpt>
      <trkpt lat="47.524148" lon="7.747688">
        <ele>321.828889</ele>
        <time>2021-11-14T16:34:39.869Z</time>
      </trkpt>
      <trkpt lat="47.524248" lon="7.747742">
        <ele>321.683371</ele>
        <time>2021-11-14T16:34:41.771Z</time>
      </trkpt>
      <trkpt lat="47.524334" lon="7.747786">
        <ele>321.558978</ele>
        <time>2021-11-14T16:34:43.315Z</time>
      </trkpt>
      <trkpt lat="47.524410" lon="7.747828">
        <ele>321.448077</ele>
        <time>2021-11-14T16:34:44.922Z</time>
      </trkpt>
      <trkpt lat="47.524463" lon="7.747889">
        <ele>321.356309</ele>
        <time>2021-11-14T16:34:46.232Z</time>
      </trkpt>
      <trkpt lat="47.524570" lon="7.748090">
        <ele>321.120022</ele>
        <time>2021-11-14T16:34:49.071Z</time>
      </trkpt>
      <trkpt lat="47.524712" lon="7.748378">
        <ele>320.790814</ele>
        <time>2021-11-14T16:34:53.740Z</time>
      </trkpt>
      <trkpt lat="47.524786" lon="7.748513">
        <ele>320.630291</ele>
        <time>2021-11-14T16:34:55.558Z</time>
      </trkpt>
      <trkpt lat="47.525255" lon="7.749393">
        <ele>322.482515</ele>
        <time>2021-11-14T16:35:09.157Z</time>
      </trkpt>
      <trkpt lat="47.525385" lon="7.749630">
        <ele>323.296912</ele>
        <time>2021-11-14T16:35:15.320Z</time>
      </trkpt>
      <trkpt lat="47.525429" lon="7.749531">
        <ele>323.613025</ele>
        <time>2021-11-14T16:35:17.942Z</time>
      </trkpt>
      <trkpt lat="47.525444" lon="7.749458">
        <ele>323.816544</ele>
        <time>2021-11-14T16:35:19.809Z</time>
      </trkpt>
      <trkpt lat="47.525304" lon="7.748899">
        <ele>325.406745</ele>
        <time>2021-11-14T16:35:36.282Z</time>
      </trkpt>
      <trkpt lat="47.525317" lon="7.748722">
        <ele>325.881622</ele>
        <time>2021-11-14T16:35:41.504Z</time>
      </trkpt>
      <trkpt lat="47.525947" lon="7.747470">
        <ele>331.343074</ele>
        <time>2021-11-14T16:36:33.287Z</time>
      </trkpt>
      <trkpt lat="47.526114" lon="7.747216">
        <ele>332.759545</ele>
        <time>2021-11-14T16:36:43.536Z</time>
      </trkpt>
      <trkpt lat="47.526249" lon="7.747111">
        <ele>333.661817</ele>
        <time>2021-11-14T16:36:50.928Z</time>
      </trkpt>
      <trkpt lat="47.526743" lon="7.747167">
        <ele>336.593400</ele>
        <time>2021-11-14T16:37:11.151Z</time>
      </trkpt>
      <trkpt lat="47.526878" lon="7.747117">
        <ele>337.416806</ele>
        <time>2021-11-14T16:37:19.100Z</time>
      </trkpt>
      <trkpt lat="47.526986" lon="7.747029">
        <ele>338.099275</ele>
        <time>2021-11-14T16:37:22.430Z</time>
      </trkpt>
      <trkpt lat="47.527104" lon="7.746939">
        <ele>338.284731</ele>
        <time>2021-11-14T16:37:27.030Z</time>
      </trkpt>
      <trkpt lat="47.527234" lon="7.746843">
        <ele>338.487702</ele>
        <time>2021-11-14T16:37:34.217Z</time>
      </trkpt>
      <trkpt lat="47.527234" lon="7.746739">
        <ele>338.585824</ele>
        <time>2021-11-14T16:37:35.009Z</time>
      </trkpt>
      <trkpt lat="47.527265" lon="7.746502">
        <ele>338.813584</ele>
        <time>2021-11-14T16:37:38.942Z</time>
      </trkpt>
      <trkpt lat="47.527272" lon="7.746452">
        <ele>338.861761</ele>
        <time>2021-11-14T16:37:40.341Z</time>
      </trkpt>
      <trkpt lat="47.527663" lon="7.745368">
        <ele>340.021257</ele>
        <time>2021-11-14T16:37:57.834Z</time>
      </trkpt>
      <trkpt lat="47.527803" lon="7.744786">
        <ele>340.594572</ele>
        <time>2021-11-14T16:38:02.082Z</time>
      </trkpt>
      <trkpt lat="47.527847" lon="7.744575">
        <ele>340.482884</ele>
        <time>2021-11-14T16:38:03.819Z</time>
      </trkpt>
      <trkpt lat="47.527877" lon="7.744397">
        <ele>340.390097</ele>
        <time>2021-11-14T16:38:05.178Z</time>
      </trkpt>
      <trkpt lat="47.527974" lon="7.743612">
        <ele>339.986483</ele>
        <time>2021-11-14T16:38:11.375Z</time>
      </trkpt>
      <trkpt lat="47.527999" lon="7.742832">
        <ele>339.591548</ele>
        <time>2021-11-14T16:38:18.401Z</time>
      </trkpt>
      <trkpt lat="47.527982" lon="7.742599">
        <ele>339.473021</ele>
        <time>2021-11-14T16:38:20.224Z</time>
      </trkpt>
      <trkpt lat="47.528103" lon="7.742593">
        <ele>339.382339</ele>
        <time>2021-11-14T16:38:22.895Z</time>
      </trkpt>
      <trkpt lat="47.528416" lon="7.742548">
        <ele>339.384576</ele>
        <time>2021-11-14T16:38:27.907Z</time>
      </trkpt>
      <trkpt lat="47.528573" lon="7.742445">
        <ele>339.550277</ele>
        <time>2021-11-14T16:38:31.150Z</time>
      </trkpt>
      <trkpt lat="47.529662" lon="7.740909">
        <ele>340.999636</ele>
        <time>2021-11-14T16:39:00.144Z</time>
      </trkpt>
      <trkpt lat="47.529727" lon="7.740791">
        <ele>341.086888</ele>
        <time>2021-11-14T16:39:02.033Z</time>
      </trkpt>
      <trkpt lat="47.529943" lon="7.740958">
        <ele>341.293646</ele>
        <time>2021-11-14T16:39:06.946Z</time>
      </trkpt>
      <trkpt lat="47.530189" lon="7.741149">
        <ele>341.529334</ele>
        <time>2021-11-14T16:39:12.824Z</time>
      </trkpt>
      <trkpt lat="47.530274" lon="7.741330">
        <ele>341.655652</ele>
        <time>2021-11-14T16:39:15.482Z</time>
      </trkpt>
      <trkpt lat="47.530319" lon="7.741826">
        <ele>341.942384</ele>
        <time>2021-11-14T16:39:21.806Z</time>
      </trkpt>
      <trkpt lat="47.530354" lon="7.742323">
        <ele>342.228679</ele>
        <time>2021-11-14T16:39:27.800Z</time>
      </trkpt>
      <trkpt lat="47.530358" lon="7.742595">
        <ele>342.384556</ele>
        <time>2021-11-14T16:39:31.213Z</time>
      </trkpt>
      <trkpt lat="47.530398" lon="7.742881">
        <ele>342.430147</ele>
        <time>2021-11-14T16:39:33.896Z</time>
      </trkpt>
      <trkpt lat="47.530465" lon="7.743033">
        <ele>342.212001</ele>
        <time>2021-11-14T16:39:36.373Z</time>
      </trkpt>
      <trkpt lat="47.530789" lon="7.742930">
        <ele>341.622192</ele>
        <time>2021-11-14T16:39:40.934Z</time>
      </trkpt>
      <trkpt lat="47.531312" lon="7.742714">
        <ele>340.655811</ele>
        <time>2021-11-14T16:39:47.413Z</time>
      </trkpt>
      <trkpt lat="47.531799" lon="7.742604">
        <ele>339.778998</ele>
        <time>2021-11-14T16:39:52.609Z</time>
      </trkpt>
      <trkpt lat="47.532305" lon="7.742591">
        <ele>337.827748</ele>
        <time>2021-11-14T16:39:57.491Z</time>
      </trkpt>
      <trkpt lat="47.532788" lon="7.742758">
        <ele>334.803255</ele>
        <time>2021-11-14T16:40:02.132Z</time>
      </trkpt>
      <trkpt lat="47.533553" lon="7.743593">
        <ele>329.008443</ele>
        <time>2021-11-14T16:40:10.569Z</time>
      </trkpt>
      <trkpt lat="47.534012" lon="7.744242">
        <ele>325.916721</ele>
        <time>2021-11-14T16:40:16.413Z</time>
      </trkpt>
      <trkpt lat="47.534097" lon="7.744343">
        <ele>325.413522</ele>
        <time>2021-11-14T16:40:17.352Z</time>
      </trkpt>
      <trkpt lat="47.534179" lon="7.744495">
        <ele>324.806942</ele>
        <time>2021-11-14T16:40:18.680Z</time>
      </trkpt>
      <trkpt lat="47.534370" lon="7.744709">
        <ele>323.701046</ele>
        <time>2021-11-14T16:40:20.891Z</time>
      </trkpt>
      <trkpt lat="47.534429" lon="7.744856">
        <ele>323.167889</ele>
        <time>2021-11-14T16:40:22.133Z</time>
      </trkpt>
      <trkpt lat="47.534874" lon="7.746551">
        <ele>319.683320</ele>
        <time>2021-11-14T16:40:34.893Z</time>
      </trkpt>
      <trkpt lat="47.535912" lon="7.749669">
        <ele>319.233930</ele>
        <time>2021-11-14T16:41:13.233Z</time>
      </trkpt>
      <trkpt lat="47.537134" lon="7.752309">
        <ele>319.920999</ele>
        <time>2021-11-14T16:41:47.386Z</time>
      </trkpt>
      <trkpt lat="47.537371" lon="7.752851">
        <ele>320.282310</ele>
        <time>2021-11-14T16:41:54.035Z</time>
      </trkpt>
      <trkpt lat="47.537564" lon="7.753073">
        <ele>320.917030</ele>
        <time>2021-11-14T16:41:57.850Z</time>
      </trkpt>
      <trkpt lat="47.537715" lon="7.753194">
        <ele>321.362967</ele>
        <time>2021-11-14T16:42:01.695Z</time>
      </trkpt>
      <trkpt lat="47.538052" lon="7.753460">
        <ele>322.354846</ele>
        <time>2021-11-14T16:42:10.779Z</time>
      </trkpt>
      <trkpt lat="47.538359" lon="7.753900">
        <ele>323.464447</ele>
        <time>2021-11-14T16:42:22.011Z</time>
      </trkpt>
      <trkpt lat="47.538494" lon="7.754103">
        <ele>323.964126</ele>
        <time>2021-11-14T16:42:27.815Z</time>
      </trkpt>
      <trkpt lat="47.538723" lon="7.754445">
        <ele>324.929202</ele>
        <time>2021-11-14T16:42:38.008Z</time>
      </trkpt>
      <trkpt lat="47.538792" lon="7.754549">
        <ele>325.466610</ele>
        <time>2021-11-14T16:42:41.870Z</time>
      </trkpt>
      <trkpt lat="47.539079" lon="7.754976">
        <ele>327.687294</ele>
        <time>2021-11-14T16:42:57.569Z</time>
      </trkpt>
      <trkpt lat="47.539230" lon="7.755294">
        <ele>329.120155</ele>
        <time>2021-11-14T16:43:08.229Z</time>
      </trkpt>
      <trkpt lat="47.539346" lon="7.755736">
        <ele>330.867896</ele>
        <time>2021-11-14T16:43:21.520Z</time>
      </trkpt>
      <trkpt lat="47.539595" lon="7.757548">
        <ele>335.440769</ele>
        <time>2021-11-14T16:44:05.442Z</time>
      </trkpt>
      <trkpt lat="47.539722" lon="7.758107">
        <ele>336.074158</ele>
        <time>2021-11-14T16:44:14.449Z</time>
      </trkpt>
      <trkpt lat="47.539949" lon="7.758688">
        <ele>336.795048</ele>
        <time>2021-11-14T16:44:21.662Z</time>
      </trkpt>
      <trkpt lat="47.540447" lon="7.759585">
        <ele>335.353148</ele>
        <time>2021-11-14T16:44:30.185Z</time>
      </trkpt>
      <trkpt lat="47.540567" lon="7.759901">
        <ele>334.161476</ele>
        <time>2021-11-14T16:44:32.572Z</time>
      </trkpt>
      <trkpt lat="47.540921" lon="7.761599">
        <ele>328.043792</ele>
        <time>2021-11-14T16:44:43.629Z</time>
      </trkpt>
      <trkpt lat="47.541004" lon="7.762306">
        <ele>323.526372</ele>
        <time>2021-11-14T16:44:47.865Z</time>
      </trkpt>
      <trkpt lat="47.541005" lon="7.762329">
        <ele>323.381286</ele>
        <time>2021-11-14T16:44:47.995Z</time>
      </trkpt>
      <trkpt lat="47.541023" lon="7.762922">
        <ele>319.644536</ele>
        <time>2021-11-14T16:44:51.442Z</time>
      </trkpt>
      <trkpt lat="47.541027" lon="7.762942">
        <ele>319.513225</ele>
        <time>2021-11-14T16:44:51.559Z</time>
      </trkpt>
      <trkpt lat="47.541219" lon="7.763853">
        <ele>313.505434</ele>
        <time>2021-11-14T16:44:57.080Z</time>
      </trkpt>
      <trkpt lat="47.541334" lon="7.764020">
        <ele>312.003700</ele>
        <time>2021-11-14T16:44:58.512Z</time>
      </trkpt>
      <trkpt lat="47.541377" lon="7.764045">
        <ele>311.658448</ele>
        <time>2021-11-14T16:44:58.884Z</time>
      </trkpt>
      <trkpt lat="47.541364" lon="7.764150">
        <ele>311.193741</ele>
        <time>2021-11-14T16:44:59.501Z</time>
      </trkpt>
      <trkpt lat="47.541443" lon="7.764512">
        <ele>309.537595</ele>
        <time>2021-11-14T16:45:01.793Z</time>
      </trkpt>
      <trkpt lat="47.541552" lon="7.764869">
        <ele>307.831951</ele>
        <time>2021-11-14T16:45:04.090Z</time>
      </trkpt>
      <trkpt lat="47.541697" lon="7.765479">
        <ele>305.016711</ele>
        <time>2021-11-14T16:45:08.011Z</time>
      </trkpt>
      <trkpt lat="47.542317" lon="7.768533">
        <ele>296.563676</ele>
        <time>2021-11-14T16:45:29.517Z</time>
      </trkpt>
      <trkpt lat="47.542450" lon="7.769311">
        <ele>295.587261</ele>
        <time>2021-11-14T16:45:37.232Z</time>
      </trkpt>
      <trkpt lat="47.542720" lon="7.770771">
        <ele>295.764700</ele>
        <time>2021-11-14T16:45:53.775Z</time>
      </trkpt>
      <trkpt lat="47.543108" lon="7.773069">
        <ele>296.104842</ele>
        <time>2021-11-14T16:46:20.628Z</time>
      </trkpt>
      <trkpt lat="47.543145" lon="7.773277">
        <ele>296.139320</ele>
        <time>2021-11-14T16:46:22.754Z</time>
      </trkpt>
      <trkpt lat="47.543350" lon="7.774507">
        <ele>296.382739</ele>
        <time>2021-11-14T16:46:35.217Z</time>
      </trkpt>
      <trkpt lat="47.543402" lon="7.775016">
        <ele>296.542708</ele>
        <time>2021-11-14T16:46:40.280Z</time>
      </trkpt>
      <trkpt lat="47.543449" lon="7.775478">
        <ele>296.687892</ele>
        <time>2021-11-14T16:46:44.973Z</time>
      </trkpt>
      <trkpt lat="47.543482" lon="7.776095">
        <ele>296.880220</ele>
        <time>2021-11-14T16:46:51.681Z</time>
      </trkpt>
      <trkpt lat="47.543527" lon="7.776532">
        <ele>297.017585</ele>
        <time>2021-11-14T16:46:56.840Z</time>
      </trkpt>
      <trkpt lat="47.543707" lon="7.777394">
        <ele>298.372380</ele>
        <time>2021-11-14T16:47:09.126Z</time>
      </trkpt>
      <trkpt lat="47.543933" lon="7.778374">
        <ele>300.721227</ele>
        <time>2021-11-14T16:47:27.453Z</time>
      </trkpt>
      <trkpt lat="47.544100" lon="7.779438">
        <ele>303.220730</ele>
        <time>2021-11-14T16:47:51.654Z</time>
      </trkpt>
      <trkpt lat="47.544461" lon="7.782254">
        <ele>313.799199</ele>
        <time>2021-11-14T16:49:12.255Z</time>
      </trkpt>
      <trkpt lat="47.544469" lon="7.782455">
        <ele>313.668506</ele>
        <time>2021-11-14T16:49:17.288Z</time>
      </trkpt>
      <trkpt lat="47.544474" lon="7.782623">
        <ele>313.559353</ele>
        <time>2021-11-14T16:49:19.676Z</time>
      </trkpt>
      <trkpt lat="47.544490" lon="7.783060">
        <ele>313.275285</ele>
        <time>2021-11-14T16:49:23.568Z</time>
      </trkpt>
      <trkpt lat="47.544555" lon="7.783372">
        <ele>313.063344</ele>
        <time>2021-11-14T16:49:26.053Z</time>
      </trkpt>
      <trkpt lat="47.544627" lon="7.783499">
        <ele>312.955693</ele>
        <time>2021-11-14T16:49:27.450Z</time>
      </trkpt>
      <trkpt lat="47.544950" lon="7.784008">
        <ele>312.502238</ele>
        <time>2021-11-14T16:49:34.262Z</time>
      </trkpt>
      <trkpt lat="47.545054" lon="7.784227">
        <ele>312.328436</ele>
        <time>2021-11-14T16:49:36.834Z</time>
      </trkpt>
      <trkpt lat="47.545240" lon="7.784746">
        <ele>310.595943</ele>
        <time>2021-11-14T16:49:41.989Z</time>
      </trkpt>
      <trkpt lat="47.545250" lon="7.784778">
        <ele>310.454842</ele>
        <time>2021-11-14T16:49:42.262Z</time>
      </trkpt>
      <trkpt lat="47.545624" lon="7.785548">
        <ele>306.659017</ele>
        <time>2021-11-14T16:49:50.426Z</time>
      </trkpt>
      <trkpt lat="47.545672" lon="7.785654">
        <ele>306.148270</ele>
        <time>2021-11-14T16:49:51.435Z</time>
      </trkpt>
      <trkpt lat="47.545856" lon="7.785973">
        <ele>304.469282</ele>
        <time>2021-11-14T16:49:55.275Z</time>
      </trkpt>
      <trkpt lat="47.546102" lon="7.786217">
        <ele>302.714353</ele>
        <time>2021-11-14T16:49:59.261Z</time>
      </trkpt>
      <trkpt lat="47.546417" lon="7.786331">
        <ele>301.403129</ele>
        <time>2021-11-14T16:50:03.836Z</time>
      </trkpt>
      <trkpt lat="47.546464" lon="7.786335">
        <ele>301.350124</ele>
        <time>2021-11-14T16:50:04.598Z</time>
      </trkpt>
      <trkpt lat="47.546526" lon="7.786353">
        <ele>301.278990</ele>
        <time>2021-11-14T16:50:05.596Z</time>
      </trkpt>
      <trkpt lat="47.546913" lon="7.786470">
        <ele>300.834281</ele>
        <time>2021-11-14T16:50:11.754Z</time>
      </trkpt>
      <trkpt lat="47.546952" lon="7.786540">
        <ele>300.765302</ele>
        <time>2021-11-14T16:50:12.692Z</time>
      </trkpt>
      <trkpt lat="47.546959" lon="7.786598">
        <ele>300.720524</ele>
        <time>2021-11-14T16:50:13.393Z</time>
      </trkpt>
      <trkpt lat="47.546897" lon="7.787133">
        <ele>300.307988</ele>
        <time>2021-11-14T16:50:20.569Z</time>
      </trkpt>
      <trkpt lat="47.546793" lon="7.787974">
        <ele>299.658210</ele>
        <time>2021-11-14T16:50:32.694Z</time>
      </trkpt>
      <trkpt lat="47.546695" lon="7.788763">
        <ele>299.884670</ele>
        <time>2021-11-14T16:50:44.389Z</time>
      </trkpt>
      <trkpt lat="47.546673" lon="7.788921">
        <ele>299.978916</ele>
        <time>2021-11-14T16:50:47.000Z</time>
      </trkpt>
      <trkpt lat="47.546253" lon="7.791998">
        <ele>301.616789</ele>
        <time>2021-11-14T16:51:39.283Z</time>
      </trkpt>
      <trkpt lat="47.546027" lon="7.793254">
        <ele>302.173553</ele>
        <time>2021-11-14T16:51:58.946Z</time>
      </trkpt>
      <trkpt lat="47.545969" lon="7.793663">
        <ele>302.132983</ele>
        <time>2021-11-14T16:52:04.097Z</time>
      </trkpt>
      <trkpt lat="47.545924" lon="7.794406">
        <ele>301.925954</ele>
        <time>2021-11-14T16:52:13.207Z</time>
      </trkpt>
      <trkpt lat="47.545921" lon="7.794468">
        <ele>301.908703</ele>
        <time>2021-11-14T16:52:13.943Z</time>
      </trkpt>
      <trkpt lat="47.545947" lon="7.794710">
        <ele>301.840696</ele>
        <time>2021-11-14T16:52:16.780Z</time>
      </trkpt>
      <trkpt lat="47.546019" lon="7.795020">
        <ele>301.749713</ele>
        <time>2021-11-14T16:52:20.802Z</time>
      </trkpt>
      <trkpt lat="47.546165" lon="7.795511">
        <ele>301.600813</ele>
        <time>2021-11-14T16:52:27.715Z</time>
      </trkpt>
      <trkpt lat="47.546170" lon="7.795612">
        <ele>301.572708</ele>
        <time>2021-11-14T16:52:28.764Z</time>
      </trkpt>
      <trkpt lat="47.546154" lon="7.795747">
        <ele>301.534669</ele>
        <time>2021-11-14T16:52:30.602Z</time>
      </trkpt>
      <trkpt lat="47.546105" lon="7.795928">
        <ele>301.480548</ele>
        <time>2021-11-14T16:52:33.761Z</time>
      </trkpt>
      <trkpt lat="47.546038" lon="7.796107">
        <ele>301.483824</ele>
        <time>2021-11-14T16:52:36.068Z</time>
      </trkpt>
      <trkpt lat="47.545889" lon="7.796500">
        <ele>301.492787</ele>
        <time>2021-11-14T16:52:43.016Z</time>
      </trkpt>
      <trkpt lat="47.545788" lon="7.796748">
        <ele>301.498547</ele>
        <time>2021-11-14T16:52:46.782Z</time>
      </trkpt>
      <trkpt lat="47.545728" lon="7.796950">
        <ele>301.502936</ele>
        <time>2021-11-14T16:52:49.973Z</time>
      </trkpt>
      <trkpt lat="47.545689" lon="7.797076">
        <ele>301.505693</ele>
        <time>2021-11-14T16:52:51.408Z</time>
      </trkpt>
      <trkpt lat="47.545670" lon="7.797142">
        <ele>301.507120</ele>
        <time>2021-11-14T16:52:52.740Z</time>
      </trkpt>
      <trkpt lat="47.545645" lon="7.797258">
        <ele>301.509541</ele>
        <time>2021-11-14T16:52:54.432Z</time>
      </trkpt>
      <trkpt lat="47.545637" lon="7.797310">
        <ele>301.510602</ele>
        <time>2021-11-14T16:52:55.748Z</time>
      </trkpt>
      <trkpt lat="47.545558" lon="7.798144">
        <ele>301.527349</ele>
        <time>2021-11-14T16:53:06.863Z</time>
      </trkpt>
      <trkpt lat="47.545556" lon="7.798166">
        <ele>301.527791</ele>
        <time>2021-11-14T16:53:07.504Z</time>
      </trkpt>
      <trkpt lat="47.545511" lon="7.798680">
        <ele>301.472156</ele>
        <time>2021-11-14T16:53:15.029Z</time>
      </trkpt>
      <trkpt lat="47.545581" lon="7.798713">
        <ele>301.447401</ele>
        <time>2021-11-14T16:53:16.687Z</time>
      </trkpt>
      <trkpt lat="47.545731" lon="7.798810">
        <ele>301.392247</ele>
        <time>2021-11-14T16:53:20.551Z</time>
      </trkpt>
      <trkpt lat="47.545807" lon="7.798846">
        <ele>301.365359</ele>
        <time>2021-11-14T16:53:21.861Z</time>
      </trkpt>
      <trkpt lat="47.546418" lon="7.798980">
        <ele>301.157216</ele>
        <time>2021-11-14T16:53:33.994Z</time>
      </trkpt>
      <trkpt lat="47.547540" lon="7.799538">
        <ele>300.735624</ele>
        <time>2021-11-14T16:53:54.569Z</time>
      </trkpt>
      <trkpt lat="47.547912" lon="7.799646">
        <ele>300.590608</ele>
        <time>2021-11-14T16:54:01.950Z</time>
      </trkpt>
      <trkpt lat="47.548459" lon="7.799691">
        <ele>300.381029</ele>
        <time>2021-11-14T16:54:12.888Z</time>
      </trkpt>
      <trkpt lat="47.548535" lon="7.799720">
        <ele>300.351006</ele>
        <time>2021-11-14T16:54:14.408Z</time>
      </trkpt>
      <trkpt lat="47.548514" lon="7.799795">
        <ele>300.330040</ele>
        <time>2021-11-14T16:54:15.472Z</time>
      </trkpt>
      <trkpt lat="47.548519" lon="7.799896">
        <ele>300.303891</ele>
        <time>2021-11-14T16:54:16.827Z</time>
      </trkpt>
      <trkpt lat="47.548545" lon="7.800404">
        <ele>300.222699</ele>
        <time>2021-11-14T16:54:23.617Z</time>
      </trkpt>
      <trkpt lat="47.548560" lon="7.800672">
        <ele>300.206036</ele>
        <time>2021-11-14T16:54:27.316Z</time>
      </trkpt>
      <trkpt lat="47.548569" lon="7.800838">
        <ele>300.195717</ele>
        <time>2021-11-14T16:54:29.561Z</time>
      </trkpt>
      <trkpt lat="47.548576" lon="7.800968">
        <ele>300.187636</ele>
        <time>2021-11-14T16:54:31.329Z</time>
      </trkpt>
      <trkpt lat="47.548596" lon="7.801213">
        <ele>300.172344</ele>
        <time>2021-11-14T16:54:34.716Z</time>
      </trkpt>
      <trkpt lat="47.548607" lon="7.801690">
        <ele>300.142770</ele>
        <time>2021-11-14T16:54:41.213Z</time>
      </trkpt>
      <trkpt lat="47.548626" lon="7.802129">
        <ele>300.115512</ele>
        <time>2021-11-14T16:54:47.128Z</time>
      </trkpt>
      <trkpt lat="47.548626" lon="7.802129">
        <ele>300.115512</ele>
        <time>2021-11-14T16:54:47.132Z</time>
      </trkpt>
      <trkpt lat="47.548626" lon="7.802129">
        <ele>300.115512</ele>
        <time>2021-11-14T16:54:47.140Z</time>
      </trkpt>
      <trkpt lat="47.548796" lon="7.802155">
        <ele>300.099823</ele>
        <time>2021-11-14T16:54:50.552Z</time>
      </trkpt>
      <trkpt lat="47.548877" lon="7.802168">
        <ele>300.092343</ele>
        <time>2021-11-14T16:54:52.133Z</time>
      </trkpt>
      <trkpt lat="47.549410" lon="7.802226">
        <ele>299.968577</ele>
        <time>2021-11-14T16:55:02.551Z</time>
      </trkpt>
      <trkpt lat="47.549481" lon="7.802234">
        <ele>299.945870</ele>
        <time>2021-11-14T16:55:03.892Z</time>
      </trkpt>
      <trkpt lat="47.549879" lon="7.802247">
        <ele>299.818914</ele>
        <time>2021-11-14T16:55:11.359Z</time>
      </trkpt>
      <trkpt lat="47.550146" lon="7.802262">
        <ele>299.733705</ele>
        <time>2021-11-14T16:55:16.430Z</time>
      </trkpt>
      <trkpt lat="47.550134" lon="7.803051">
        <ele>299.563834</ele>
        <time>2021-11-14T16:55:26.649Z</time>
      </trkpt>
      <trkpt lat="47.550196" lon="7.803120">
        <ele>299.539105</ele>
        <time>2021-11-14T16:55:28.108Z</time>
      </trkpt>
      <trkpt lat="47.550981" lon="7.803132">
        <ele>299.509636</ele>
        <time>2021-11-14T16:55:42.754Z</time>
      </trkpt>
      <trkpt lat="47.551163" lon="7.803129">
        <ele>299.512318</ele>
        <time>2021-11-14T16:55:46.158Z</time>
      </trkpt>
      <trkpt lat="47.551598" lon="7.803160">
        <ele>299.518736</ele>
        <time>2021-11-14T16:55:54.750Z</time>
      </trkpt>
      <trkpt lat="47.551666" lon="7.803144">
        <ele>299.519751</ele>
        <time>2021-11-14T16:55:59.495Z</time>
      </trkpt>
      <trkpt lat="47.551732" lon="7.803125">
        <ele>299.520742</ele>
        <time>2021-11-14T16:56:04.162Z</time>
      </trkpt>
      <trkpt lat="47.551744" lon="7.803277">
        <ele>299.522264</ele>
        <time>2021-11-14T16:56:05.856Z</time>
      </trkpt>
      <trkpt lat="47.551751" lon="7.803369">
        <ele>299.523185</ele>
        <time>2021-11-14T16:56:06.929Z</time>
      </trkpt>
      <trkpt lat="47.551692" lon="7.803510">
        <ele>299.524835</ele>
        <time>2021-11-14T16:56:09.524Z</time>
      </trkpt>
      <trkpt lat="47.551741" lon="7.804294">
        <ele>299.854096</ele>
        <time>2021-11-14T16:56:22.541Z</time>
      </trkpt>
      <trkpt lat="47.551744" lon="7.804473">
        <ele>299.947030</ele>
        <time>2021-11-14T16:56:25.061Z</time>
      </trkpt>
      <trkpt lat="47.551731" lon="7.804667">
        <ele>300.048215</ele>
        <time>2021-11-14T16:56:29.041Z</time>
      </trkpt>
      <trkpt lat="47.551709" lon="7.805000">
        <ele>300.221876</ele>
        <time>2021-11-14T16:56:33.533Z</time>
      </trkpt>
      <trkpt lat="47.551681" lon="7.805477">
        <ele>300.470384</ele>
        <time>2021-11-14T16:56:41.269Z</time>
      </trkpt>
      <trkpt lat="47.551671" lon="7.806117">
        <ele>300.802648</ele>
        <time>2021-11-14T16:56:51.358Z</time>
      </trkpt>
      <trkpt lat="47.551651" lon="7.806246">
        <ele>300.871345</ele>
        <time>2021-11-14T16:56:54.261Z</time>
      </trkpt>
      <trkpt lat="47.551895" lon="7.806278">
        <ele>300.877494</ele>
        <time>2021-11-14T16:56:57.786Z</time>
      </trkpt>
      <trkpt lat="47.552015" lon="7.806307">
        <ele>300.857529</ele>
        <time>2021-11-14T16:57:00.657Z</time>
      </trkpt>
      <trkpt lat="47.552068" lon="7.806445">
        <ele>300.839932</ele>
        <time>2021-11-14T16:57:02.114Z</time>
      </trkpt>
      <trkpt lat="47.552398" lon="7.808880">
        <ele>300.412677</ele>
        <time>2021-11-14T16:57:24.256Z</time>
      </trkpt>
      <trkpt lat="47.552566" lon="7.810386">
        <ele>299.724289</ele>
        <time>2021-11-14T16:57:37.268Z</time>
      </trkpt>
      <trkpt lat="47.552711" lon="7.812955">
        <ele>298.599799</ele>
        <time>2021-11-14T16:57:59.876Z</time>
      </trkpt>
      <trkpt lat="47.552844" lon="7.816432">
        <ele>297.292806</ele>
        <time>2021-11-14T16:58:30.215Z</time>
      </trkpt>
      <trkpt lat="47.552933" lon="7.818938">
        <ele>297.506821</ele>
        <time>2021-11-14T16:58:56.416Z</time>
      </trkpt>
      <trkpt lat="47.552948" lon="7.819358">
        <ele>297.658207</ele>
        <time>2021-11-14T16:59:01.389Z</time>
      </trkpt>
      <trkpt lat="47.552896" lon="7.820699">
        <ele>298.283367</ele>
        <time>2021-11-14T16:59:17.615Z</time>
      </trkpt>
      <trkpt lat="47.552567" lon="7.824508">
        <ele>300.250974</ele>
        <time>2021-11-14T17:00:04.291Z</time>
      </trkpt>
      <trkpt lat="47.552491" lon="7.827227">
        <ele>301.646236</ele>
        <time>2021-11-14T17:00:36.031Z</time>
      </trkpt>
      <trkpt lat="47.552515" lon="7.828094">
        <ele>302.524018</ele>
        <time>2021-11-14T17:00:47.741Z</time>
      </trkpt>
      <trkpt lat="47.552477" lon="7.828294">
        <ele>302.734199</ele>
        <time>2021-11-14T17:00:50.358Z</time>
      </trkpt>
      <trkpt lat="47.552421" lon="7.828481">
        <ele>302.941151</ele>
        <time>2021-11-14T17:00:53.289Z</time>
      </trkpt>
      <trkpt lat="47.552404" lon="7.828582">
        <ele>303.046451</ele>
        <time>2021-11-14T17:00:54.974Z</time>
      </trkpt>
      <trkpt lat="47.552416" lon="7.828822">
        <ele>303.289897</ele>
        <time>2021-11-14T17:00:58.208Z</time>
      </trkpt>
      <trkpt lat="47.552554" lon="7.829266">
        <ele>303.784379</ele>
        <time>2021-11-14T17:01:05.559Z</time>
      </trkpt>
      <trkpt lat="47.552645" lon="7.830686">
        <ele>305.875316</ele>
        <time>2021-11-14T17:01:28.865Z</time>
      </trkpt>
      <trkpt lat="47.552690" lon="7.832598">
        <ele>308.891306</ele>
        <time>2021-11-14T17:02:00.784Z</time>
      </trkpt>
      <trkpt lat="47.552616" lon="7.832891">
        <ele>309.339856</ele>
        <time>2021-11-14T17:02:05.635Z</time>
      </trkpt>
      <trkpt lat="47.552556" lon="7.832977">
        <ele>309.517201</ele>
        <time>2021-11-14T17:02:08.308Z</time>
      </trkpt>
      <trkpt lat="47.552508" lon="7.832936">
        <ele>309.634904</ele>
        <time>2021-11-14T17:02:09.638Z</time>
      </trkpt>
      <trkpt lat="47.552458" lon="7.832824">
        <ele>309.827440</ele>
        <time>2021-11-14T17:02:12.037Z</time>
      </trkpt>
      <trkpt lat="47.552368" lon="7.832305">
        <ele>310.595748</ele>
        <time>2021-11-14T17:02:22.611Z</time>
      </trkpt>
      <trkpt lat="47.552336" lon="7.832174">
        <ele>310.795499</ele>
        <time>2021-11-14T17:02:25.362Z</time>
      </trkpt>
      <trkpt lat="47.552251" lon="7.831814">
        <ele>311.342340</ele>
        <time>2021-11-14T17:02:32.733Z</time>
      </trkpt>
      <trkpt lat="47.552065" lon="7.831350">
        <ele>312.116120</ele>
        <time>2021-11-14T17:02:42.994Z</time>
      </trkpt>
      <trkpt lat="47.551640" lon="7.830558">
        <ele>312.758443</ele>
        <time>2021-11-14T17:03:01.473Z</time>
      </trkpt>
      <trkpt lat="47.550675" lon="7.828955">
        <ele>313.405809</ele>
        <time>2021-11-14T17:03:33.146Z</time>
      </trkpt>
      <trkpt lat="47.550522" lon="7.828744">
        <ele>313.156357</ele>
        <time>2021-11-14T17:03:37.049Z</time>
      </trkpt>
      <trkpt lat="47.550183" lon="7.828277">
        <ele>312.603928</ele>
        <time>2021-11-14T17:03:44.695Z</time>
      </trkpt>
      <trkpt lat="47.549105" lon="7.827067">
        <ele>311.073971</ele>
        <time>2021-11-14T17:04:06.040Z</time>
      </trkpt>
      <trkpt lat="47.548679" lon="7.826710">
        <ele>310.571145</ele>
        <time>2021-11-14T17:04:14.228Z</time>
      </trkpt>
      <trkpt lat="47.548237" lon="7.826410">
        <ele>310.071660</ele>
        <time>2021-11-14T17:04:22.968Z</time>
      </trkpt>
      <trkpt lat="47.547666" lon="7.826091">
        <ele>310.133245</ele>
        <time>2021-11-14T17:04:35.140Z</time>
      </trkpt>
      <trkpt lat="47.547233" lon="7.825872">
        <ele>310.736585</ele>
        <time>2021-11-14T17:04:46.735Z</time>
      </trkpt>
      <trkpt lat="47.546693" lon="7.825618">
        <ele>311.483694</ele>
        <time>2021-11-14T17:05:02.147Z</time>
      </trkpt>
      <trkpt lat="47.546589" lon="7.825597">
        <ele>311.622103</ele>
        <time>2021-11-14T17:05:04.956Z</time>
      </trkpt>
      <trkpt lat="47.546576" lon="7.826176">
        <ele>312.151254</ele>
        <time>2021-11-14T17:05:15.910Z</time>
      </trkpt>
      <trkpt lat="47.546574" lon="7.826239">
        <ele>312.245862</ele>
        <time>2021-11-14T17:05:17.575Z</time>
      </trkpt>
      <trkpt lat="47.546592" lon="7.826850">
        <ele>313.163270</ele>
        <time>2021-11-14T17:05:29.313Z</time>
      </trkpt>
      <trkpt lat="47.546721" lon="7.828140">
        <ele>315.119463</ele>
        <time>2021-11-14T17:05:55.420Z</time>
      </trkpt>
      <trkpt lat="47.546823" lon="7.829336">
        <ele>316.849224</ele>
        <time>2021-11-14T17:06:19.051Z</time>
      </trkpt>
      <trkpt lat="47.546946" lon="7.830852">
        <ele>318.918202</ele>
        <time>2021-11-14T17:06:48.295Z</time>
      </trkpt>
      <trkpt lat="47.547020" lon="7.831965">
        <ele>320.357527</ele>
        <time>2021-11-14T17:07:09.132Z</time>
      </trkpt>
      <trkpt lat="47.547190" lon="7.835066">
        <ele>324.139190</ele>
        <time>2021-11-14T17:08:06.224Z</time>
      </trkpt>
      <trkpt lat="47.547240" lon="7.836221">
        <ele>325.561820</ele>
        <time>2021-11-14T17:08:27.698Z</time>
      </trkpt>
      <trkpt lat="47.547276" lon="7.837287">
        <ele>326.860076</ele>
        <time>2021-11-14T17:08:47.808Z</time>
      </trkpt>
      <trkpt lat="47.547300" lon="7.838688">
        <ele>328.546415</ele>
        <time>2021-11-14T17:09:14.555Z</time>
      </trkpt>
      <trkpt lat="47.547332" lon="7.840572">
        <ele>330.057855</ele>
        <time>2021-11-14T17:09:47.199Z</time>
      </trkpt>
      <trkpt lat="47.547339" lon="7.841072">
        <ele>330.330764</ele>
        <time>2021-11-14T17:09:54.980Z</time>
      </trkpt>
      <trkpt lat="47.547362" lon="7.841665">
        <ele>330.654898</ele>
        <time>2021-11-14T17:10:03.744Z</time>
      </trkpt>
      <trkpt lat="47.547448" lon="7.842262">
        <ele>330.919661</ele>
        <time>2021-11-14T17:10:12.133Z</time>
      </trkpt>
      <trkpt lat="47.547386" lon="7.842646">
        <ele>330.992966</ele>
        <time>2021-11-14T17:10:17.383Z</time>
      </trkpt>
      <trkpt lat="47.547354" lon="7.842839">
        <ele>331.029865</ele>
        <time>2021-11-14T17:10:20.011Z</time>
      </trkpt>
      <trkpt lat="47.547313" lon="7.843735">
        <ele>331.196601</ele>
        <time>2021-11-14T17:10:32.348Z</time>
      </trkpt>
      <trkpt lat="47.547295" lon="7.844722">
        <ele>331.383642</ele>
        <time>2021-11-14T17:10:47.096Z</time>
      </trkpt>
      <trkpt lat="47.547274" lon="7.845536">
        <ele>332.272414</ele>
        <time>2021-11-14T17:11:00.531Z</time>
      </trkpt>
      <trkpt lat="47.547124" lon="7.848795">
        <ele>336.203242</ele>
        <time>2021-11-14T17:12:02.685Z</time>
      </trkpt>
      <trkpt lat="47.547143" lon="7.849985">
        <ele>337.809325</ele>
        <time>2021-11-14T17:12:25.536Z</time>
      </trkpt>
      <trkpt lat="47.547141" lon="7.850355">
        <ele>338.128514</ele>
        <time>2021-11-14T17:12:32.636Z</time>
      </trkpt>
      <trkpt lat="47.546945" lon="7.851719">
        <ele>339.215965</ele>
        <time>2021-11-14T17:12:57.169Z</time>
      </trkpt>
      <trkpt lat="47.546582" lon="7.856413">
        <ele>340.674884</ele>
        <time>2021-11-14T17:14:05.481Z</time>
      </trkpt>
      <trkpt lat="47.546537" lon="7.857497">
        <ele>340.858043</ele>
        <time>2021-11-14T17:14:20.789Z</time>
      </trkpt>
      <trkpt lat="47.546487" lon="7.859119">
        <ele>341.200124</ele>
        <time>2021-11-14T17:14:44.236Z</time>
      </trkpt>
      <trkpt lat="47.546526" lon="7.861665">
        <ele>341.215416</ele>
        <time>2021-11-14T17:15:21.411Z</time>
      </trkpt>
      <trkpt lat="47.546592" lon="7.863006">
        <ele>340.786260</ele>
        <time>2021-11-14T17:15:37.877Z</time>
      </trkpt>
      <trkpt lat="47.546877" lon="7.864345">
        <ele>339.255054</ele>
        <time>2021-11-14T17:15:53.047Z</time>
      </trkpt>
      <trkpt lat="47.546885" lon="7.864500">
        <ele>339.054691</ele>
        <time>2021-11-14T17:15:54.726Z</time>
      </trkpt>
      <trkpt lat="47.546894" lon="7.864837">
        <ele>338.619993</ele>
        <time>2021-11-14T17:15:58.205Z</time>
      </trkpt>
      <trkpt lat="47.546889" lon="7.865225">
        <ele>338.119809</ele>
        <time>2021-11-14T17:16:02.326Z</time>
      </trkpt>
      <trkpt lat="47.546819" lon="7.865489">
        <ele>337.754228</ele>
        <time>2021-11-14T17:16:05.404Z</time>
      </trkpt>
      <trkpt lat="47.546510" lon="7.865766">
        <ele>337.131902</ele>
        <time>2021-11-14T17:16:11.098Z</time>
      </trkpt>
      <trkpt lat="47.546327" lon="7.865959">
        <ele>336.850667</ele>
        <time>2021-11-14T17:16:14.430Z</time>
      </trkpt>
      <trkpt lat="47.546096" lon="7.866147">
        <ele>336.520696</ele>
        <time>2021-11-14T17:16:18.496Z</time>
      </trkpt>
      <trkpt lat="47.545240" lon="7.866887">
        <ele>335.279894</ele>
        <time>2021-11-14T17:16:35.170Z</time>
      </trkpt>
      <trkpt lat="47.545160" lon="7.866985">
        <ele>335.149930</ele>
        <time>2021-11-14T17:16:37.125Z</time>
      </trkpt>
      <trkpt lat="47.545003" lon="7.867278">
        <ele>335.160439</ele>
        <time>2021-11-14T17:16:42.794Z</time>
      </trkpt>
      <trkpt lat="47.544568" lon="7.867693">
        <ele>335.725596</ele>
        <time>2021-11-14T17:16:55.584Z</time>
      </trkpt>
      <trkpt lat="47.544469" lon="7.867776">
        <ele>335.849850</ele>
        <time>2021-11-14T17:16:58.446Z</time>
      </trkpt>
      <trkpt lat="47.544410" lon="7.867825">
        <ele>335.923733</ele>
        <time>2021-11-14T17:17:00.535Z</time>
      </trkpt>
      <trkpt lat="47.544246" lon="7.867967">
        <ele>336.131225</ele>
        <time>2021-11-14T17:17:05.218Z</time>
      </trkpt>
      <trkpt lat="47.544214" lon="7.867988">
        <ele>336.169455</ele>
        <time>2021-11-14T17:17:06.066Z</time>
      </trkpt>
      <trkpt lat="47.543801" lon="7.868269">
        <ele>336.665884</ele>
        <time>2021-11-14T17:17:17.669Z</time>
      </trkpt>
      <trkpt lat="47.543657" lon="7.868359">
        <ele>336.836602</ele>
        <time>2021-11-14T17:17:22.019Z</time>
      </trkpt>
      <trkpt lat="47.543201" lon="7.868657">
        <ele>336.972913</ele>
        <time>2021-11-14T17:17:32.219Z</time>
      </trkpt>
      <trkpt lat="47.543105" lon="7.868711">
        <ele>336.972913</ele>
        <time>2021-11-14T17:17:34.784Z</time>
      </trkpt>
      <trkpt lat="47.543049" lon="7.868759">
        <ele>336.972913</ele>
        <time>2021-11-14T17:17:36.082Z</time>
      </trkpt>
      <trkpt lat="47.542722" lon="7.869201">
        <ele>336.972913</ele>
        <time>2021-11-14T17:17:45.452Z</time>
      </trkpt>
      <trkpt lat="47.542696" lon="7.869257">
        <ele>336.972913</ele>
        <time>2021-11-14T17:17:46.202Z</time>
      </trkpt>
      <trkpt lat="47.542657" lon="7.869354">
        <ele>336.972913</ele>
        <time>2021-11-14T17:17:47.605Z</time>
      </trkpt>
      <trkpt lat="47.542372" lon="7.869746">
        <ele>336.972913</ele>
        <time>2021-11-14T17:17:54.439Z</time>
      </trkpt>
      <trkpt lat="47.542329" lon="7.869820">
        <ele>336.972913</ele>
        <time>2021-11-14T17:17:55.650Z</time>
      </trkpt>
      <trkpt lat="47.542348" lon="7.869983">
        <ele>336.972913</ele>
        <time>2021-11-14T17:17:57.178Z</time>
      </trkpt>
      <trkpt lat="47.542317" lon="7.870012">
        <ele>336.972913</ele>
        <time>2021-11-14T17:17:57.773Z</time>
      </trkpt>
      <trkpt lat="47.542181" lon="7.870131">
        <ele>336.972913</ele>
        <time>2021-11-14T17:18:00.127Z</time>
      </trkpt>
      <trkpt lat="47.542118" lon="7.870134">
        <ele>336.972913</ele>
        <time>2021-11-14T17:18:01.160Z</time>
      </trkpt>
    </trkseg>
  </trk>
</gpx>